[[{"header":{"parameterUnit":"m.s-1","parameterCategory":1,"la1":30.6,"la2":29.2853,"lo1":-89.7004,"lo2":-87.6739,"dy":0.0162,"dx":0.0183,"nx":112,"ny":82,"refTime":"2023-07-21T00:00:00:Z","depth":0,"parameterNumber":2,"parameterNumberName":"U-component_of_WINDS"},"data":[0.0,0.0,0.0,0.0,0.0,0.0,0.0,0.0,0.0,0.0,0.0,0.0,0.0,0.0,0.0,0.0,0.0,0.0,0.0,0.0,0.0,0.0,0.0,0.0,0.0,0.0,0.0,0.0,0.0,0.0,0.0,0.0,0.0,0.0,0.0,0.0,0.0,0.0,0.0,0.0,0.0,0.0,0.0,0.0,0.0,0.0,0.0,0.0,0.0,0.0,0.0,0.0,0.0,0.0,0.0,0.0,0.0,0.0,0.0,0.0,0.0,0.0,0.0,0.0,0.0,0.0,0.0,0.0,0.0,0.0,0.0,0.0,0.0,0.0,0.0,0.0,0.0,0.0,0.0,0.0,0.0,0.0,0.0,0.0,0.0,0.0,0.0,0.0,0.0,0.0,2.5057,2.5012,2.5004,2.4991,2.4999,2.498,2.498,2.4966,0.0,0.0,0.0,0.0,0.0,0.0,0.0,0.0,0.0,0.0,0.0,0.0,0.0,0.0,0.0,0.0,0.0,0.0,0.0,0.0,0.0,0.0,0.0,0.0,0.0,0.0,0.0,0.0,0.0,0.0,0.0,0.0,0.0,0.0,0.0,0.0,0.0,0.0,0.0,0.0,0.0,0.0,0.0,0.0,0.0,0.0,0.0,0.0,0.0,0.0,0.0,0.0,0.0,0.0,0.0,0.0,0.0,0.0,0.0,0.0,0.0,0.0,0.0,0.0,0.0,0.0,0.0,0.0,0.0,0.0,0.0,0.0,0.0,0.0,0.0,0.0,0.0,0.0,0.0,0.0,0.0,0.0,0.0,0.0,0.0,0.0,0.0,0.0,0.0,0.0,0.0,0.0,0.0,0.0,0.0,0.0,0.0,0.0,0.0,0.0,0.0,0.0,0.0,0.0,2.5012,2.4991,2.501,2.501,2.4991,2.4945,2.4884,2.4823,0.0,0.0,0.0,0.0,0.0,0.0,0.0,0.0,0.0,0.0,0.0,0.0,0.0,0.0,0.0,0.0,0.0,0.0,0.0,0.0,0.0,0.0,0.0,0.0,0.0,0.0,0.0,0.0,0.0,0.0,0.0,0.0,0.0,0.0,0.0,0.0,0.0,0.0,0.0,0.0,0.0,0.0,0.0,0.0,0.0,0.0,0.0,0.0,0.0,0.0,0.0,0.0,0.0,0.0,0.0,0.0,0.0,0.0,0.0,0.0,0.0,0.0,0.0,0.0,0.0,0.0,0.0,0.0,0.0,0.0,0.0,0.0,0.0,0.0,0.0,0.0,0.0,0.0,0.0,0.0,0.0,0.0,0.0,0.0,0.0,0.0,0.0,0.0,0.0,0.0,0.0,0.0,0.0,0.0,0.0,0.0,0.0,0.0,0.0,0.0,0.0,0.0,0.0,2.4912,2.4898,2.4903,2.4889,2.4889,2.4889,2.4861,2.4798,2.4704,2.4654,0.0,0.0,0.0,0.0,0.0,0.0,0.0,0.0,0.0,0.0,0.0,0.0,0.0,0.0,0.0,0.0,0.0,0.0,0.0,0.0,0.0,0.0,0.0,0.0,0.0,0.0,0.0,0.0,0.0,0.0,0.0,0.0,0.0,0.0,0.0,0.0,0.0,0.0,0.0,0.0,0.0,0.0,0.0,0.0,0.0,0.0,0.0,0.0,0.0,0.0,0.0,0.0,0.0,0.0,0.0,0.0,0.0,0.0,0.0,0.0,0.0,0.0,0.0,0.0,0.0,0.0,0.0,0.0,0.0,0.0,0.0,0.0,0.0,0.0,0.0,0.0,0.0,0.0,0.0,0.0,0.0,0.0,0.0,0.0,0.0,0.0,0.0,0.0,0.0,0.0,0.0,0.0,0.0,0.0,0.0,0.0,0.0,0.0,0.0,0.0,0.0,0.0,2.4764,2.4764,2.4749,2.4764,2.4783,2.4783,2.4772,2.4692,2.4575,2.4442,0.0,0.0,0.0,0.0,0.0,0.0,0.0,0.0,0.0,0.0,0.0,0.0,0.0,0.0,0.0,0.0,0.0,0.0,0.0,0.0,0.0,0.0,0.0,0.0,0.0,0.0,0.0,0.0,0.0,0.0,0.0,0.0,0.0,0.0,0.0,0.0,0.0,0.0,0.0,0.0,0.0,0.0,0.0,0.0,0.0,0.0,0.0,0.0,0.0,0.0,0.0,0.0,0.0,0.0,0.0,0.0,0.0,0.0,0.0,0.0,0.0,0.0,0.0,0.0,0.0,0.0,0.0,0.0,0.0,0.0,0.0,0.0,0.0,0.0,0.0,0.0,0.0,0.0,0.0,0.0,0.0,0.0,0.0,0.0,0.0,0.0,0.0,0.0,0.0,0.0,0.0,0.0,0.0,0.0,0.0,0.0,0.0,0.0,0.0,0.0,0.0,0.0,2.4673,2.4673,2.4623,2.4673,2.4707,2.4707,2.4645,2.458,2.4512,2.432,0.0,0.0,0.0,0.0,0.0,0.0,0.0,0.0,0.0,0.0,0.0,0.0,0.0,0.0,0.0,0.0,0.0,0.0,0.0,0.0,0.0,0.0,0.0,0.0,0.0,0.0,0.0,0.0,0.0,0.0,0.0,0.0,0.0,0.0,0.0,0.0,0.0,0.0,0.0,0.0,0.0,0.0,0.0,0.0,0.0,0.0,0.0,0.0,0.0,0.0,0.0,0.0,0.0,0.0,0.0,0.0,0.0,0.0,0.0,0.0,0.0,0.0,0.0,0.0,0.0,0.0,0.0,0.0,0.0,0.0,0.0,0.0,0.0,0.0,0.0,0.0,0.0,0.0,0.0,0.0,0.0,0.0,0.0,0.0,0.0,0.0,0.0,0.0,0.0,0.0,0.0,0.0,0.0,0.0,0.0,0.0,0.0,0.0,0.0,0.0,0.0,0.0,2.4426,2.4426,0.0,2.4409,2.4462,2.4462,2.4393,2.4321,2.4266,0.0,0.0,0.0,0.0,0.0,0.0,0.0,0.0,0.0,0.0,0.0,0.0,0.0,0.0,0.0,0.0,0.0,0.0,0.0,0.0,0.0,0.0,0.0,0.0,0.0,0.0,0.0,0.0,0.0,0.0,0.0,0.0,0.0,0.0,0.0,0.0,0.0,0.0,0.0,0.0,0.0,0.0,0.0,0.0,0.0,0.0,0.0,0.0,0.0,0.0,0.0,0.0,0.0,0.0,0.0,0.0,0.0,0.0,0.0,0.0,0.0,0.0,0.0,0.0,0.0,0.0,0.0,0.0,0.0,0.0,0.0,0.0,0.0,0.0,0.0,0.0,0.0,0.0,0.0,0.0,0.0,0.0,0.0,0.0,0.0,0.0,0.0,0.0,0.0,0.0,0.0,0.0,0.0,0.0,0.0,0.0,0.0,0.0,0.0,0.0,0.0,0.0,2.4229,2.421,2.4191,0.0,2.4154,2.421,2.421,2.4135,2.4096,2.4039,0.0,0.0,0.0,0.0,0.0,0.0,0.0,0.0,0.0,0.0,0.0,0.0,0.0,0.0,0.0,0.0,0.0,0.0,0.0,0.0,0.0,0.0,0.0,0.0,0.0,0.0,0.0,0.0,0.0,0.0,0.0,0.0,0.0,0.0,0.0,0.0,0.0,0.0,0.0,0.0,0.0,0.0,0.0,0.0,0.0,0.0,0.0,0.0,0.0,0.0,0.0,0.0,0.0,0.0,0.0,0.0,0.0,0.0,0.0,0.0,0.0,0.0,0.0,0.0,0.0,0.0,0.0,0.0,0.0,0.0,0.0,0.0,0.0,0.0,0.0,0.0,0.0,0.0,0.0,0.0,0.0,0.0,0.0,0.0,0.0,0.0,0.0,0.0,0.0,0.0,0.0,0.0,0.0,0.0,0.0,0.0,0.0,0.0,0.0,0.0,0.0,0.0,2.4016,2.3996,2.3976,2.3896,2.3955,2.3996,2.3996,2.3955,2.3896,0.0,0.0,0.0,0.0,0.0,0.0,0.0,0.0,0.0,0.0,0.0,0.0,0.0,0.0,0.0,0.0,0.0,0.0,0.0,0.0,0.0,0.0,0.0,0.0,0.0,0.0,0.0,0.0,0.0,0.0,0.0,0.0,0.0,0.0,0.0,0.0,0.0,0.0,0.0,0.0,0.0,0.0,0.0,0.0,0.0,0.0,0.0,0.0,0.0,0.0,0.0,0.0,0.0,0.0,0.0,0.0,0.0,0.0,0.0,0.0,0.0,0.0,0.0,0.0,0.0,0.0,0.0,0.0,0.0,0.0,0.0,0.0,0.0,0.0,0.0,0.0,0.0,0.0,0.0,0.0,0.0,0.0,0.0,0.0,0.0,0.0,0.0,0.0,0.0,0.0,0.0,0.0,0.0,0.0,0.0,0.0,0.0,0.0,0.0,0.0,0.0,0.0,0.0,2.381,2.3786,2.3765,2.37,2.3743,2.3786,2.3786,2.3768,2.3747,2.3747,0.0,0.0,0.0,0.0,0.0,0.0,0.0,0.0,0.0,0.0,0.0,0.0,0.0,0.0,0.0,0.0,0.0,0.0,0.0,0.0,0.0,0.0,0.0,0.0,0.0,0.0,0.0,0.0,0.0,0.0,0.0,0.0,0.0,0.0,0.0,0.0,0.0,0.0,0.0,0.0,0.0,0.0,0.0,0.0,0.0,0.0,0.0,0.0,0.0,0.0,0.0,0.0,0.0,0.0,0.0,0.0,0.0,0.0,0.0,0.0,0.0,0.0,0.0,0.0,0.0,0.0,0.0,0.0,0.0,0.0,0.0,0.0,0.0,0.0,0.0,0.0,0.0,0.0,0.0,0.0,0.0,0.0,0.0,0.0,0.0,0.0,0.0,0.0,0.0,0.0,0.0,0.0,0.0,0.0,0.0,0.0,0.0,0.0,0.0,0.0,0.0,0.0,2.3611,2.3567,2.3522,2.3494,2.3544,2.3589,2.3589,2.3589,2.3589,2.3589,0.0,0.0,0.0,0.0,0.0,0.0,0.0,0.0,0.0,0.0,0.0,0.0,0.0,0.0,0.0,0.0,0.0,0.0,0.0,0.0,0.0,0.0,0.0,0.0,0.0,0.0,0.0,0.0,0.0,0.0,0.0,0.0,0.0,0.0,0.0,0.0,0.0,0.0,0.0,0.0,0.0,0.0,0.0,0.0,0.0,0.0,0.0,0.0,0.0,0.0,0.0,0.0,0.0,0.0,0.0,0.0,0.0,0.0,0.0,0.0,0.0,0.0,0.0,0.0,0.0,0.0,0.0,0.0,0.0,0.0,0.0,0.0,0.0,0.0,0.0,0.0,0.0,0.0,0.0,0.0,0.0,0.0,0.0,0.0,0.0,0.0,0.0,0.0,0.0,0.0,0.0,0.0,0.0,0.0,0.0,0.0,0.0,0.0,0.0,0.0,0.0,0.0,2.3407,2.3336,2.3289,2.3289,2.336,2.3383,2.3383,2.3378,2.336,2.336,0.0,0.0,0.0,0.0,0.0,0.0,0.0,0.0,0.0,0.0,0.0,0.0,0.0,0.0,0.0,0.0,0.0,0.0,0.0,0.0,0.0,0.0,0.0,0.0,0.0,0.0,0.0,0.0,0.0,0.0,0.0,0.0,0.0,0.0,0.0,0.0,0.0,0.0,0.0,0.0,0.0,0.0,0.0,0.0,0.0,0.0,0.0,0.0,0.0,0.0,0.0,0.0,0.0,0.0,0.0,0.0,0.0,0.0,0.0,0.0,2.5355,0.0,0.0,0.0,0.0,0.0,0.0,0.0,0.0,0.0,0.0,0.0,0.0,0.0,0.0,0.0,0.0,0.0,0.0,0.0,0.0,0.0,0.0,0.0,0.0,0.0,0.0,0.0,0.0,0.0,0.0,0.0,0.0,0.0,0.0,0.0,0.0,0.0,0.0,0.0,0.0,0.0,2.3336,2.3313,2.3289,2.3289,2.3313,2.3289,2.3241,2.3193,2.3144,2.3095,2.2919,0.0,0.0,0.0,0.0,0.0,0.0,0.0,0.0,0.0,0.0,0.0,0.0,0.0,0.0,0.0,0.0,0.0,0.0,0.0,0.0,0.0,0.0,0.0,0.0,0.0,0.0,0.0,0.0,0.0,0.0,0.0,0.0,0.0,0.0,0.0,0.0,0.0,0.0,0.0,0.0,0.0,0.0,0.0,0.0,0.0,0.0,0.0,0.0,0.0,0.0,0.0,0.0,0.0,0.0,0.0,0.0,0.0,0.0,0.0,0.0,2.524,0.0,0.0,0.0,0.0,0.0,0.0,0.0,0.0,0.0,0.0,0.0,0.0,0.0,0.0,0.0,0.0,0.0,0.0,0.0,0.0,0.0,0.0,0.0,0.0,0.0,0.0,0.0,0.0,0.0,0.0,0.0,0.0,0.0,0.0,0.0,0.0,0.0,0.0,0.0,0.0,2.3168,2.3503,2.3681,2.3613,2.3971,2.4173,2.4077,2.3998,2.3917,2.3801,2.3624,0.0,0.0,0.0,0.0,0.0,0.0,0.0,0.0,0.0,0.0,0.0,0.0,0.0,0.0,0.0,0.0,0.0,0.0,0.0,0.0,0.0,0.0,0.0,0.0,0.0,0.0,0.0,0.0,0.0,0.0,0.0,0.0,0.0,0.0,0.0,0.0,0.0,0.0,0.0,0.0,0.0,0.0,0.0,0.0,0.0,0.0,0.0,0.0,0.0,0.0,0.0,0.0,0.0,2.724,2.7276,2.7276,2.7271,2.738,2.7417,2.5955,2.5716,2.6346,2.5684,0.0,0.0,0.0,0.0,0.0,0.0,0.0,0.0,0.0,0.0,0.0,0.0,0.0,0.0,0.0,0.0,0.0,0.0,0.0,0.0,0.0,0.0,0.0,0.0,2.3224,2.3259,0.0,0.0,0.0,0.0,0.0,0.0,0.0,0.0,0.0,0.0,0.0,0.0,2.3379,2.392,2.4249,2.4078,2.4676,2.5029,2.4895,2.4807,2.4701,2.4577,2.4411,2.4339,0.0,0.0,0.0,0.0,0.0,0.0,0.0,0.0,0.0,0.0,0.0,0.0,0.0,0.0,0.0,0.0,0.0,0.0,0.0,0.0,0.0,0.0,0.0,0.0,0.0,0.0,0.0,0.0,0.0,0.0,0.0,0.0,2.5407,2.5398,0.0,0.0,0.0,0.0,0.0,0.0,0.0,0.0,0.0,0.0,0.0,0.0,0.0,2.7064,2.7029,2.7095,2.7117,2.7117,2.7117,2.7135,2.7135,2.7187,2.7633,2.8288,2.7382,0.0,2.7148,2.7035,0.0,0.0,0.0,0.0,0.0,0.0,0.0,0.0,0.0,0.0,0.0,0.0,0.0,0.0,0.0,0.0,0.0,0.0,0.0,0.0,0.0,0.0,2.3833,2.4281,2.4334,2.4334,0.0,2.4164,2.3903,2.3903,2.4398,0.0,0.0,0.0,0.0,0.0,0.0,0.0,2.475,2.4764,2.4717,2.467,2.462,2.4564,2.4489,2.4317,2.416,2.4113,2.3967,2.4166,2.4776,2.4757,0.0,0.0,0.0,0.0,0.0,0.0,0.0,0.0,0.0,0.0,0.0,0.0,0.0,0.0,0.0,0.0,0.0,0.0,0.0,0.0,0.0,0.0,0.0,0.0,0.0,0.0,0.0,0.0,0.0,2.6765,2.6743,2.6702,2.6661,2.6638,0.0,0.0,0.0,0.0,0.0,0.0,0.0,0.0,0.0,2.733,2.7685,2.7844,2.7809,2.8185,2.839,2.839,2.8428,2.8465,2.8503,2.8576,2.88,2.9101,2.8708,2.8521,2.8409,2.7542,2.7184,2.7186,0.0,0.0,0.0,0.0,2.6622,2.6454,2.6254,2.611,0.0,2.5843,0.0,0.0,0.0,0.0,0.0,0.0,0.0,0.0,0.0,0.0,2.4113,2.4343,2.4334,2.4271,2.4208,2.4385,2.4489,0.0,2.4462,2.4582,2.4356,0.0,0.0,0.0,0.0,2.4546,2.4697,2.4985,2.5147,2.5023,2.5311,2.548,2.543,2.5261,2.5124,2.5071,2.495,2.5007,2.5281,2.5277,2.5387,0.0,0.0,0.0,0.0,0.0,0.0,0.0,0.0,0.0,0.0,0.0,0.0,0.0,0.0,0.0,0.0,0.0,0.0,0.0,0.0,0.0,0.0,0.0,0.0,0.0,0.0,0.0,0.0,2.7816,2.7745,2.7676,2.7631,2.7586,0.0,0.0,0.0,0.0,0.0,0.0,2.7797,2.7736,2.7784,2.7921,2.8424,2.8652,2.8576,2.9133,2.9392,2.9392,2.9453,2.9531,2.9607,2.9645,2.9626,2.9588,2.9492,2.9412,2.9237,2.8091,2.7643,2.7587,2.7491,2.7392,2.7311,2.716,2.7004,2.6807,2.6626,2.6476,2.6373,2.6144,2.5913,2.57,2.5662,0.0,0.0,0.0,0.0,2.4679,2.4695,2.462,2.4528,2.4646,2.4597,2.4497,2.4446,2.4789,2.5041,0.0,2.4676,2.4743,2.4669,0.0,0.0,0.0,0.0,2.4924,2.4873,2.5328,2.5581,2.5427,2.5874,2.6118,2.6082,2.5937,2.5881,2.5824,2.5733,2.5659,2.5616,2.5578,2.5524,2.5524,0.0,0.0,0.0,0.0,0.0,0.0,0.0,0.0,0.0,0.0,0.0,0.0,0.0,0.0,0.0,0.0,0.0,0.0,0.0,0.0,0.0,0.0,0.0,0.0,0.0,0.0,0.0,0.0,0.0,2.7611,2.7597,0.0,0.0,0.0,0.0,2.7422,2.7396,2.7774,2.86,2.8593,2.8902,2.9657,2.9514,2.9416,2.9357,2.939,2.937,2.9314,2.9453,2.9531,2.9607,2.9607,2.9569,2.9492,2.9373,2.9228,2.9112,2.9092,2.9058,2.8997,2.8924,2.8805,2.8688,2.856,2.841,2.8254,2.8139,2.8029,2.7946,2.7741,2.7058,2.626,2.6189,2.548,0.0,0.0,2.4411,2.4471,2.5096,2.5163,2.5209,2.5782,2.575,2.564,2.5766,2.5668,2.5436,0.0,2.5592,2.5909,2.5279,0.0,2.528,2.528,2.528,2.5497,2.613,2.6071,2.5961,2.5961,2.5832,2.5738,2.5738,2.5659,2.5616,2.5616,2.5616,2.5616,2.5616,2.547,2.5394,2.5333,2.5185,0.0,0.0,0.0,0.0,0.0,0.0,0.0,0.0,0.0,0.0,0.0,0.0,0.0,0.0,0.0,0.0,0.0,0.0,0.0,0.0,0.0,0.0,0.0,0.0,0.0,0.0,0.0,0.0,2.9083,2.9036,0.0,2.8985,2.8952,2.8919,2.8883,2.8866,2.9017,2.9317,2.9319,2.9452,2.9735,2.9589,2.9492,2.9472,2.9392,2.9351,2.9353,2.9453,2.9531,2.9607,2.9607,2.9511,2.9373,2.9246,2.9071,2.8905,2.8797,2.8797,2.8845,2.8718,2.8644,2.8594,2.8458,2.838,2.83,2.8109,2.8071,2.7968,2.7659,2.7165,2.6708,2.6563,2.6182,2.5782,2.5631,2.5495,2.5441,2.5653,2.5977,2.6184,2.586,2.6113,2.6265,2.581,2.5654,2.5572,2.5407,2.5648,2.5819,2.5697,2.5719,2.5737,2.5737,2.5737,2.5785,2.5888,2.5848,2.5791,2.5749,2.5675,2.5637,2.5637,2.56,2.5616,2.5616,2.5524,2.547,2.547,2.5278,2.5084,2.4989,2.471,2.4533,0.0,0.0,0.0,0.0,0.0,0.0,0.0,0.0,0.0,0.0,0.0,0.0,0.0,0.0,0.0,0.0,0.0,0.0,0.0,0.0,0.0,0.0,0.0,0.0,0.0,0.0,2.9907,2.9808,2.9755,2.9719,2.9664,2.9626,2.9608,2.9608,2.9626,2.9645,2.9681,2.9681,2.9699,2.9699,2.9589,2.9512,2.9492,2.9414,2.9394,2.9433,2.9492,2.955,2.9607,2.9831,2.9822,2.9613,2.9747,2.9661,2.9417,2.9296,2.9133,2.8897,2.8549,2.8432,2.8416,2.8604,2.8684,2.8693,2.8745,2.8735,2.8599,2.8262,2.7958,2.7658,2.7418,2.7207,2.6992,2.6842,2.6751,2.666,2.6602,2.6907,2.7098,2.6564,2.6786,2.6909,2.6134,2.5988,2.5907,2.5664,2.5637,2.568,2.5787,2.586,2.5881,2.5881,2.5881,2.5807,2.5626,2.5589,2.5567,2.5502,2.5486,2.5486,2.5486,2.5486,2.5486,2.5448,2.5301,2.5246,2.5262,2.5005,2.4916,2.5055,2.4856,2.4706,2.4561,0.0,0.0,0.0,0.0,0.0,0.0,0.0,0.0,0.0,0.0,0.0,0.0,0.0,0.0,0.0,0.0,0.0,0.0,0.0,0.0,0.0,0.0,0.0,2.9872,2.9836,2.9734,2.9589,2.9588,2.9531,2.9412,2.9392,2.9392,2.9429,2.949,2.9569,2.9664,2.972,2.9757,2.9775,2.9701,2.9643,2.9567,2.9567,2.9567,2.9567,2.9643,2.9663,2.97,3.0327,3.0491,3.0276,3.0929,3.0994,3.0697,3.0682,3.0194,2.9351,2.8649,2.83,2.8324,2.9155,2.944,2.9519,3.01,3.0131,2.9857,2.9625,2.9333,2.903,2.8703,2.8439,2.824,2.805,2.801,2.801,2.801,2.798,2.7932,2.7916,2.7835,2.7559,2.6879,2.6701,2.649,2.5794,2.561,2.5632,2.5616,2.5616,2.5616,2.5578,2.5578,0.0,2.5448,2.541,2.5388,2.5358,2.5358,2.5358,2.5358,2.5358,2.5304,2.5171,2.5021,2.4997,2.5029,2.4723,2.4828,2.5493,2.5621,2.5601,2.5461,0.0,0.0,0.0,0.0,0.0,0.0,0.0,0.0,0.0,0.0,0.0,0.0,0.0,0.0,0.0,0.0,0.0,0.0,0.0,0.0,0.0,0.0,2.9531,2.9664,2.957,2.9474,2.9332,2.9272,2.9191,2.9104,2.9119,2.9314,2.9798,2.9941,3.0263,3.0863,3.1014,3.1117,3.1222,3.1154,3.1151,3.1154,3.111,3.111,3.1176,3.1195,3.1195,3.1195,3.1351,3.1265,3.1072,3.1107,3.1003,3.0751,3.0635,3.0404,3.019,2.9987,2.9547,2.9173,2.9852,3.0016,2.9849,2.9983,2.9776,2.9403,2.9175,2.8921,2.8624,2.8395,2.8162,2.798,2.7939,2.7843,2.7786,2.7786,2.8192,2.841,2.7891,2.8151,2.8304,2.7575,2.7041,2.6636,2.6292,2.6244,2.6121,2.5675,2.5616,2.5578,2.547,2.547,0.0,2.6022,2.6046,2.6238,2.6766,2.683,2.683,2.683,2.6748,2.6665,2.6608,2.6325,2.6096,2.601,2.5676,2.5425,2.5144,2.507,2.4903,0.0,0.0,0.0,0.0,0.0,0.0,0.0,0.0,0.0,0.0,0.0,0.0,0.0,0.0,0.0,0.0,0.0,0.0,0.0,0.0,0.0,0.0,2.9521,2.9721,2.9765,2.949,2.9333,2.9508,2.948,2.9538,2.9814,2.9844,2.9995,3.0399,3.0494,3.0771,3.1279,3.1421,3.1537,3.1668,3.1644,3.1644,3.1668,3.1644,3.1644,3.1668,3.1668,3.1686,3.17,3.1961,3.1942,3.1727,3.1928,3.1903,3.1667,3.1541,3.1314,0.0,0.0,0.0,0.0,0.0,3.085,3.0951,3.0801,3.0508,3.0133,2.9871,2.9582,2.9307,2.9107,2.8919,2.8753,2.877,2.867,2.8611,2.8611,2.8919,2.913,2.8709,2.8935,2.9049,2.832,2.7809,2.7397,2.6993,2.6905,0.0,2.6414,2.6349,2.6333,2.6238,2.6238,2.6302,2.6554,2.6602,2.6735,2.7063,2.7153,2.7153,2.711,2.7067,0.0,0.0,0.0,2.6183,2.5848,2.5886,0.0,0.0,0.0,2.5416,2.5226,0.0,0.0,0.0,2.4719,2.4376,0.0,0.0,0.0,0.0,0.0,0.0,0.0,0.0,0.0,0.0,0.0,0.0,0.0,0.0,0.0,0.0,2.9752,3.0184,3.0108,2.9637,2.9483,3.0035,3.0057,3.0251,3.0893,3.0984,3.1002,3.1064,3.1093,3.1193,3.1399,0.0,0.0,0.0,0.0,3.1697,3.1697,3.1697,3.1753,3.1845,3.1845,3.1893,3.2008,3.2672,3.2821,3.2538,3.3268,3.3422,3.3134,3.3045,3.2545,3.1711,3.0927,3.0617,3.0672,3.1203,3.1739,3.2179,3.1894,0.0,0.0,3.0998,3.0692,3.0401,3.0189,3.006,2.9946,2.9874,2.9874,2.9874,2.9874,2.9874,2.9874,2.9874,2.9874,2.9696,2.9006,2.871,2.8383,2.7698,2.7518,2.7476,2.7434,2.7428,2.7406,2.7364,2.7364,2.7296,2.7103,2.7076,2.702,2.691,0.0,0.0,2.6925,2.6998,2.6894,2.6565,2.6229,2.5762,2.5214,2.5675,2.5828,2.5667,2.6184,2.6365,2.6233,2.6111,2.6056,2.6042,2.4897,2.4352,0.0,0.0,0.0,0.0,0.0,0.0,0.0,0.0,0.0,0.0,0.0,0.0,0.0,0.0,0.0,2.9751,3.0366,3.0785,3.0721,3.0541,3.0487,3.0703,3.0666,3.0664,3.0758,3.0776,3.098,3.1512,3.1619,3.1948,3.2703,3.2864,3.2951,3.3037,3.3037,3.3037,3.3037,3.3037,3.3346,3.3916,0.0,0.0,3.4885,3.5145,3.5139,3.4934,3.5097,3.499,3.4704,3.3979,3.3184,3.237,3.1671,3.1632,3.1983,3.1899,3.1792,3.1617,3.1274,3.0942,3.0634,3.0426,3.0231,3.006,2.9858,2.977,0.0,2.9608,2.9563,2.9563,2.9563,2.9563,2.9563,2.9563,2.9563,2.9531,2.9387,2.889,2.8339,2.8037,2.7977,2.7889,2.7695,2.7517,2.7364,2.7248,2.7164,2.7198,2.7527,2.747,2.7566,2.7997,2.8186,2.828,2.8233,2.8154,2.8106,2.7996,2.7349,2.6798,2.6468,2.6294,2.614,2.5994,2.6108,2.6111,2.6002,2.5948,2.5948,2.5948,2.5694,2.5528,0.0,0.0,0.0,0.0,0.0,0.0,0.0,0.0,0.0,0.0,0.0,2.958,0.0,0.0,3.036,3.0288,3.0862,3.1303,3.1243,3.1535,3.1655,3.1368,3.1285,3.1387,3.1706,3.176,3.1872,3.2133,3.2165,3.2438,3.2975,3.3042,3.3332,3.3851,3.3851,3.405,3.4465,3.4465,3.4645,3.4993,3.4993,3.5191,3.5588,3.567,3.5606,3.5424,3.5424,3.5272,3.503,3.457,3.411,3.367,3.3281,3.2808,3.2354,3.202,3.1915,3.1873,3.1496,3.1331,3.1298,3.1136,3.0972,3.079,3.0667,3.0667,3.0621,3.0574,3.0527,3.0527,3.0527,3.0527,3.0527,3.0527,3.0527,3.0527,3.0527,3.0224,2.986,2.969,2.9612,2.9469,2.9214,2.9124,2.887,2.8115,2.7931,2.7966,2.8015,2.7967,2.7963,2.8107,2.8284,2.8332,2.8186,2.8005,2.784,2.7725,2.71,2.663,2.6447,2.6233,2.6056,2.6002,2.6002,2.5948,2.5893,2.5893,2.5893,2.5893,2.5893,2.5893,0.0,0.0,0.0,0.0,0.0,0.0,0.0,0.0,2.9414,2.9219,2.9741,3.0181,3.0025,3.0494,3.0843,3.0814,3.136,3.1749,3.1749,3.2299,3.2492,3.201,3.1938,3.2125,3.2687,3.274,3.276,3.2785,3.2802,3.2922,3.3247,3.3298,3.3698,3.4455,3.4473,3.4796,3.5442,3.5442,3.5513,3.5657,3.5657,3.5747,3.5856,3.5908,3.5789,3.5598,3.5563,3.5368,3.5065,3.5029,3.4886,3.4707,3.4598,3.3808,3.265,3.2268,3.2303,3.2452,3.1957,3.19,3.2057,3.1948,3.1774,3.1582,3.1582,3.1533,3.1533,3.1484,3.1484,3.1436,3.1436,3.1436,3.1436,3.1436,3.1436,3.1436,3.1436,3.1371,3.1257,3.1108,3.1024,3.0822,3.0552,3.0618,3.0313,2.9308,2.9027,2.8854,2.8596,2.8391,2.8152,2.774,2.789,2.794,2.769,2.7437,2.7167,2.6893,2.651,2.6244,2.6111,2.5948,2.5893,2.5893,2.5893,2.5893,2.5893,2.5893,2.5893,2.5893,2.5893,2.5893,2.9283,2.9302,2.9323,2.9386,2.9386,2.9386,0.0,0.0,3.0033,2.9856,3.0242,3.06,3.0463,3.1034,3.1426,3.125,3.1888,3.24,3.24,3.2385,3.2369,3.2417,3.2565,3.2651,3.2557,3.2523,3.2789,3.3371,3.3442,3.3829,3.4624,3.4782,3.4939,3.5079,3.5113,3.5148,3.5238,3.5238,3.5595,3.6309,3.6309,3.6595,3.7199,3.7309,3.7254,3.7086,3.6879,3.6359,3.5688,3.5535,3.5035,3.446,3.4422,3.4206,3.3766,3.3447,3.3102,3.2773,3.2249,3.1945,3.1806,3.1678,3.163,3.1582,3.1469,3.1355,3.1223,3.1074,3.0989,3.0888,3.0888,3.0888,3.0888,3.0888,3.0888,3.0888,3.0888,3.0888,3.0838,3.0705,3.067,3.0552,3.0293,3.0241,3.0299,3.0417,2.9875,2.9422,2.9123,2.8404,2.769,2.7335,2.7386,2.7437,2.7284,2.7086,2.6864,2.6563,2.6404,2.6244,2.6111,2.5948,2.5893,2.5893,2.5893,2.5893,2.5893,2.5893,2.5893,2.5893,2.5893,2.5893,2.924,2.924,2.9373,2.9898,3.0009,3.0072,3.0508,3.065,3.067,3.0414,3.0841,3.1255,3.1089,3.16,3.2139,0.0,3.2651,3.277,3.2734,3.2717,3.2524,3.2036,3.2073,3.2179,3.2249,3.2214,3.244,3.3115,3.3258,3.3682,3.4526,3.467,3.4991,3.5525,3.5542,3.5754,3.6251,3.6268,3.6427,3.6763,3.6763,3.6923,3.7223,3.7299,3.7241,3.7105,3.693,3.6676,3.6317,3.6237,3.5983,3.5607,3.5451,3.5187,3.4815,3.3761,3.3386,3.328,3.2816,3.2708,3.2796,3.2644,3.2542,3.244,3.2336,3.2233,3.2196,3.2144,3.2092,3.2039,3.2039,3.2039,3.2039,3.2039,3.2039,3.2039,3.2039,3.2039,3.1986,3.1796,3.1674,3.1567,3.1311,3.1271,3.1201,3.1116,3.0395,2.9587,2.8949,2.8426,2.7787,2.6989,2.6893,2.6841,2.6788,2.6654,2.6443,2.6258,2.615,2.6042,2.6002,2.5948,2.5893,2.5893,2.5893,2.6062,2.6427,2.6427,2.661,2.6989,2.6989,2.6989,2.9156,2.9322,2.9658,3.0313,3.0604,3.0807,3.128,3.1378,3.1256,3.0991,3.1444,3.1841,3.1679,3.1968,3.2423,3.3008,3.2789,3.2569,3.2715,3.2561,3.2196,3.1517,3.1449,3.1507,3.1691,3.1728,3.207,3.2934,3.3137,3.3723,3.4753,3.4957,3.5335,3.5994,3.6011,3.6313,3.6873,3.6834,3.6834,3.6834,3.6834,3.6834,3.6856,3.6856,3.6873,3.6851,3.6708,3.6585,3.6579,3.6478,3.6377,3.6276,3.5985,3.5677,3.529,3.3985,3.3752,3.407,3.3775,3.3786,3.3899,3.3549,3.3379,3.3255,3.3013,3.2843,3.2843,3.2843,3.2773,3.2773,3.2773,3.2773,3.2773,3.2773,3.2773,3.2773,3.2773,3.2773,3.2718,3.2539,3.2358,3.2191,3.191,3.1811,3.1625,3.1321,3.0645,2.9864,2.9113,2.8399,2.7647,2.6703,2.6418,2.6351,2.6418,2.6244,2.615,2.6056,2.5948,2.5893,2.5893,2.5893,2.5893,2.5893,2.5893,2.6202,2.6807,2.6807,2.7144,2.7776,2.7776,2.7776,2.9089,2.966,3.0291,3.0374,3.0959,3.1391,3.1151,3.1574,3.1894,3.1542,3.1958,3.2318,3.2126,3.1929,3.2004,3.253,3.1901,3.1545,3.2138,3.1567,3.1072,3.1021,3.0838,3.0733,0.0,3.11,3.1828,3.3119,3.3505,3.436,3.5959,3.6291,3.6474,3.658,3.6597,3.6597,3.6615,3.6474,3.6416,3.6416,3.6416,3.6409,3.6343,3.6343,3.6385,3.6502,3.6293,3.6225,3.6182,3.5949,3.5817,3.5773,3.5362,3.5115,3.4911,3.4235,3.4441,3.5082,3.5329,3.5268,3.4924,3.417,3.3895,3.377,3.3115,3.2773,3.2594,3.2594,3.2523,3.2398,3.2398,3.2398,3.2398,3.2398,3.2398,3.2398,3.2398,3.2398,3.2398,3.2247,3.2094,3.1925,3.1552,3.1263,3.097,3.0821,3.0658,3.047,3.0087,2.8392,2.6997,2.6397,2.6056,2.5948,2.6111,2.6002,2.5893,2.5893,2.5893,2.5893,2.5893,2.5893,2.5893,2.5893,2.5893,2.6202,2.6807,2.6807,2.7144,2.7776,2.7776,2.7776,2.9682,3.0013,3.0515,3.1581,3.1983,3.22,3.2482,3.2517,3.2424,3.2234,3.2126,3.2037,3.1929,3.1654,3.1628,3.2178,3.1931,3.1683,3.1792,3.1583,3.1208,3.0659,3.0526,0.0,0.0,0.0,0.0,3.2784,3.3074,3.3816,3.5357,3.5543,3.5633,3.5661,3.5661,3.5661,3.5661,3.5616,3.5599,3.5616,3.5776,3.5881,3.5854,3.5941,3.5941,3.5898,3.5722,3.5633,3.5498,3.5316,3.5224,3.5085,3.4673,3.4448,3.4283,3.4226,3.4546,3.4912,3.4636,3.476,3.4935,3.4545,3.441,3.4364,3.4032,3.3898,3.384,3.384,3.384,3.366,3.3183,3.3059,3.2952,3.2505,3.268,3.2905,3.2905,3.3099,3.3243,3.3035,3.2661,3.2224,3.1615,3.1192,3.0801,3.0187,2.9966,2.9753,2.9565,2.8483,2.7428,2.6679,2.6553,2.6343,2.599,2.5948,2.5893,2.5893,2.5893,2.5893,2.5893,2.6287,2.6512,2.6512,2.6919,2.7453,2.8057,2.8057,2.838,2.8984,2.8984,2.8984,3.0039,3.0632,3.1286,3.2279,3.2621,3.2799,3.3033,3.2813,3.2521,3.2335,3.202,3.1711,3.1579,3.1312,3.1234,3.1725,3.1456,3.1203,3.1309,3.1095,3.0724,3.0168,3.0348,3.0407,0.0,0.0,0.0,3.2451,3.2883,3.3653,3.488,3.5055,3.5102,3.5102,3.5102,3.5102,3.5102,3.5055,3.5008,3.5008,3.5178,3.5299,3.5345,3.5362,3.5362,3.5237,3.5068,3.4991,3.4849,3.4706,3.4561,3.4448,3.4052,3.3832,3.3706,3.3713,3.4138,3.482,3.4691,3.5023,3.5388,3.479,3.4635,3.4543,3.3933,3.3737,3.3737,3.3737,3.3737,3.3629,3.3111,3.2988,3.2824,3.2338,3.2471,3.2722,3.2892,3.3006,3.3063,3.3025,3.2616,3.2025,3.1524,3.1162,3.0777,3.0291,2.9826,2.9472,2.9047,2.8516,2.7905,2.7228,2.7158,2.6905,2.6273,2.6427,2.6469,2.6245,2.6441,2.6568,2.6568,2.6947,2.7158,2.7158,2.7565,2.8085,2.8689,2.8689,2.9012,2.9602,2.9602,2.9602,3.0277,3.1439,3.258,3.2475,3.2918,3.3256,3.2766,3.247,3.2214,3.193,3.1637,3.1389,0.0,0.0,3.08,3.115,3.0517,3.0129,3.0661,3.0174,2.971,0.0,0.0,0.0,0.0,0.0,0.0,3.2154,0.0,3.387,3.461,3.4804,3.4851,3.4851,3.4851,3.4851,3.4851,3.4756,3.4643,3.4643,3.4643,3.4675,3.4738,3.4675,3.4626,3.4529,3.4333,3.425,3.425,3.3949,3.3848,3.3797,3.3398,3.324,3.3203,3.2757,3.3485,3.4725,3.5375,3.5952,3.623,3.4937,3.4506,3.4229,3.2906,3.2505,3.249,3.249,3.2505,3.2435,3.2252,3.2252,3.2181,3.1996,3.1826,3.1835,3.2258,3.2152,3.2021,3.2275,3.1846,3.1359,3.1254,3.0948,3.0759,3.0827,3.0345,2.9688,2.8881,2.861,2.8284,2.7888,2.7818,2.7565,2.6919,2.7425,2.7523,2.6891,2.7439,2.7776,2.7776,2.7804,2.7832,2.7832,2.786,2.8155,2.8745,2.8745,2.904,2.9602,2.9602,2.9602,3.1634,3.225,3.2629,3.3027,3.3141,3.2975,3.2521,3.2161,3.1856,3.1524,3.1201,3.0925,0.0,0.0,0.0,3.0201,2.9851,0.0,2.9697,2.9462,0.0,2.9895,0.0,3.029,3.0746,3.1454,0.0,0.0,3.2658,3.3389,3.4202,3.43,3.43,3.43,3.43,3.43,3.43,3.4151,3.4101,3.4101,3.4101,3.4101,3.4134,3.4,3.3949,3.3933,3.3642,3.3555,3.3555,3.3346,3.3293,3.3256,3.292,3.2812,3.2742,3.2523,3.2992,3.3748,3.3817,3.4678,3.5691,3.5337,3.4816,3.4206,3.3854,3.3689,3.3587,3.3587,3.3528,3.3304,3.2819,3.2434,3.2123,3.1644,3.1516,3.1584,3.1684,3.2046,3.2113,3.1589,3.0934,3.0405,3.0213,3.0089,3.0089,3.0089,3.0105,2.9997,2.9702,2.9331,2.8926,2.8312,2.8376,2.8212,2.7579,2.7678,2.7706,2.7537,2.7692,2.7776,2.7776,2.8212,2.8464,2.8464,2.89,2.9223,2.9378,2.9378,2.9462,2.9602,2.9477,2.9477,3.2279,3.2765,3.304,3.3207,3.3055,3.2687,3.2249,3.1785,3.1389,3.11,3.074,3.041,3.0199,3.0103,2.9886,0.0,0.0,0.0,2.9029,2.914,2.9405,0.0,3.0226,0.0,3.0959,3.1626,3.2098,0.0,3.2677,3.3227,3.3729,3.3761,3.3761,3.3761,3.3761,3.3797,3.3848,3.3797,3.3797,3.3797,3.3745,3.3694,3.3642,3.3503,3.3398,3.3346,0.0,3.2973,3.2973,3.2866,3.2757,3.2703,3.2484,3.2373,3.2318,3.2247,3.2675,3.32,3.3142,3.3704,3.4406,3.4406,3.4086,3.3602,3.3297,3.3089,3.2972,3.2913,3.281,3.2557,3.1931,3.1634,3.1411,3.088,3.0754,3.0688,3.0911,3.1021,3.0977,3.0556,3.0144,2.9904,3.0016,3.0069,3.0161,3.057,3.0441,3.0357,3.0446,3.0141,2.9716,2.9156,2.9226,2.8892,2.8075,2.8242,2.8284,2.8019,2.8316,2.8517,2.8517,2.8914,2.9083,2.9083,2.9434,2.9602,2.9602,2.9602,2.9602,2.9602,2.9477,2.9415,3.2557,3.3076,3.3444,3.3147,3.2784,3.242,3.193,3.1355,3.0902,3.0634,3.0231,2.987,2.9722,2.9605,2.9457,2.9075,0.0,2.8716,2.8525,2.8984,2.9316,2.9271,3.0334,3.1073,3.104,3.1658,3.2064,3.216,3.2672,3.3081,3.3187,3.3187,3.3187,3.3187,3.3187,3.3293,3.3382,3.3487,3.3539,3.3539,3.3435,3.3293,3.3187,3.3043,3.2935,3.2843,3.2648,3.2578,3.2578,3.2453,3.2287,3.2191,3.2135,3.2038,3.1925,3.1925,3.2288,3.2788,3.2788,3.273,3.2745,3.2894,3.2922,3.2682,3.2049,3.1739,3.1567,3.1379,3.1263,3.1029,3.0524,3.0343,3.0222,2.9993,2.9685,2.9512,2.985,2.9583,2.9336,2.9446,2.9425,2.9583,3.0013,3.0171,3.0507,3.1322,3.0963,3.073,3.1039,3.0798,3.0405,3.0,2.9997,2.9541,2.8422,2.8795,2.8878,2.8353,2.8997,2.9415,2.9415,2.954,2.9602,2.9602,2.9602,2.9602,2.9602,2.9602,2.9602,2.9602,2.9415,2.9352,3.3071,3.3207,3.3117,3.2848,3.2521,3.2109,3.1524,3.1078,0.0,0.0,2.9694,2.9335,2.909,2.8935,2.8795,2.8622,2.8415,2.8189,2.7989,2.8246,2.8651,0.0,2.9655,3.0277,3.0778,3.094,0.0,0.0,3.1306,3.1823,3.2656,3.2711,3.2711,3.2711,3.2711,3.2819,3.2911,3.2803,3.2819,3.2819,3.2656,3.2563,3.2563,3.2508,3.2508,3.2453,3.2453,0.0,3.2398,3.2302,3.215,3.2038,3.1853,3.1724,3.161,3.161,3.1685,3.1717,3.1616,3.1499,3.153,3.2524,3.2372,3.1702,3.1292,3.1043,3.0866,3.0613,3.0433,3.0237,2.987,2.956,2.9275,2.9058,2.8803,2.8573,2.8603,2.8383,2.8172,2.8549,2.8599,2.8638,2.873,2.9162,2.9699,3.0275,3.0408,3.0659,3.1209,3.069,3.0201,2.9802,2.9866,2.9707,2.9002,2.9044,2.9058,2.8947,2.9233,2.9415,2.9415,2.954,2.9602,2.9602,2.9602,2.9602,2.9602,2.9602,2.9602,2.9602,2.9289,2.9162,3.3087,3.3104,3.293,3.2672,3.2283,3.1804,3.1278,0.0,0.0,2.9528,2.9106,2.8748,2.8463,2.8255,0.0,2.7898,2.7715,2.753,2.7342,2.8021,2.8609,2.8846,2.958,3.0174,0.0,3.0539,3.0539,3.0539,3.0673,3.1087,3.1751,3.1751,3.1751,3.1751,3.1864,3.1905,3.1946,3.2074,3.213,3.213,3.2048,3.2064,3.2007,3.1936,3.1936,3.1936,3.1936,3.1936,3.1936,3.1796,3.1625,3.1452,3.119,3.1014,3.0851,3.0777,3.0777,3.0777,3.0732,3.0613,3.0597,3.1097,3.1041,3.0837,3.0673,3.0493,3.019,2.987,2.9848,2.9911,2.9476,2.9463,2.9428,2.8984,2.8463,2.8039,2.7908,2.7789,2.7668,2.7876,2.7941,2.8033,2.8333,2.8621,2.9013,2.9601,2.9764,3.0,3.0336,3.017,2.9912,2.9767,2.9876,2.951,2.8668,2.8638,2.8688,2.8688,2.8958,2.9099,2.9099,2.9352,2.9477,2.9477,2.954,2.9602,2.9602,2.9602,2.9602,2.9602,2.9289,2.9099,3.2795,3.2802,3.269,3.2422,3.2002,3.1507,3.1004,3.0293,0.0,2.9074,2.8605,2.8137,2.783,2.763,2.7429,0.0,2.7056,2.6916,2.6797,2.7784,2.8568,0.0,2.9504,0.0,3.0144,3.0144,0.0,3.0144,3.0326,3.0507,3.0851,3.0792,3.0792,3.0851,3.0955,3.1058,3.1058,3.1349,3.1465,3.1465,3.148,3.1437,3.1437,3.1364,3.1364,3.1364,3.1364,3.1364,0.0,3.1146,3.097,3.0777,3.0464,3.0237,3.0068,2.9946,2.9884,2.9884,2.9884,2.9884,2.9808,2.9623,2.9808,3.0129,3.0068,2.9907,2.9708,2.9378,2.9563,2.9832,2.9389,2.9615,2.9747,2.8955,2.8224,2.7723,2.7523,2.7523,2.7523,2.7523,2.7523,2.7667,2.8124,2.8203,2.8399,2.9,2.9091,2.9201,2.9473,2.9557,2.9504,2.9499,2.9568,2.9211,2.8172,2.8197,2.83,2.8287,2.8573,2.878,2.878,2.9099,2.9275,2.9275,2.9338,2.9401,2.9401,2.9401,2.9401,2.9352,2.9085,2.8894,3.2176,3.2301,3.2214,3.202,3.1637,3.1218,3.0675,0.0,2.9271,2.8701,2.8091,2.7575,2.7321,2.6997,2.6774,2.6774,0.0,2.651,2.639,2.7356,2.8009,2.7893,0.0,0.0,2.9665,2.9665,2.9665,2.9665,2.9665,2.9898,3.0312,3.028,3.0219,3.0372,3.0372,3.0493,3.0628,3.0687,3.0687,3.0687,3.0687,3.0687,3.0687,3.0777,3.0837,3.0837,3.0837,3.0837,0.0,3.0553,3.0297,3.0072,2.9794,2.9546,2.9373,2.9212,2.9162,2.9162,2.9162,2.9071,2.8917,2.8917,2.9233,2.9623,2.9275,2.9408,2.9652,2.9321,2.9619,2.9939,2.9535,2.9517,2.9329,2.8585,2.7941,2.7523,2.7523,2.7523,2.7523,2.7523,2.7523,2.7549,2.7589,2.7602,2.7798,2.8373,2.8464,2.866,2.928,2.9345,2.9136,2.8585,2.8889,2.8839,2.8146,2.8079,2.8197,2.8287,2.8509,2.8587,2.8587,2.8753,2.8867,2.8867,2.8867,2.8867,2.8867,2.8867,2.8817,2.8716,2.8495,2.8352,3.129,3.1707,3.1948,3.1728,3.1278,3.0707,3.0081,0.0,2.8685,2.8091,2.756,2.71,2.6736,2.6472,2.6312,0.0,0.0,0.0,2.5988,2.6638,2.7225,2.7499,2.8354,0.0,0.0,0.0,2.9415,2.9289,2.9289,2.9352,2.9588,2.9727,2.9851,2.9898,2.9898,2.9898,2.9974,3.0068,3.0068,2.9974,3.0068,3.0068,2.9974,3.0083,3.0007,2.9917,2.9917,2.987,0.0,2.9498,2.9359,2.9219,2.8917,2.8803,2.8675,2.8522,2.8536,2.8536,2.8536,2.8457,2.8379,2.8379,2.843,2.8614,2.9007,2.916,2.9228,2.9384,2.9834,3.0201,2.9941,2.9856,2.9804,2.9483,2.9,2.8477,2.8124,2.8033,2.7941,2.7589,2.7523,2.7523,2.7523,2.7523,2.7602,2.7837,2.7863,2.7954,2.819,2.8229,2.8069,2.7767,2.8245,2.8354,2.7788,2.7736,2.7736,2.7855,2.7921,2.7921,2.7921,2.8105,2.8222,2.8222,2.8287,2.8287,2.8287,2.8287,2.83,2.8235,2.8039,2.7973,3.04,3.0898,3.1271,3.1206,3.0747,3.0149,0.0,0.0,2.8076,2.7494,2.7086,2.6683,2.6297,2.6096,2.5948,0.0,0.0,2.5743,2.5633,2.6244,2.6837,2.7248,0.0,2.874,0.0,2.9149,2.9149,2.8972,2.8972,2.8908,2.8894,2.9085,2.9338,2.954,2.9477,2.9477,2.954,2.9588,2.9526,2.9477,2.9526,2.9526,2.9477,2.9401,2.9261,2.917,2.9044,2.8944,0.0,2.8688,2.8624,2.8546,2.83,2.8157,2.8091,2.8,2.7947,2.7947,2.7947,2.7947,2.7947,2.7947,2.7802,2.7921,2.8904,2.9143,2.9125,2.9579,3.0086,3.0519,3.0385,3.0255,3.0137,3.0137,2.9562,2.8895,2.8464,2.8242,2.8007,2.7602,2.7523,2.7523,2.7523,2.7523,2.7456,2.7469,2.7469,2.7403,2.7335,2.7335,2.7268,2.7134,2.7618,2.7764,2.7374,2.7323,2.7255,2.7323,2.7255,2.7188,2.7188,2.7229,2.7297,2.7297,2.7417,2.7417,2.7417,2.7417,2.7417,2.7351,2.7297,2.7229,2.9505,2.9909,3.0034,3.0418,3.0064,2.9435,0.0,0.0,2.7414,2.7004,2.6602,2.6244,2.6111,2.5893,2.5729,2.5729,0.0,0.0,2.5494,2.6387,2.7083,0.0,0.0,2.8867,2.9099,2.8944,2.8753,2.8587,2.8587,0.0,2.8287,2.8287,2.8624,2.9352,2.9226,2.9226,2.9415,2.9226,2.9099,2.9099,2.9099,2.9099,2.9099,2.8881,2.8803,2.8803,2.8481,2.8287,0.0,2.8131,2.8079,2.8079,2.7855,2.7776,2.7776,2.759,2.7523,2.7523,2.7523,2.7523,2.7523,2.7523,2.7523,2.7745,2.8922,2.9274,2.9392,2.9967,3.0542,3.0973,3.0973,3.0555,3.0137,3.0137,2.9235,2.8386,2.8386,2.7941,2.7536,2.7523,2.7523,2.7523,2.7523,2.7523,2.7469,2.7335,2.7268,2.7214,2.7024,2.7024,2.6943,2.6726,2.6726,2.6807,2.7024,2.6794,2.6782,2.6973,2.662,2.6414,2.6414,2.6195,2.6126,2.6126,2.6114,2.6114,2.6114,2.6114,2.6057,2.5931,2.5931,2.5931,2.7852,2.8582,2.9173,2.902,2.8844,2.8575,2.7997,0.0,2.6878,2.6549,2.6297,2.6096,2.5893,2.5688,2.5536,2.5397,2.5244,0.0,0.0,0.0,0.0,2.656,2.7601,2.8314,0.0,0.0,2.796,2.7643,2.763,2.7497,2.7204,2.7364,2.7762,2.8624,2.856,2.8624,2.8844,2.8624,2.856,2.856,2.843,2.8379,2.8406,2.8235,2.8039,0.0,2.7776,2.7723,0.0,2.7669,2.7669,2.7669,2.759,2.759,2.759,2.7523,2.7523,2.7523,2.7523,2.7523,2.7523,2.7523,2.7523,2.7667,2.8438,2.8948,2.9483,3.0451,3.0843,3.0986,3.0986,3.0856,3.0725,3.0725,3.0137,2.947,2.9078,2.8529,2.7994,2.7602,2.7403,2.7335,2.7335,2.7268,2.7079,2.693,2.6863,2.6794,2.6645,2.6508,2.6383,2.6176,2.6025,2.6094,2.644,2.6245,2.6107,2.6025,2.5804,2.5664,2.5664,2.5581,2.5581,2.5581,2.5581,2.5581,2.5581,2.5581,2.5511,2.5511,2.5511,2.5511,0.0,2.7098,2.7636,2.7766,2.7659,0.0,0.0,0.0,0.0,2.619,2.6042,2.5893,2.5688,2.5425,2.5188,2.4991,2.4821,2.4708,0.0,0.0,0.0,2.6614,0.0,0.0,0.0,2.751,2.7242,2.6824,2.6756,2.662,2.6264,2.6414,2.6688,2.7284,2.7617,2.7894,2.8039,2.7908,2.7829,2.7829,2.7696,2.7709,2.7723,2.7577,2.7443,2.7323,2.7255,0.0,0.0,2.7268,2.7335,2.7335,2.7335,2.7335,2.7335,2.7335,2.7335,2.7335,2.7335,2.7335,2.7335,2.7335,2.7478,2.778,2.8268,2.8948,2.9797,3.0725,3.0986,3.0986,3.0986,3.0986,3.0986,3.0986,3.0385,2.9719,2.9269,2.8565,2.7819,2.7413,2.7201,2.7066,2.7066,2.6863,2.6658,2.6452,2.6302,2.6233,2.6,2.5943,2.5804,2.5606,2.5453,2.5382,2.5535,2.5535,2.5535,2.5382,2.5111,2.4969,2.4969,2.4969,2.4886,2.4886,2.4886,2.4886,2.4886,2.4886,2.4886,2.4886,2.4886,2.4886,0.0,2.5539,2.5713,2.6533,2.6464,2.6235,0.0,0.0,0.0,0.0,0.0,2.5674,2.5494,2.5075,2.4708,2.4523,2.435,2.4292,0.0,2.514,0.0,0.0,2.7323,0.0,2.6973,2.6714,2.6508,2.6151,2.5931,2.5721,2.5535,2.5535,2.5535,2.5535,2.6358,2.6892,2.7095,2.6973,2.6905,2.6892,2.7027,2.7095,2.7095,2.696,2.6905,0.0,2.6714,0.0,0.0,2.6875,2.6956,2.6943,2.6943,2.6943,2.6943,2.6943,2.6943,2.6943,2.6943,2.6943,2.6943,2.6943,2.7426,2.8071,2.8304,2.9209,3.0255,3.0777,3.096,3.0986,3.0986,3.0986,3.0986,3.0986,3.0137,2.9256,2.9048,2.8097,2.7253,2.7024,2.6794,2.6645,2.6645,2.6371,2.6094,2.5898,2.5688,2.5465,2.5312,2.5241,2.517,2.5016,2.4933,2.4814,2.449,2.4754,2.4945,2.4945,2.4611,2.449,2.449,2.4273,2.42,2.42,2.42,2.42,2.42,2.42,2.42,2.42,2.42,2.42,2.3687,0.0,2.542,2.5449,2.5864,2.627,0.0,0.0,0.0,0.0,0.0,0.0,0.0,0.0,2.4523,2.435,2.4144,2.4054,2.4157,0.0,0.0,2.637,2.6508,2.644,2.6176,2.5955,2.5664,2.53,2.5229,2.5099,2.4766,2.4921,2.4921,2.4778,2.5135,2.5606,2.6208,2.6013,2.6013,2.6139,2.6,2.6082,2.6208,2.6013,2.5955,2.5955,0.0,0.0,2.6107,2.6314,2.644,2.6564,2.6564,2.6564,2.6564,2.6564,2.6564,2.6564,2.6564,2.6564,2.6577,2.6726,2.6883,2.713,2.7855,2.8996,3.0163,3.0294,3.0647,3.0986,3.0986,3.0986,3.0986,3.0849,3.0216,2.9494,2.8694,2.7984,2.7234,2.6527,2.6245,2.6037,2.5886,2.5676,2.5453,2.5229,2.5158,2.5099,2.4921,2.4778,2.4694,2.4622,2.4478,2.4334,2.4273,2.4478,2.455,2.4406,2.4334,2.4273,2.4273,2.42,2.42,2.42,2.42,2.42,2.42,2.42,2.42,2.42,2.42,2.42,2.2904,2.3676,2.4553,2.4615,2.5155,2.5742,0.0,0.0,0.0,0.0,0.0,0.0,0.0,0.0,0.0,0.0,2.3865,0.0,0.0,0.0,2.5197,2.582,2.5873,2.5734,0.0,0.0,2.5123,2.4814,2.4683,2.4539,2.4345,2.449,2.449,2.4345,2.449,2.4766,2.5394,2.5265,2.5265,2.5394,2.5312,2.537,2.5499,2.537,2.5312,2.5312,0.0,0.0,2.5523,2.5734,2.5804,2.5931,2.5931,2.5931,2.5931,2.5931,2.5931,2.5931,2.5931,2.5931,2.5931,2.6164,2.6233,2.6433,2.6943,2.7921,2.889,2.9378,2.9663,3.0034,3.0219,3.0297,3.0361,3.0406,2.987,2.9211,2.8536,2.7815,2.7123,2.6306,2.5983,2.5767,2.536,2.5111,2.4897,2.4826,2.4671,2.4611,2.4562,2.4418,2.4345,2.4345,2.4273,2.42,2.42,2.4273,2.4345,2.42,2.42,2.42,2.42,2.42,2.42,2.42,2.42,2.42,2.42,2.42,2.42,2.42,2.42,2.42,2.2601,2.3083,2.3672,2.4099,2.4676,2.5247,0.0,0.0,0.0,0.0,0.0,0.0,0.0,2.4345,0.0,0.0,0.0,0.0,2.4541,2.4546,2.4767,2.5426,2.5324,0.0,2.4945,2.4766,2.4646,2.449,2.4273,2.42,2.42,2.42,2.42,2.42,2.42,2.4345,2.4718,2.4718,2.4718,2.4718,2.4826,2.4874,2.4874,2.4874,2.4874,2.4874,0.0,0.0,2.4945,2.5099,2.517,2.5241,2.5241,2.5241,2.5241,2.5241,2.5241,2.5241,2.5241,2.5241,2.5241,2.5465,2.5606,2.5828,2.6013,2.6487,2.7172,2.7936,2.8333,2.8673,2.916,2.93,2.944,2.9782,2.9402,2.8723,2.8268,2.766,2.6926,2.6103,2.5837,2.5512,2.4968,2.4611,2.4418,2.4418,2.4345,2.42,2.42,2.42,2.42,2.42,2.42,2.42,2.42,2.42,2.42,2.42,2.42,2.42,2.42,2.42,2.42,2.42,2.42,2.42,2.42,2.42,2.42,2.42,2.42,2.42,2.2417,2.3172,2.4041,2.4089,2.4962,2.5781,2.5879,0.0,0.0,0.0,0.0,0.0,0.0,2.439,2.4054,0.0,0.0,2.3979,0.0,0.0,2.4638,2.485,0.0,2.4634,2.4562,2.4406,2.4273,2.4273,2.42,2.42,2.42,2.42,2.42,2.42,2.42,2.42,2.4273,2.4273,2.4273,2.4273,2.4334,2.4334,2.4334,2.4334,2.4334,2.4334,0.0,2.4406,2.4562,2.4634,2.4706,2.4861,2.4861,2.4861,2.4861,2.4861,2.4861,2.4861,2.4861,2.4861,2.4921,2.5028,2.5087,2.5158,2.5382,2.5513,2.5669,2.5812,2.6843,2.805,2.8362,2.851,2.8571,2.8905,2.89,2.856,2.7723,2.7412,2.6978,2.5632,2.5296,2.5071,2.4415,2.4273,2.4273,2.4273,2.42,2.42,2.42,2.42,2.42,2.42,2.42,2.42,2.42,2.42,2.42,2.42,2.42,2.42,2.42,2.42,2.42,2.42,2.42,2.42,2.42,2.42,2.42,2.42,2.42,2.42,2.2687,2.34,2.4202,2.4526,2.5233,2.5893,2.5893,0.0,0.0,0.0,0.0,0.0,0.0,0.0,2.3878,2.3509,0.0,2.37,2.3664,2.399,2.4318,0.0,0.0,2.4345,2.4345,2.4261,2.42,2.42,2.42,2.42,2.42,2.42,2.42,2.42,2.42,2.42,2.42,2.42,2.42,2.42,2.42,2.42,2.42,2.42,2.42,2.42,0.0,2.4273,2.4345,2.4345,2.4418,2.4502,2.4502,2.4502,2.4502,2.4502,2.4502,2.4502,2.4502,2.4502,2.449,2.4539,2.4611,2.4754,2.4838,2.4909,2.4981,2.4909,2.5661,2.6589,2.698,2.7332,2.7609,2.7933,2.8203,2.8199,2.7552,2.7345,2.6962,2.5708,2.55,2.5182,2.418,2.4043,2.397,2.3897,2.3897,2.3897,2.3897,2.3897,2.3897,2.3897,2.3897,2.3897,2.3897,2.3897,2.397,2.42,2.42,2.42,2.42,2.42,2.42,2.42,2.42,2.42,2.42,2.42,2.42,2.42,2.42,2.42,2.2957,2.3674,2.4441,2.4854,0.0,2.5893,2.5839,0.0,0.0,0.0,0.0,0.0,0.0,2.4028,0.0,2.2969,2.3206,2.3462,2.3356,2.3698,2.4108,2.4371,2.4273,2.42,2.42,2.42,2.42,2.42,2.42,2.42,2.42,2.42,2.42,2.42,2.42,2.42,2.42,2.42,2.42,2.42,2.42,2.42,2.42,2.42,2.42,2.42,2.42,2.42,2.42,2.42,2.42,2.42,2.42,2.42,2.42,2.42,2.42,2.42,2.42,2.42,2.42,2.42,2.4273,2.4418,2.4418,2.4574,2.4646,2.449,2.4766,2.5147,2.567,2.6098,2.6562,2.7084,2.7399,2.7567,2.7418,2.7209,2.6783,2.581,2.5535,2.5093,2.4056,2.3824,2.3751,2.3593,2.3593,2.3593,2.3593,2.3593,2.3593,2.3593,2.3593,2.3593,2.3593,2.3593,2.3751,2.4043,2.4116,2.42,2.42,2.42,2.42,2.42,2.42,2.42,2.42,2.42,2.42,2.42,2.42,2.42,2.3083,2.3983,2.4924,2.4966,0.0,0.0,2.5729,2.5453,0.0,0.0,0.0,0.0,0.0,2.391,2.3378,2.2714,2.3207,2.349,2.2989,0.0,2.4154,2.4189,2.42,2.42,2.42,2.42,2.42,2.42,2.42,2.42,2.42,2.42,2.42,2.42,2.42,2.42,2.42,2.42,2.42,2.42,2.42,2.42,2.42,2.42,2.42,2.42,2.42,2.42,2.42,2.42,2.42,2.42,2.42,2.42,2.42,2.42,2.42,2.42,2.42,2.42,2.42,2.42,2.42,2.42,2.42,2.42,2.4273,2.42,2.4261,2.4376,2.486,2.501,2.5298,2.6299,2.6576,2.6725,2.7128,2.6852,2.6358,2.5574,2.5097,2.4521,2.3767,2.3604,2.3604,2.3593,2.3593,2.3593,2.3593,2.3593,2.3593,2.3593,2.3593,2.3593,2.3593,2.3593,2.3593,2.3666,2.397,2.42,2.42,2.42,2.42,2.42,2.42,2.42,2.42,2.42,2.42,2.42,2.42,2.42,2.4053,2.4615,2.5064,2.5458,0.0,0.0,0.0,0.0,0.0,0.0,0.0,0.0,0.0,0.0,2.313,2.2983,2.3125,2.3173,2.3237,2.3752,2.42,2.42,2.42,2.42,2.42,2.42,2.42,2.42,2.42,2.42,2.42,2.42,2.42,2.42,2.42,2.42,2.42,2.42,2.42,2.42,2.4043,2.4043,2.397,2.3751,2.3677,2.3824,2.3677,2.3751,2.4043,2.4043,2.4043,2.397,2.3751,2.3751,2.3824,2.3677,2.3824,2.4043,2.4043,2.4127,2.42,2.42,2.42,2.42,2.42,2.42,2.42,2.42,2.42,2.4235,2.4418,2.4694,2.5015,2.5406,2.575,2.6048,2.6244,2.605,2.5686,2.5097,2.4695,2.4251,2.3535,2.3298,2.315,2.3075,2.2927,2.2852,2.2852,2.2852,2.2852,2.2852,2.3001,2.3001,2.2852,2.3075,2.315,2.3075,2.3666,2.4043,2.4043,2.4116,2.42,2.42,2.42,2.42,2.42,2.42,2.42,2.42,2.42,2.42,2.4741,2.5121,2.532,0.0,0.0,0.0,0.0,0.0,0.0,0.0,0.0,0.0,0.0,0.0,0.0,0.0,2.3268,2.3374,2.3455,2.395,2.4273,2.42,2.42,2.42,2.42,2.42,2.42,2.42,2.42,2.42,2.42,2.42,2.42,2.42,2.42,2.42,2.42,2.42,2.42,2.42,2.3897,2.3824,2.3824,2.3372,2.3224,2.3298,2.315,2.3298,2.353,2.3604,2.3593,2.3519,2.3224,2.315,2.3224,2.315,2.3298,2.353,2.3593,2.3751,2.3897,2.3897,2.397,2.4116,2.4116,2.4116,2.42,2.42,2.42,2.42,2.42,2.4441,2.4728,2.4877,2.5199,2.5509,2.567,2.5424,2.5054,2.4703,2.4273,2.3771,2.3205,2.2927,2.2832,2.2832,2.2702,2.2679,2.2828,2.2849,2.2796,2.2647,2.2649,2.2553,2.2327,2.2478,2.2553,2.2327,2.2841,2.3287,2.3593,2.3751,2.3824,2.3824,2.3824,2.3824,2.3824,2.3824,2.3824,2.3824,2.3897,2.3988,2.498,2.5322,2.5729,0.0,0.0,0.0,0.0,0.0,0.0,0.0,0.0,2.4247,2.3949,0.0,0.0,2.3286,2.3857,2.4198,2.3758,2.4153,2.4418,2.4189,2.42,2.42,2.42,2.42,2.42,2.42,2.42,2.42,2.42,2.42,2.42,2.42,2.42,2.42,2.42,2.42,2.42,2.42,2.3824,2.3593,2.3593,2.315,2.2852,2.2703,2.2703,2.2703,2.2703,2.2927,2.2852,2.2703,2.2703,2.2553,2.2402,2.2628,2.2703,2.2703,2.2927,2.315,2.3298,2.3298,2.3593,2.3897,2.3897,2.4043,2.42,2.42,2.42,2.42,2.42,2.42,2.4315,2.4786,2.49,2.505,2.5578,2.5139,2.4634,2.4408,2.363,2.2927,2.2713,2.2563,2.2573,2.3051,2.3115,2.3296,2.3764,2.3817,2.3636,2.3158,2.269,2.2327,2.2111,2.1883,2.1731,2.1502,2.1482,2.1928,2.2916,2.3001,2.3001,2.3001,2.3001,2.3001,2.3001,2.3001,2.3001,2.3001,2.3224,2.3574,2.5338,2.5563,0.0,2.5536,0.0,0.0,0.0,0.0,0.0,0.0,0.0,2.4424,2.4754,0.0,0.0,2.4484,2.4258,2.4108,2.4282,2.4241,2.4273,2.42,2.42,2.42,2.42,2.42,2.42,2.42,2.42,2.42,2.42,2.42,2.42,2.42,2.42,2.42,2.42,2.42,2.42,2.42,2.3824,2.3446,2.315,2.2478,2.2035,2.1883,2.1731,2.1797,2.2069,2.2241,2.2241,2.2004,2.1721,2.1645,2.1548,2.1645,2.1787,2.208,2.2317,2.2478,2.2703,2.2852,2.3075,2.3298,2.3593,2.3824,2.4043,2.4127,2.42,2.42,2.42,2.42,2.4235,2.4372,2.4407,2.4379,2.4465,2.4152,2.3891,2.3668,2.3174,2.2886,2.3155,2.2902,2.2829,2.3303,2.3297,2.3189,2.3325,2.2984,2.2646,2.2511,2.2087,2.1655,2.1252,2.1175,2.1021,2.0634,2.0459,2.0837,2.1918,2.222,2.2371,2.2371,2.2542,2.2553,2.2553,2.2553,2.2553,2.2563,2.2961,2.3263,2.5481,2.5481,0.0,2.5313,2.5257,2.5201,2.5005,0.0,0.0,0.0,0.0,2.4813,2.5064,2.4944,0.0,2.5244,2.4986,2.4753,2.4707,2.4562,2.4345,2.42,2.42,2.42,2.42,2.42,2.42,2.42,2.42,2.42,2.42,2.42,2.42,2.42,2.42,2.42,2.42,2.42,2.4127,2.4043,2.3666,2.315,2.2628,2.1949,2.1502,2.1118,2.0964,2.1031,2.1308,2.1482,2.1405,2.1165,2.0964,2.0809,2.0712,2.0809,2.1031,2.1242,2.1405,2.1645,2.1863,2.2025,2.2327,2.2703,2.315,2.3519,2.3824,2.4043,2.4116,2.42,2.42,2.42,2.42,2.42,2.4338,2.4402,2.4192,2.4044,2.3884,2.3597,2.3057,2.2703,2.3185,2.296,2.2866,2.3523,2.3608,2.3556,2.3556,2.291,2.2403,2.2231,2.1639,2.1055,2.0576,2.0401,2.0089,1.9775,1.9539,1.9687,2.0391,2.0914,2.1211,2.1211,2.1385,2.1385,2.1385,2.1385,2.1553,2.1737,2.208,2.2646,2.5439,0.0,0.0,2.5005,2.4892,0.0,2.462,2.4832,2.4973,2.4859,0.0,2.5336,2.5127,2.5626,2.6021,2.5728,2.5772,2.5688,2.5075,2.4838,2.4646,2.4273,2.42,2.42,2.42,2.42,2.42,2.42,2.42,2.42,2.42,2.42,2.42,2.42,2.42,2.42,2.42,2.4189,2.4043,2.3897,2.3446,2.2841,2.2025,2.1655,2.1118,2.0489,2.0342,2.0342,2.0566,2.0566,2.042,2.0264,2.0264,2.0108,1.9863,2.0108,2.0264,2.0264,2.0489,2.0644,2.0867,2.1041,2.1502,2.2101,2.2478,2.3075,2.3593,2.3824,2.4043,2.42,2.42,2.42,2.4212,2.4246,2.4602,2.4849,2.4646,2.4529,2.4388,2.405,2.3178,2.2668,2.3027,2.283,2.2925,2.3722,2.4026,2.412,2.411,2.3248,2.2547,2.2162,2.1254,2.041,1.9891,1.946,1.9152,1.8922,1.8772,1.862,1.862,1.9371,1.9825,1.9825,1.9825,1.9825,1.9825,1.9863,2.0159,2.07,2.1009,2.1801,2.5131,2.5005,0.0,0.0,2.4677,2.462,2.462,2.4967,2.5301,2.5301,2.5289,2.5467,2.6314,2.6375,2.6359,2.646,2.6171,2.5688,2.5075,2.4754,2.449,2.42,2.42,2.42,2.42,2.42,2.42,2.42,2.42,2.42,2.42,2.42,2.42,2.42,2.42,2.42,2.42,2.4043,2.3897,0.0,2.3075,2.2392,2.1624,2.1252,2.0557,1.9794,1.9794,1.9872,2.002,2.002,1.9942,1.9715,1.9715,1.9627,1.9469,1.9636,1.9715,1.9794,1.9942,2.0098,2.0177,2.042,2.0799,2.1252,2.1797,2.2402,2.3001,2.3519,2.3824,2.397,2.4127,2.42,2.4292,2.4671,2.4843,2.4762,2.4419,2.4646,2.4725,2.3952,2.3641,2.3462,2.3318,2.3318,2.3421,2.3801,2.3704,2.358,2.3319,2.2291,2.1453,2.121,2.0276,1.9473,1.924,1.9002,1.8772,1.8523,1.8282,1.8121,1.8121,1.8834,1.9222,1.9222,1.9381,1.945,1.945,1.9792,1.9996,2.0098,2.0988,2.1627,2.4778,0.0,0.0,2.4492,0.0,2.4411,2.4747,2.4978,2.5348,2.5915,2.6021,2.6205,2.6684,2.6896,2.6919,2.6947,2.6589,2.6094,2.5523,2.504,2.4622,2.4345,2.4273,2.42,2.42,2.42,2.42,2.42,2.42,2.42,2.42,2.42,2.42,2.42,2.42,2.42,2.42,2.397,2.3666,2.3298,2.2703,2.1787,2.0702,2.0401,2.002,1.9478,1.9478,1.9548,1.9618,1.9618,1.9548,1.9478,1.9478,1.939,1.9301,1.939,1.9478,1.9469,1.9548,1.9618,1.9627,1.9872,2.0177,2.0557,2.1185,2.1873,2.2553,2.315,2.353,2.3824,2.397,2.3897,2.3807,2.4055,2.471,2.5207,2.5082,2.5251,2.5127,2.417,2.3624,2.3313,2.3122,2.3223,2.3312,2.329,2.2969,2.2659,2.2399,2.14,2.0597,2.0329,1.9616,1.9048,1.8772,1.8523,1.8282,1.8201,1.8121,1.804,1.804,1.8362,1.8523,1.8523,1.8594,1.8674,1.8674,1.9064,1.9439,1.9719,2.0413,2.114,2.462,0.0,2.4563,2.4421,2.434,0.0,2.4977,2.5179,2.5585,2.6542,2.6803,2.6893,2.6869,2.721,2.7469,2.7335,2.6998,2.6508,2.6037,2.5453,2.4957,2.4562,2.4345,2.4273,2.42,2.42,2.42,2.42,2.42,2.42,2.42,2.42,2.42,2.42,2.42,2.4189,2.4116,2.3897,2.3519,2.2927,2.2176,2.1098,1.9863,1.9636,1.9478,1.9301,1.9301,1.9301,1.9301,1.9301,1.9301,1.9301,1.9301,1.9301,1.9301,1.9301,1.9301,1.9301,1.9301,1.9301,1.9301,1.9478,1.9706,1.9942,2.0634,2.1328,2.2025,2.2703,2.3075,2.3446,2.3666,2.3446,2.3246,2.3249,2.4267,2.5317,2.5427,2.5525,2.5275,2.4302,2.3277,2.2577,2.2615,2.266,2.2679,2.2503,2.1977,2.1522,2.1265,2.048,1.9856,1.9451,1.9041,1.8719,1.8388,1.8121,1.804,1.804,1.804,1.804,1.804,1.804,1.8066,1.8134,1.8066,1.8066,1.8134,1.8502,1.8963,1.9522,2.0,2.0713,0.0,0.0,2.4607,0.0,2.4877,2.5276,0.0,0.0,2.667,0.0,2.6803,2.6895,2.7327,2.7471,2.7469,2.7335,2.6998,2.6577,2.6233,2.5664,2.5111,2.479,2.4574,2.4418,2.42,2.42,2.42,2.42,2.42,2.42,2.42,2.42,2.42,2.42,2.42,2.4127,2.397,2.3593,2.3075,2.2478,2.1185,2.0186,1.9645,1.9469,1.9301,1.9301,1.9301,1.9301,1.9301,1.9301,1.9301,1.9301,1.9301,1.9301,1.9301,1.9301,1.9301,1.9301,1.9301,1.9301,1.9301,1.9301,1.9478,1.9715,2.0264,2.0722,2.1252,2.2025,2.2402,2.2628,2.2777,2.2852,2.2875,2.3035,2.3305,2.3619,2.4205,2.4557,2.4545,2.3752,2.2391,2.1526,2.1909,2.1419,2.1042,2.1327,2.0851,2.0331,2.0171,1.9587,1.9081,1.8763,1.8387,1.8091,1.804,1.804,1.804,1.804,1.804,1.804,1.804,1.804,1.8186,1.8502,1.8203,1.8194,1.8511,1.8905,1.929,1.9675,2.0312,2.0692,2.4421,2.4789,2.5101,0.0,2.566,2.6183,2.647,0.0,2.7024,2.7327,2.7275,2.7236,2.7484,2.7523,2.7469,2.7403,2.7201,2.693,2.6701,2.6151,2.5676,2.5265,2.4921,2.4574,2.4418,2.4273,2.42,2.42,2.42,2.42,2.42,2.42,2.42,2.42,2.42,2.4116,2.3897,2.3519,2.2692,2.1558,2.0557,1.9863,1.939,1.9301,1.9301,1.9301,1.9301,1.9301,1.9301,1.9301,1.9301,1.9301,1.9301,1.9301,1.9301,1.9301,1.9301,1.9301,1.9301,1.9301,1.9301,1.9301,1.9381,1.9469,1.9794,2.0255,2.0867,2.1405,2.1797,2.2101,2.2155,2.2014,2.1849,2.1871,2.1951,2.2107,2.24,2.3213,2.3491,2.2292,2.1328,2.0589,2.0625,2.0391,2.0229,2.0238,1.9849,1.9433,1.9173,1.8768,1.837,1.828,1.8134,1.804,1.804,1.804,1.804,1.804,1.804,1.804,1.804,1.8237,1.8425,1.8579,1.8425,1.8537,1.8913,1.9307,1.9581,1.9752,2.021,2.0564,0.0,0.0,2.5692,2.5972,2.6505,2.706,0.0,0.0,2.7339,0.0,2.7669,2.7523,2.7523,2.7523,2.7523,2.7523,2.7403,2.7268,2.7121,2.6633,2.6082,2.5746,2.5194,2.4778,2.449,2.4345,2.42,2.42,2.42,2.42,2.42,2.42,2.42,2.42,2.42,2.4043,2.3824,2.3224,2.2241,2.0789,2.0177,1.9706,1.9301,1.9301,1.9301,1.9301,1.9301,1.9301,1.9301,1.9301,1.9301,1.9301,1.9301,1.9301,1.9301,1.9301,1.9301,1.9301,1.9301,1.9301,1.9301,1.9222,1.9222,1.9231,1.9399,1.9794,2.0245,2.0702,2.1021,2.1339,2.1318,2.1185,2.0886,2.0644,2.0643,2.0825,2.1092,2.194,2.2281,2.0873,2.0316,1.9869,1.9561,1.9493,1.9494,1.9338,1.8958,1.8633,1.8451,1.8211,1.804,1.804,1.804,1.804,1.804,1.804,1.804,1.804,1.804,1.8074,1.8168,1.8442,1.8682,1.8879,1.8879,1.9025,1.9324,1.9607,1.9795,1.9889,2.0163,2.0382,0.0,2.5638,0.0,2.6859,2.7434,0.0,0.0,0.0,0.0,2.8079,2.7802,2.7523,2.7523,2.7523,2.7523,2.7523,2.7403,2.7268,2.7268,2.6769,2.6289,2.5898,2.5382,2.4886,2.4562,2.4345,2.42,2.42,2.42,2.42,2.42,2.42,2.42,2.42,2.42,2.397,2.3604,2.2478,2.1415,2.0644,2.0098,1.9706,1.9301,1.9301,1.9301,1.9301,1.9301,1.9301,1.9301,1.9301,1.9301,1.9301,1.9301,1.9301,1.9301,1.9301,1.9301,1.9301,1.9301,1.9301,1.9301,1.9073,1.9002,1.9002,1.9002,1.9082,1.9152,1.9608,1.9854,2.002,2.002,2.0186,2.0264,1.9803,1.9655,1.9935,2.0713,2.098,2.0793,1.9827,1.9506,1.9297,1.9261,1.8804,1.8536,1.8645,1.8305,1.8066,1.8066,1.8049,1.804,1.804,1.804,1.804,1.804,1.804,1.804,1.804,1.804,1.8194,1.8545,1.8579,1.893,1.9667,1.9596,1.9692,1.971,1.9735,1.9924,2.0266,2.0283,2.0292,0.0,0.0,0.0,2.7387,2.7952,2.8325,2.8325,2.8244,2.8079,2.7934,2.7669,2.7523,2.7523,2.7523,2.7523,2.7523,2.7469,2.7403,2.7403,2.7188,2.685,2.6452,2.5886,2.5394,2.4886,2.455,2.4345,2.42,2.42,2.42,2.42,2.42,2.42,2.42,2.42,2.3897,2.3224,2.2402,2.1492,2.0566,2.0098,1.9706,1.9301,1.9301,1.9301,1.9301,1.9301,1.9301,1.9301,1.9301,1.9301,1.9301,1.9301,1.9301,1.9301,1.9152,1.9073,1.9073,1.8922,1.8922,1.8922,1.8851,1.8772,1.8772,1.8772,1.8931,1.9002,1.9143,1.9381,1.946,1.939,1.9399,1.9399,1.9091,1.9011,1.9136,1.9432,1.9611,1.9485,1.8949,1.8754,1.8638,1.8455,1.8288,1.8164,1.8211,1.8126,1.804,1.804,1.804,1.804,1.804,1.804,1.804,1.804,1.804,1.804,1.804,1.8254,1.8451,1.8579,1.9059,1.9461,1.9647,1.9975,2.0095,2.0095,2.0095,2.0163,2.0292,2.0292,2.0292,2.613,0.0,0.0,0.0,0.0,2.8509,2.8509,0.0,2.7934,2.7855,2.7656,2.7523,2.7523,2.7523,2.7523,2.7523,2.7523,2.7523,2.7523,2.7403,2.7201,2.685,2.6302,2.5816,2.5229,2.4838,2.4502,2.4345,2.4273,0.0,2.42,2.42,2.42,2.42,2.4116,2.3751,2.3001,2.2402,2.1568,2.0566,2.0098,1.9706,1.9301,1.9301,1.9301,1.9301,1.9301,1.9301,1.9301,1.9301,1.9301,1.9301,1.9231,1.9231,1.9143,1.9002,1.8931,1.8851,1.878,1.87,1.87,1.8612,1.8612,1.8612,1.8451,1.8523,1.8683,1.8683,1.8834,1.8993,1.8834,1.8843,1.8763,1.8612,1.8531,1.8451,1.8451,1.8692,1.8851,1.8523,1.8523,1.8442,1.8201,1.8112,1.8121,1.8031,1.804,1.804,1.804,1.804,1.804,1.804,1.804,1.8083,1.8211,1.822,1.828,1.8408,1.8648,1.8836,1.8965,1.947,1.9804,1.9924,2.0163,2.0292,2.0292,2.0292,2.0292,2.0292,2.0292,2.0292,0.0,0.0,0.0,0.0,0.0,0.0,2.8287,0.0,2.7776,2.7776,2.7656,2.7523,2.7523,2.7523,2.7523,2.7523,2.7523,2.7523,2.7523,2.7403,2.7255,2.704,2.6564,2.6094,2.5676,2.5135,2.4718,2.4502,2.4345,2.42,2.42,2.42,2.42,2.42,2.397,2.3593,2.3001,2.2402,2.1568,2.0566,2.0098,1.9706,1.9301,1.9301,1.9301,1.9301,1.9301,1.9301,1.9301,1.9301,1.9301,1.9301,1.9073,1.9002,1.9002,1.8772,1.87,1.87,1.87,1.87,1.862,1.8442,1.8362,1.8362,1.8121,1.804,1.804,1.804,1.8201,1.8362,1.8362,1.8362,1.8362,1.8362,1.8201,1.804,1.804,1.8371,1.87,1.87,1.87,1.8612,1.8442,1.8362,1.8282,1.804,1.804,1.804,1.804,1.804,1.7959,1.8057,1.8057,1.8203,1.8571,1.8605,1.8768,1.9153,1.9187,1.9358,1.9727,1.9752,1.9924,2.0283,2.0292,2.0292,2.0292,2.0292,2.0292,2.0292,2.0292,2.0292,2.7012,0.0,0.0,0.0,0.0,0.0,0.0,0.0,0.0,2.759,2.7523,2.7523,2.7523,2.7523,2.7523,2.7523,2.7523,2.7523,2.7523,2.7469,2.7403,2.7268,2.685,2.6371,2.5898,2.5324,2.4826,0.0,2.4345,2.42,2.42,2.42,2.42,2.42,2.397,2.3593,2.3001,2.2402,2.1568,2.0566,2.0098,1.9706,1.9301,1.9301,1.9301,1.9301,1.9301,1.9301,1.9301,1.9301,1.9301,1.9301,1.9073,1.9002,1.8922,1.8603,1.8442,1.8442,1.8282,1.8201,1.8201,1.8121,1.8112,1.8121,1.804,1.804,1.804,1.804,1.8031,1.8112,1.8112,1.8112,1.8112,1.8112,1.8031,1.804,1.804,1.8121,1.8201,1.8201,1.8201,1.8201,1.8121,1.8112,1.8121,1.8031,1.804,1.804,1.804,1.804,1.8134,1.8408,1.8434,1.8588,1.8982,1.9007,1.9059,1.917,1.9436,1.9632,1.9735,2.0001,2.0189,2.0292,2.0292,2.0292,2.0292,2.0292,2.0292,2.0292,2.0292,2.0292,0.0,0.0,0.0,0.0,0.0,0.0,2.7469,2.7469,2.7469,0.0,2.7403,2.7403,2.7403,2.7403,2.7403,2.7403,2.7403,2.7469,2.7456,2.7523,2.7469,2.7403,2.7066,2.6658,2.6164,2.5523,2.4969,2.4646,2.4345,2.42,2.42,2.42,2.42,2.42,2.397,2.3593,2.2852,2.2317,2.1482,2.0498,2.0029,1.9627,1.9301,1.9301,1.9301,1.9301,1.9301,1.9301,1.9301,1.9301,1.9222,1.9152,1.8922,1.8843,1.8683,1.8362,1.8193,1.8193,1.8031,1.804,1.804,1.804,1.804,1.804,1.804,1.804,1.804,1.804,1.804,1.804,1.804,1.804,1.804,1.804,1.804,1.804,1.804,1.804,1.804,1.804,1.804,1.804,1.804,1.804,1.804,1.804,1.804,1.8091,1.8245,1.8263,1.8408,1.8793,1.8828,1.899,1.9376,1.941,1.9478,1.9632,1.9847,1.9975,1.9975,2.018,2.0292,2.0292,2.0292,2.0292,2.0292,2.0292,2.0292,2.0292,2.0292,2.0292,0.0,0.0,0.0,0.0,0.0,0.0,2.6943,2.6943,2.7011,2.7201,2.7201,2.7201,2.7201,2.7201,2.7201,2.7201,2.7201,2.7268,2.7456,2.7523,2.7523,2.7523,2.7214,2.6875,2.6414,2.5721,2.5182,2.4861,2.4418,2.42,2.42,2.42,2.42,2.42,2.397,2.3446,2.2703,2.208,2.1242,2.0264,1.9794,1.9478,1.9301,1.9301,1.9301,1.9301,1.9301,1.9301,1.9301,1.9301,1.9152,1.9002,1.8772,1.8612,1.8362,1.8121,1.804,1.804,1.804,1.804,1.804,1.804,1.804,1.804,1.804,1.804,1.804,1.804,1.804,1.804,1.804,1.804,1.804,1.804,1.804,1.804,1.804,1.804,1.804,1.804,1.804,1.804,1.804,1.804,1.804,1.804,1.8074,1.822,1.8545,1.8622,1.8802,1.9196,1.9239,1.9393,1.9769,1.9804,1.9941,2.0275,2.0292,2.0292,2.0292,2.0292,2.0292,2.0292,2.0292,2.0292,2.0292,2.0292,2.0292,2.0292,2.0292,2.0292,0.0,0.0,0.0,0.0,0.0,0.0,2.6496,2.6496,2.6564,0.0,2.6794,2.6794,2.6794,2.6794,2.6794,2.6794,2.6794,2.6985,2.7469,2.7523,2.7523,2.7523,2.7214,2.6875,2.6414,2.5721,2.5182,2.4861,2.4418,2.42,2.42,2.42,2.4127,2.397,2.3604,2.3075,2.2478,2.1721,2.0964,2.0264,1.9794,1.9478,1.9301,1.9301,1.9301,1.9301,1.9301,1.9301,1.9301,1.9301,1.9152,1.9002,1.8772,1.8612,1.8362,1.8121,1.804,1.804,1.804,1.804,1.804,1.804,1.804,1.804,1.804,1.804,1.804,1.804,1.804,1.804,1.804,1.804,1.804,1.804,1.804,1.804,1.804,1.804,1.804,1.804,1.804,1.804,1.804,1.804,1.804,1.804,1.8288,1.8502,1.8579,1.8862,1.9204,1.959,1.9632,1.9778,2.0155,2.0189,2.0215,2.0292,2.0292,2.0292,2.0292,2.0292,2.0292,2.0292,2.0292,2.0292,2.0292,2.0292,2.0292,2.0292,2.0292,2.0292,0.0,0.0,0.0,2.5734,0.0,0.0,0.0,2.5861,2.5943,2.6245,2.6233,2.6164,2.6314,2.6233,2.6164,2.6314,2.6314,2.644,2.6905,2.7121,2.7268,2.7268,2.6998,2.6726,2.6358,2.5664,2.5111,2.4562,2.4345,2.42,2.42,2.42,2.4116,2.3897,2.3372,2.2841,2.208,2.1339,2.0576,1.9951,1.9636,1.9311,1.9152,1.9152,1.9073,1.9002,1.9002,1.9002,1.9002,1.9002,1.8843,1.8683,1.8692,1.8531,1.8201,1.804,1.804,1.804,1.804,1.804,1.804,1.804,1.804,1.804,1.804,1.804,1.804,1.804,1.804,1.804,1.804,1.804,1.804,1.804,1.804,1.804,1.804,1.804,1.804,1.804,1.8186,1.8254,1.8066,1.8194,1.8314,1.8314,1.8631,1.8948,1.9144,1.9333,1.9598,1.9975,2.0018,2.0095,2.0275,2.0292,2.0292,2.0292,2.0292,2.0292,2.0292,2.0292,2.0292,2.0292,2.0292,2.0201,2.011,2.011,2.011,2.011,2.011,2.0019,0.0,0.0,0.0,0.0,0.0,2.5182,0.0,0.0,0.0,0.0,0.0,0.0,0.0,0.0,0.0,0.0,0.0,0.0,0.0,2.644,0.0,2.6875,2.6726,2.644,2.6094,2.5523,2.4897,2.4261,2.42,2.4189,2.4116,2.4116,2.397,2.3677,2.315,2.2456,2.1614,2.0944,2.0264,1.9566,1.939,1.9222,1.9002,1.9002,1.8922,1.87,1.87,1.87,1.87,1.87,1.8612,1.8442,1.8612,1.8362,1.804,1.804,1.804,1.804,1.804,1.804,1.804,1.804,1.804,1.804,1.804,1.804,1.804,1.804,1.804,1.804,1.804,1.804,1.804,1.804,1.804,1.804,1.804,1.804,1.804,1.804,1.8331,1.8494,1.8194,1.8451,1.8699,1.8699,1.9033,1.9393,1.971,1.9804,1.9966,2.0266,2.0292,2.0292,2.0292,2.0292,2.0292,2.0292,2.0292,2.0292,2.0292,2.0292,2.0201,2.0209,2.0209,2.0019,1.9745,1.9745,1.9745,1.9745,1.9745,1.9471,0.0,0.0,0.0,0.0,2.4706,0.0,0.0,0.0,2.4921,2.5087,0.0,0.0,0.0,0.0,0.0,0.0,0.0,0.0,2.537,2.5453,2.5734,2.6427,2.6358,2.6094,2.5676,2.4981,2.449,2.42,2.42,2.4116,2.397,2.3897,2.3593,2.2852,2.2628,2.2014,2.1021,2.0566,2.0108,1.9566,1.939,1.9222,1.9002,1.9002,1.8922,1.87,1.87,1.87,1.87,1.87,1.8612,1.8442,1.8442,1.8282,1.804,1.804,1.804,1.804,1.804,1.804,1.804,1.804,1.804,1.804,1.804,1.804,1.804,1.804,1.804,1.804,1.804,1.804,1.804,1.804,1.804,1.804,1.804,1.804,1.804,1.804,1.8331,1.8571,1.8528,1.8853,1.9102,1.9102,1.9436,1.9692,1.9735,2.0026,2.0249,2.0292,2.0292,2.0292,2.0292,2.0292,2.0292,2.0292,2.0292,2.0292,2.0292,2.011,1.9845,1.9671,1.9671,1.9571,1.9279,1.9012,1.9012,1.9279,1.9012,1.8727,0.0,0.0,0.0,0.0,0.0,0.0,2.4646,0.0,2.479,0.0,0.0,0.0,0.0,0.0,0.0,0.0,2.4683,0.0,0.0,0.0,2.5182,0.0,0.0,0.0,2.5206,2.4778,2.4418,2.42,2.4116,2.397,2.3751,2.3519,2.315,2.2553,2.2014,2.1405,2.0712,2.0186,1.9715,1.939,1.9231,1.9002,1.8851,1.8683,1.8523,1.8282,1.8282,1.8282,1.8282,1.8282,1.8201,1.8201,1.8201,1.8121,1.804,1.804,1.804,1.804,1.804,1.804,1.804,1.804,1.804,1.804,1.804,1.804,1.804,1.804,1.804,1.804,1.804,1.804,1.804,1.804,1.804,1.804,1.804,1.804,1.8019,1.8068,1.8414,1.8744,1.8782,1.9124,1.9321,1.9321,1.9368,1.9422,1.9422,1.9372,1.9471,1.9646,1.9646,1.9745,1.9853,1.9845,1.9845,1.9845,1.9845,1.9845,1.9845,1.9762,1.9571,1.9387,1.9387,1.9104,1.8542,1.8257,1.7978,1.7707,1.7893,1.7699,2.3593,0.0,0.0,0.0,0.0,0.0,0.0,0.0,0.0,0.0,0.0,0.0,0.0,0.0,0.0,0.0,0.0,2.4418,0.0,2.4502,0.0,0.0,0.0,0.0,0.0,2.4345,2.4116,2.4043,2.3824,2.3593,2.3372,2.3001,2.2553,2.2025,2.1395,2.0789,2.0333,1.9872,1.9478,1.9301,1.9073,1.8922,1.87,1.8523,1.8273,1.804,1.804,1.804,1.804,1.804,1.7951,1.7951,1.7951,1.787,1.7878,1.7959,1.804,1.804,1.804,1.804,1.804,1.804,1.804,1.804,1.804,1.804,1.804,1.804,1.804,1.804,1.804,1.804,1.804,1.804,1.804,1.804,1.804,1.7951,1.798,1.8104,1.8396,1.8597,1.8693,1.91,1.9346,1.9256,1.9109,1.9004,1.8912,1.8735,1.8635,1.8912,1.8912,1.9012,1.9204,1.9204,1.9212,1.9212,1.9204,1.9204,1.9112,1.9112,1.902,1.8727,1.8719,1.8357,1.7707,1.7412,1.6943,1.6298,1.6669,1.6669,0.0,0.0,0.0,2.3593,0.0,0.0,0.0,0.0,2.479,0.0,0.0,0.0,0.0,0.0,0.0,0.0,0.0,0.0,0.0,0.0,0.0,0.0,0.0,0.0,0.0,2.3593,2.3446,2.3604,2.3446,2.315,2.2777,2.2327,2.1797,2.0944,2.0712,2.0333,1.9645,1.9636,1.9478,1.9301,1.9073,1.8922,1.87,1.8523,1.8273,1.804,1.804,1.804,1.804,1.804,1.787,1.77,1.77,1.7627,1.7473,1.7878,1.804,1.804,1.804,1.804,1.804,1.804,1.804,1.804,1.804,1.804,1.804,1.804,1.804,1.804,1.804,1.804,1.804,1.804,1.804,1.804,1.804,1.787,1.7727,1.787,1.8063,1.8073,1.7979,1.8672,1.908,1.8904,1.8619,1.835,1.8179,1.8087,1.8087,1.8172,1.8179,1.8265,1.8434,1.8265,1.8179,1.8179,1.835,1.8241,1.7785,1.7986,1.7893,1.7326,1.7326,1.7145,1.6676,1.6386,1.6001,1.5439,1.573,1.573,0.0,0.0,2.2777,2.315,0.0,0.0,0.0,0.0,0.0,0.0,0.0,0.0,0.0,0.0,0.0,0.0,0.0,0.0,0.0,0.0,0.0,0.0,0.0,0.0,0.0,0.0,2.3001,2.3224,2.2927,2.2553,2.2101,2.1634,2.1021,2.0489,2.0108,1.9794,1.9566,1.9469,1.939,1.9301,1.8922,1.878,1.87,1.8282,1.8121,1.804,1.804,1.804,1.804,1.804,1.787,1.77,1.7546,1.7383,1.7221,1.7619,1.7781,1.7781,1.7951,1.787,1.7781,1.7781,1.7708,1.7635,1.7635,1.7708,1.7781,1.7781,1.787,1.804,1.804,1.804,1.7951,1.787,1.7781,1.77,1.7465,1.7375,1.731,1.7298,1.7336,1.7328,1.7346,1.7439,1.7512,1.7792,1.7512,1.7138,1.685,1.6669,1.6676,1.685,1.685,1.7037,1.7412,1.7419,1.7326,1.7145,1.7326,1.7412,1.7225,1.7419,1.7333,1.6864,1.6864,1.6487,1.5818,1.5547,1.5261,1.4968,1.4873,1.4873,2.1242,2.1548,0.0,2.2392,2.2916,0.0,2.3824,0.0,2.449,0.0,0.0,0.0,0.0,0.0,0.0,0.0,0.0,0.0,0.0,2.2467,0.0,0.0,0.0,0.0,0.0,2.2176,2.2252,2.2553,2.2176,2.1797,0.0,2.0867,2.0401,2.0029,1.9715,1.9478,1.9478,1.9381,1.9222,1.9222,1.8851,1.8692,1.8612,1.8201,1.804,1.804,1.804,1.804,1.7951,1.7951,1.77,1.7456,1.7139,1.6894,1.664,1.7131,1.7375,1.7538,1.7708,1.7627,1.7456,1.7375,1.7221,1.7057,1.7057,1.7131,1.7294,1.7294,1.7465,1.7546,1.7546,1.7546,1.7546,1.7383,1.7294,1.7212,1.6886,1.6722,1.6596,1.6578,1.6529,1.6468,1.6462,1.6292,1.6298,1.6676,1.6386,1.6109,1.5825,1.5642,1.5642,1.5825,1.5825,1.592,1.6298,1.6386,1.6292,1.6116,1.6292,1.6379,1.6292,1.648,1.648,1.6116,1.6116,1.573,1.5159,1.4975,1.479,1.4592,1.4394,1.4394]},{"header":{"parameterUnit":"m.s-1","parameterCategory":1,"la1":30.6,"la2":29.2853,"lo1":-89.7004,"lo2":-87.6739,"dy":0.0162,"dx":0.0183,"nx":112,"ny":82,"refTime":"2023-07-21T00:00:00:Z","depth":0,"parameterNumber":3,"parameterNumberName":"V-component_of_WINDS"},"data":[0.0,0.0,0.0,0.0,0.0,0.0,0.0,0.0,0.0,0.0,0.0,0.0,0.0,0.0,0.0,0.0,0.0,0.0,0.0,0.0,0.0,0.0,0.0,0.0,0.0,0.0,0.0,0.0,0.0,0.0,0.0,0.0,0.0,0.0,0.0,0.0,0.0,0.0,0.0,0.0,0.0,0.0,0.0,0.0,0.0,0.0,0.0,0.0,0.0,0.0,0.0,0.0,0.0,0.0,0.0,0.0,0.0,0.0,0.0,0.0,0.0,0.0,0.0,0.0,0.0,0.0,0.0,0.0,0.0,0.0,0.0,0.0,0.0,0.0,0.0,0.0,0.0,0.0,0.0,0.0,0.0,0.0,0.0,0.0,0.0,0.0,0.0,0.0,0.0,0.0,-0.59,-0.6005,-0.6119,-0.6173,-0.6059,-0.6055,-0.6055,-0.6109,0.0,0.0,0.0,0.0,0.0,0.0,0.0,0.0,0.0,0.0,0.0,0.0,0.0,0.0,0.0,0.0,0.0,0.0,0.0,0.0,0.0,0.0,0.0,0.0,0.0,0.0,0.0,0.0,0.0,0.0,0.0,0.0,0.0,0.0,0.0,0.0,0.0,0.0,0.0,0.0,0.0,0.0,0.0,0.0,0.0,0.0,0.0,0.0,0.0,0.0,0.0,0.0,0.0,0.0,0.0,0.0,0.0,0.0,0.0,0.0,0.0,0.0,0.0,0.0,0.0,0.0,0.0,0.0,0.0,0.0,0.0,0.0,0.0,0.0,0.0,0.0,0.0,0.0,0.0,0.0,0.0,0.0,0.0,0.0,0.0,0.0,0.0,0.0,0.0,0.0,0.0,0.0,0.0,0.0,0.0,0.0,0.0,0.0,0.0,0.0,0.0,0.0,0.0,0.0,-0.6005,-0.6173,-0.6178,-0.6178,-0.6173,-0.6277,-0.6436,-0.6593,0.0,0.0,0.0,0.0,0.0,0.0,0.0,0.0,0.0,0.0,0.0,0.0,0.0,0.0,0.0,0.0,0.0,0.0,0.0,0.0,0.0,0.0,0.0,0.0,0.0,0.0,0.0,0.0,0.0,0.0,0.0,0.0,0.0,0.0,0.0,0.0,0.0,0.0,0.0,0.0,0.0,0.0,0.0,0.0,0.0,0.0,0.0,0.0,0.0,0.0,0.0,0.0,0.0,0.0,0.0,0.0,0.0,0.0,0.0,0.0,0.0,0.0,0.0,0.0,0.0,0.0,0.0,0.0,0.0,0.0,0.0,0.0,0.0,0.0,0.0,0.0,0.0,0.0,0.0,0.0,0.0,0.0,0.0,0.0,0.0,0.0,0.0,0.0,0.0,0.0,0.0,0.0,0.0,0.0,0.0,0.0,0.0,0.0,0.0,0.0,0.0,0.0,0.0,-0.6327,-0.6381,-0.644,-0.6495,-0.6495,-0.6495,-0.6603,-0.6761,-0.7025,-0.7128,0.0,0.0,0.0,0.0,0.0,0.0,0.0,0.0,0.0,0.0,0.0,0.0,0.0,0.0,0.0,0.0,0.0,0.0,0.0,0.0,0.0,0.0,0.0,0.0,0.0,0.0,0.0,0.0,0.0,0.0,0.0,0.0,0.0,0.0,0.0,0.0,0.0,0.0,0.0,0.0,0.0,0.0,0.0,0.0,0.0,0.0,0.0,0.0,0.0,0.0,0.0,0.0,0.0,0.0,0.0,0.0,0.0,0.0,0.0,0.0,0.0,0.0,0.0,0.0,0.0,0.0,0.0,0.0,0.0,0.0,0.0,0.0,0.0,0.0,0.0,0.0,0.0,0.0,0.0,0.0,0.0,0.0,0.0,0.0,0.0,0.0,0.0,0.0,0.0,0.0,0.0,0.0,0.0,0.0,0.0,0.0,0.0,0.0,0.0,0.0,0.0,0.0,-0.681,-0.681,-0.6864,-0.681,-0.6815,-0.6815,-0.6928,-0.7139,-0.7396,-0.7824,0.0,0.0,0.0,0.0,0.0,0.0,0.0,0.0,0.0,0.0,0.0,0.0,0.0,0.0,0.0,0.0,0.0,0.0,0.0,0.0,0.0,0.0,0.0,0.0,0.0,0.0,0.0,0.0,0.0,0.0,0.0,0.0,0.0,0.0,0.0,0.0,0.0,0.0,0.0,0.0,0.0,0.0,0.0,0.0,0.0,0.0,0.0,0.0,0.0,0.0,0.0,0.0,0.0,0.0,0.0,0.0,0.0,0.0,0.0,0.0,0.0,0.0,0.0,0.0,0.0,0.0,0.0,0.0,0.0,0.0,0.0,0.0,0.0,0.0,0.0,0.0,0.0,0.0,0.0,0.0,0.0,0.0,0.0,0.0,0.0,0.0,0.0,0.0,0.0,0.0,0.0,0.0,0.0,0.0,0.0,0.0,0.0,0.0,0.0,0.0,0.0,0.0,-0.7133,-0.7133,-0.7235,-0.7133,-0.7085,-0.7085,-0.73,-0.7515,-0.767,-0.8196,0.0,0.0,0.0,0.0,0.0,0.0,0.0,0.0,0.0,0.0,0.0,0.0,0.0,0.0,0.0,0.0,0.0,0.0,0.0,0.0,0.0,0.0,0.0,0.0,0.0,0.0,0.0,0.0,0.0,0.0,0.0,0.0,0.0,0.0,0.0,0.0,0.0,0.0,0.0,0.0,0.0,0.0,0.0,0.0,0.0,0.0,0.0,0.0,0.0,0.0,0.0,0.0,0.0,0.0,0.0,0.0,0.0,0.0,0.0,0.0,0.0,0.0,0.0,0.0,0.0,0.0,0.0,0.0,0.0,0.0,0.0,0.0,0.0,0.0,0.0,0.0,0.0,0.0,0.0,0.0,0.0,0.0,0.0,0.0,0.0,0.0,0.0,0.0,0.0,0.0,0.0,0.0,0.0,0.0,0.0,0.0,0.0,0.0,0.0,0.0,0.0,0.0,-0.7937,-0.7937,0.0,-0.799,-0.7889,-0.7889,-0.8103,-0.8256,-0.8355,0.0,0.0,0.0,0.0,0.0,0.0,0.0,0.0,0.0,0.0,0.0,0.0,0.0,0.0,0.0,0.0,0.0,0.0,0.0,0.0,0.0,0.0,0.0,0.0,0.0,0.0,0.0,0.0,0.0,0.0,0.0,0.0,0.0,0.0,0.0,0.0,0.0,0.0,0.0,0.0,0.0,0.0,0.0,0.0,0.0,0.0,0.0,0.0,0.0,0.0,0.0,0.0,0.0,0.0,0.0,0.0,0.0,0.0,0.0,0.0,0.0,0.0,0.0,0.0,0.0,0.0,0.0,0.0,0.0,0.0,0.0,0.0,0.0,0.0,0.0,0.0,0.0,0.0,0.0,0.0,0.0,0.0,0.0,0.0,0.0,0.0,0.0,0.0,0.0,0.0,0.0,0.0,0.0,0.0,0.0,0.0,0.0,0.0,0.0,0.0,0.0,0.0,-0.858,-0.8633,-0.8685,0.0,-0.8732,-0.8633,-0.8633,-0.8784,-0.889,-0.8988,0.0,0.0,0.0,0.0,0.0,0.0,0.0,0.0,0.0,0.0,0.0,0.0,0.0,0.0,0.0,0.0,0.0,0.0,0.0,0.0,0.0,0.0,0.0,0.0,0.0,0.0,0.0,0.0,0.0,0.0,0.0,0.0,0.0,0.0,0.0,0.0,0.0,0.0,0.0,0.0,0.0,0.0,0.0,0.0,0.0,0.0,0.0,0.0,0.0,0.0,0.0,0.0,0.0,0.0,0.0,0.0,0.0,0.0,0.0,0.0,0.0,0.0,0.0,0.0,0.0,0.0,0.0,0.0,0.0,0.0,0.0,0.0,0.0,0.0,0.0,0.0,0.0,0.0,0.0,0.0,0.0,0.0,0.0,0.0,0.0,0.0,0.0,0.0,0.0,0.0,0.0,0.0,0.0,0.0,0.0,0.0,0.0,0.0,0.0,0.0,0.0,0.0,-0.9159,-0.9211,-0.9263,-0.9413,-0.9316,-0.9211,-0.9211,-0.9316,-0.9413,0.0,0.0,0.0,0.0,0.0,0.0,0.0,0.0,0.0,0.0,0.0,0.0,0.0,0.0,0.0,0.0,0.0,0.0,0.0,0.0,0.0,0.0,0.0,0.0,0.0,0.0,0.0,0.0,0.0,0.0,0.0,0.0,0.0,0.0,0.0,0.0,0.0,0.0,0.0,0.0,0.0,0.0,0.0,0.0,0.0,0.0,0.0,0.0,0.0,0.0,0.0,0.0,0.0,0.0,0.0,0.0,0.0,0.0,0.0,0.0,0.0,0.0,0.0,0.0,0.0,0.0,0.0,0.0,0.0,0.0,0.0,0.0,0.0,0.0,0.0,0.0,0.0,0.0,0.0,0.0,0.0,0.0,0.0,0.0,0.0,0.0,0.0,0.0,0.0,0.0,0.0,0.0,0.0,0.0,0.0,0.0,0.0,0.0,0.0,0.0,0.0,0.0,0.0,-0.9681,-0.9792,-0.9844,-0.9999,-0.9895,-0.9792,-0.9792,-0.9784,-0.9836,-0.9836,0.0,0.0,0.0,0.0,0.0,0.0,0.0,0.0,0.0,0.0,0.0,0.0,0.0,0.0,0.0,0.0,0.0,0.0,0.0,0.0,0.0,0.0,0.0,0.0,0.0,0.0,0.0,0.0,0.0,0.0,0.0,0.0,0.0,0.0,0.0,0.0,0.0,0.0,0.0,0.0,0.0,0.0,0.0,0.0,0.0,0.0,0.0,0.0,0.0,0.0,0.0,0.0,0.0,0.0,0.0,0.0,0.0,0.0,0.0,0.0,0.0,0.0,0.0,0.0,0.0,0.0,0.0,0.0,0.0,0.0,0.0,0.0,0.0,0.0,0.0,0.0,0.0,0.0,0.0,0.0,0.0,0.0,0.0,0.0,0.0,0.0,0.0,0.0,0.0,0.0,0.0,0.0,0.0,0.0,0.0,0.0,0.0,0.0,0.0,0.0,0.0,0.0,-1.0205,-1.0308,-1.0411,-1.0522,-1.036,-1.0257,-1.0257,-1.0257,-1.0257,-1.0257,0.0,0.0,0.0,0.0,0.0,0.0,0.0,0.0,0.0,0.0,0.0,0.0,0.0,0.0,0.0,0.0,0.0,0.0,0.0,0.0,0.0,0.0,0.0,0.0,0.0,0.0,0.0,0.0,0.0,0.0,0.0,0.0,0.0,0.0,0.0,0.0,0.0,0.0,0.0,0.0,0.0,0.0,0.0,0.0,0.0,0.0,0.0,0.0,0.0,0.0,0.0,0.0,0.0,0.0,0.0,0.0,0.0,0.0,0.0,0.0,0.0,0.0,0.0,0.0,0.0,0.0,0.0,0.0,0.0,0.0,0.0,0.0,0.0,0.0,0.0,0.0,0.0,0.0,0.0,0.0,0.0,0.0,0.0,0.0,0.0,0.0,0.0,0.0,0.0,0.0,0.0,0.0,0.0,0.0,0.0,0.0,0.0,0.0,0.0,0.0,0.0,0.0,-1.0667,-1.082,-1.0922,-1.0922,-1.0769,-1.0718,-1.0718,-1.0777,-1.0769,-1.0769,0.0,0.0,0.0,0.0,0.0,0.0,0.0,0.0,0.0,0.0,0.0,0.0,0.0,0.0,0.0,0.0,0.0,0.0,0.0,0.0,0.0,0.0,0.0,0.0,0.0,0.0,0.0,0.0,0.0,0.0,0.0,0.0,0.0,0.0,0.0,0.0,0.0,0.0,0.0,0.0,0.0,0.0,0.0,0.0,0.0,0.0,0.0,0.0,0.0,0.0,0.0,0.0,0.0,0.0,0.0,0.0,0.0,0.0,0.0,0.0,-0.5737,0.0,0.0,0.0,0.0,0.0,0.0,0.0,0.0,0.0,0.0,0.0,0.0,0.0,0.0,0.0,0.0,0.0,0.0,0.0,0.0,0.0,0.0,0.0,0.0,0.0,0.0,0.0,0.0,0.0,0.0,0.0,0.0,0.0,0.0,0.0,0.0,0.0,0.0,0.0,0.0,0.0,-1.082,-1.0871,-1.0922,-1.0922,-1.0871,-1.0922,-1.1023,-1.1124,-1.1226,-1.1326,-1.1678,0.0,0.0,0.0,0.0,0.0,0.0,0.0,0.0,0.0,0.0,0.0,0.0,0.0,0.0,0.0,0.0,0.0,0.0,0.0,0.0,0.0,0.0,0.0,0.0,0.0,0.0,0.0,0.0,0.0,0.0,0.0,0.0,0.0,0.0,0.0,0.0,0.0,0.0,0.0,0.0,0.0,0.0,0.0,0.0,0.0,0.0,0.0,0.0,0.0,0.0,0.0,0.0,0.0,0.0,0.0,0.0,0.0,0.0,0.0,0.0,-0.606,0.0,0.0,0.0,0.0,0.0,0.0,0.0,0.0,0.0,0.0,0.0,0.0,0.0,0.0,0.0,0.0,0.0,0.0,0.0,0.0,0.0,0.0,0.0,0.0,0.0,0.0,0.0,0.0,0.0,0.0,0.0,0.0,0.0,0.0,0.0,0.0,0.0,0.0,0.0,0.0,-1.1175,-1.1336,-1.155,-1.1645,-1.1756,-1.1921,-1.207,-1.2228,-1.2384,-1.2522,-1.2894,0.0,0.0,0.0,0.0,0.0,0.0,0.0,0.0,0.0,0.0,0.0,0.0,0.0,0.0,0.0,0.0,0.0,0.0,0.0,0.0,0.0,0.0,0.0,0.0,0.0,0.0,0.0,0.0,0.0,0.0,0.0,0.0,0.0,0.0,0.0,0.0,0.0,0.0,0.0,0.0,0.0,0.0,0.0,0.0,0.0,0.0,0.0,0.0,0.0,0.0,0.0,0.0,0.0,-0.7747,-0.7693,-0.7693,-0.7563,-0.7465,-0.7475,-0.6894,-0.6651,-0.663,-0.6463,0.0,0.0,0.0,0.0,0.0,0.0,0.0,0.0,0.0,0.0,0.0,0.0,0.0,0.0,0.0,0.0,0.0,0.0,0.0,0.0,0.0,0.0,0.0,0.0,-1.2025,-1.1915,0.0,0.0,0.0,0.0,0.0,0.0,0.0,0.0,0.0,0.0,0.0,0.0,-1.172,-1.2122,-1.2422,-1.2668,-1.2914,-1.3168,-1.3377,-1.3539,-1.3692,-1.3834,-1.4165,-1.448,0.0,0.0,0.0,0.0,0.0,0.0,0.0,0.0,0.0,0.0,0.0,0.0,0.0,0.0,0.0,0.0,0.0,0.0,0.0,0.0,0.0,0.0,0.0,0.0,0.0,0.0,0.0,0.0,0.0,0.0,0.0,0.0,-0.4138,-0.4193,0.0,0.0,0.0,0.0,0.0,0.0,0.0,0.0,0.0,0.0,0.0,0.0,0.0,-0.7506,-0.7559,-0.7898,-0.8032,-0.8032,-0.8032,-0.8038,-0.8038,-0.786,-0.7793,-0.7845,-0.7529,0.0,-0.7274,-0.7244,0.0,0.0,0.0,0.0,0.0,0.0,0.0,0.0,0.0,0.0,0.0,0.0,0.0,0.0,0.0,0.0,0.0,0.0,0.0,0.0,0.0,0.0,-1.2672,-1.3321,-1.3628,-1.3628,0.0,-1.2713,-1.2113,-1.2113,-1.2432,0.0,0.0,0.0,0.0,0.0,0.0,0.0,-1.2815,-1.3167,-1.342,-1.3465,-1.3717,-1.3897,-1.4068,-1.4324,-1.4588,-1.4704,-1.4976,-1.5321,-1.5708,-1.5848,0.0,0.0,0.0,0.0,0.0,0.0,0.0,0.0,0.0,0.0,0.0,0.0,0.0,0.0,0.0,0.0,0.0,0.0,0.0,0.0,0.0,0.0,0.0,0.0,0.0,0.0,0.0,0.0,0.0,-0.4659,-0.4896,-0.5009,-0.5122,-0.5238,0.0,0.0,0.0,0.0,0.0,0.0,0.0,0.0,0.0,-0.7195,-0.7678,-0.805,-0.8238,-0.8617,-0.8747,-0.8747,-0.8691,-0.8567,-0.8511,-0.8261,-0.8258,-0.8413,-0.8368,-0.8448,-0.8415,-0.7898,-0.7731,-0.7795,0.0,0.0,0.0,0.0,-0.9427,-0.9891,-1.0408,-1.0815,0.0,-1.1439,0.0,0.0,0.0,0.0,0.0,0.0,0.0,0.0,0.0,0.0,-1.3782,-1.4125,-1.4334,-1.444,-1.4546,-1.4364,-1.4068,0.0,-1.3559,-1.3626,-1.3224,0.0,0.0,0.0,0.0,-1.312,-1.3619,-1.4064,-1.4373,-1.4666,-1.4984,-1.5235,-1.5356,-1.5632,-1.5852,-1.5972,-1.6125,-1.6395,-1.6654,-1.6731,-1.6883,0.0,0.0,0.0,0.0,0.0,0.0,0.0,0.0,0.0,0.0,0.0,0.0,0.0,0.0,0.0,0.0,0.0,0.0,0.0,0.0,0.0,0.0,0.0,0.0,0.0,0.0,0.0,0.0,-0.5218,-0.5582,-0.582,-0.5936,-0.6053,0.0,0.0,0.0,0.0,0.0,0.0,-0.6866,-0.7109,-0.7315,-0.7481,-0.8083,-0.8555,-0.8873,-0.9186,-0.9338,-0.9338,-0.9145,-0.8958,-0.877,-0.8641,-0.8705,-0.8835,-0.9017,-0.9274,-0.95,-0.8722,-0.8451,-0.8632,-0.8933,-0.9232,-0.9471,-0.9952,-1.0366,-1.0763,-1.1302,-1.165,-1.188,-1.233,-1.2499,-1.2535,-1.2655,0.0,0.0,0.0,0.0,-1.3892,-1.4258,-1.4502,-1.4811,-1.5029,-1.5221,-1.5382,-1.5499,-1.5869,-1.58,0.0,-1.4754,-1.4794,-1.4459,0.0,0.0,0.0,0.0,-1.4173,-1.4651,-1.4994,-1.5371,-1.5735,-1.609,-1.64,-1.6457,-1.6684,-1.6807,-1.6931,-1.7032,-1.7145,-1.7278,-1.7334,-1.7379,-1.7379,0.0,0.0,0.0,0.0,0.0,0.0,0.0,0.0,0.0,0.0,0.0,0.0,0.0,0.0,0.0,0.0,0.0,0.0,0.0,0.0,0.0,0.0,0.0,0.0,0.0,0.0,0.0,0.0,0.0,-0.6121,-0.6181,0.0,0.0,0.0,0.0,-0.6837,-0.7021,-0.7118,-0.7197,-0.7461,-0.7744,-0.7947,-0.8603,-0.9064,-0.9256,-0.9408,-0.9472,-0.9454,-0.9145,-0.8958,-0.877,-0.877,-0.8829,-0.9017,-0.9332,-0.9779,-1.0238,-0.9875,-0.9793,-0.9914,-1.0242,-1.0627,-1.094,-1.1322,-1.1695,-1.2066,-1.2381,-1.2626,-1.281,-1.3158,-1.327,-1.338,-1.3561,-1.3691,0.0,0.0,-1.4165,-1.4487,-1.5079,-1.542,-1.5753,-1.6346,-1.6722,-1.689,-1.6733,-1.6989,-1.6915,0.0,-1.5914,-1.6033,-1.5491,0.0,-1.519,-1.519,-1.519,-1.5396,-1.5934,-1.6291,-1.6539,-1.6539,-1.6775,-1.6955,-1.6955,-1.7145,-1.7278,-1.7278,-1.7278,-1.7278,-1.7278,-1.7423,-1.7534,-1.7656,-1.7799,0.0,0.0,0.0,0.0,0.0,0.0,0.0,0.0,0.0,0.0,0.0,0.0,0.0,0.0,0.0,0.0,0.0,0.0,0.0,0.0,0.0,0.0,0.0,0.0,0.0,0.0,0.0,0.0,-0.7117,-0.7307,0.0,-0.7429,-0.7555,-0.7681,-0.7739,-0.7802,-0.7843,-0.7856,-0.7925,-0.803,-0.8107,-0.8694,-0.9017,-0.9081,-0.9338,-0.9466,-0.9396,-0.9145,-0.8958,-0.877,-0.877,-0.9022,-0.9332,-0.9786,-1.0295,-1.0807,-1.0982,-1.0982,-1.0856,-1.124,-1.1428,-1.1553,-1.1934,-1.212,-1.2305,-1.2736,-1.2867,-1.3042,-1.364,-1.4141,-1.4501,-1.4724,-1.4964,-1.5186,-1.5477,-1.57,-1.5898,-1.6186,-1.6549,-1.6842,-1.6874,-1.7202,-1.7467,-1.7164,-1.7222,-1.7168,-1.6817,-1.6736,-1.6687,-1.6371,-1.6227,-1.6161,-1.6161,-1.6161,-1.6269,-1.6652,-1.6786,-1.6909,-1.7043,-1.7155,-1.7211,-1.7211,-1.7267,-1.7278,-1.7278,-1.7379,-1.7423,-1.7423,-1.77,-1.7975,-1.8073,-1.8452,-1.8655,0.0,0.0,0.0,0.0,0.0,0.0,0.0,0.0,0.0,0.0,0.0,0.0,0.0,0.0,0.0,0.0,0.0,0.0,0.0,0.0,0.0,0.0,0.0,0.0,0.0,0.0,-0.7526,-0.7987,-0.8182,-0.8312,-0.8436,-0.8495,-0.856,-0.856,-0.8495,-0.8431,-0.8301,-0.8301,-0.8236,-0.8236,-0.8694,-0.8952,-0.9017,-0.9204,-0.9268,-0.921,-0.9017,-0.8894,-0.884,-0.8978,-0.9403,-0.998,-1.0607,-1.1238,-1.1811,-1.221,-1.2142,-1.1896,-1.1971,-1.1996,-1.2135,-1.2438,-1.2547,-1.2625,-1.3176,-1.3476,-1.3718,-1.44,-1.5022,-1.5568,-1.5909,-1.6267,-1.6622,-1.6936,-1.7042,-1.7148,-1.7275,-1.7557,-1.7766,-1.7582,-1.7813,-1.798,-1.7628,-1.7529,-1.7475,-1.7311,-1.7211,-1.7078,-1.6987,-1.6874,-1.6807,-1.6807,-1.6807,-1.692,-1.7123,-1.7179,-1.7245,-1.7445,-1.7434,-1.7434,-1.7434,-1.7434,-1.7434,-1.749,-1.7634,-1.7678,-1.7689,-1.8084,-1.8437,-1.8709,-1.942,-1.9829,-1.9978,0.0,0.0,0.0,0.0,0.0,0.0,0.0,0.0,0.0,0.0,0.0,0.0,0.0,0.0,0.0,0.0,0.0,0.0,0.0,0.0,0.0,0.0,0.0,-0.7587,-0.7647,-0.8037,-0.8765,-0.8835,-0.8958,-0.9274,-0.9338,-0.9338,-0.935,-0.9157,-0.8899,-0.8576,-0.8592,-0.8463,-0.8257,-0.8657,-0.8922,-0.904,-0.904,-0.904,-0.904,-0.8922,-0.8857,-0.8868,-0.9489,-1.0128,-1.087,-1.1641,-1.2444,-1.3109,-1.3341,-1.3286,-1.3068,-1.2531,-1.2452,-1.2685,-1.2981,-1.3108,-1.322,-1.3876,-1.4453,-1.4967,-1.5422,-1.601,-1.6592,-1.7076,-1.7513,-1.7904,-1.8129,-1.819,-1.819,-1.819,-1.8344,-1.8488,-1.8477,-1.8599,-1.8589,-1.813,-1.801,-1.7868,-1.7398,-1.7356,-1.7289,-1.7278,-1.7278,-1.7278,-1.7334,-1.7334,0.0,-1.749,-1.7545,-1.7612,-1.7756,-1.7756,-1.7756,-1.7756,-1.7756,-1.78,-1.7954,-1.8096,-1.8162,-1.8185,-1.863,-1.9137,-1.965,-2.0748,-2.1387,-2.1554,0.0,0.0,0.0,0.0,0.0,0.0,0.0,0.0,0.0,0.0,0.0,0.0,0.0,0.0,0.0,0.0,0.0,0.0,0.0,0.0,0.0,0.0,-0.8888,-0.8506,-0.8689,-0.9011,-0.946,-0.9582,-0.9767,-1.0021,-1.0098,-1.0309,-1.0698,-1.0529,-1.0494,-1.0552,-1.0227,-1.0036,-0.9769,-1.0048,-1.0121,-1.0048,-1.0183,-1.0183,-0.998,-0.9985,-0.9985,-0.9985,-1.0262,-1.0765,-1.1309,-1.1941,-1.2526,-1.3132,-1.34,-1.3537,-1.3441,-1.3273,-1.3155,-1.2989,-1.3526,-1.3917,-1.4317,-1.4624,-1.5171,-1.5799,-1.6256,-1.6782,-1.7284,-1.7657,-1.8027,-1.8344,-1.8405,-1.8516,-1.8566,-1.8566,-1.8837,-1.9073,-1.8725,-1.8899,-1.9091,-1.86,-1.8239,-1.7966,-1.7986,-1.7953,-1.7785,-1.74,-1.7278,-1.7334,-1.7423,-1.7423,0.0,-1.8136,-1.8238,-1.8372,-1.8742,-1.8787,-1.8787,-1.8787,-1.8904,-1.902,-1.9067,-1.939,-1.9665,-1.9778,-2.0241,-2.0773,-2.1475,-2.1889,-2.2226,0.0,0.0,0.0,0.0,0.0,0.0,0.0,0.0,0.0,0.0,0.0,0.0,0.0,0.0,0.0,0.0,0.0,0.0,0.0,0.0,0.0,0.0,-0.9949,-1.0089,-0.9959,-0.9796,-0.9957,-1.0522,-1.0657,-1.0897,-1.1221,-1.1307,-1.1514,-1.1822,-1.1629,-1.1505,-1.1539,-1.1204,-1.0936,-1.0673,-1.0742,-1.0742,-1.0673,-1.0742,-1.0742,-1.0673,-1.0673,-1.0679,-1.0761,-1.1083,-1.1547,-1.2179,-1.2738,-1.3215,-1.3769,-1.396,-1.3942,0.0,0.0,0.0,0.0,0.0,-1.4715,-1.5179,-1.5525,-1.6051,-1.6703,-1.7246,-1.7775,-1.8224,-1.8543,-1.887,-1.9122,-1.9133,-1.9247,-1.9299,-1.9299,-1.9506,-1.9648,-1.9364,-1.9517,-1.9594,-1.9102,-1.8846,-1.8654,-1.8552,-1.8578,0.0,-1.8154,-1.8109,-1.8098,-1.8202,-1.8202,-1.8417,-1.8941,-1.8975,-1.9158,-1.9572,-1.9547,-1.9547,-1.9606,-1.9666,0.0,0.0,0.0,-2.0734,-2.1119,-2.1625,0.0,0.0,0.0,-2.3289,-2.3524,0.0,0.0,0.0,-2.295,-2.2831,0.0,0.0,0.0,0.0,0.0,0.0,0.0,0.0,0.0,0.0,0.0,0.0,0.0,0.0,0.0,0.0,-1.105,-1.1511,-1.1708,-1.1081,-1.0877,-1.168,-1.184,-1.2145,-1.2639,-1.2676,-1.2683,-1.2788,-1.2562,-1.2366,-1.2053,0.0,0.0,0.0,0.0,-1.1303,-1.1303,-1.1303,-1.1322,-1.1355,-1.1355,-1.1451,-1.165,-1.2053,-1.2599,-1.3312,-1.3695,-1.4187,-1.4752,-1.4712,-1.449,-1.4202,-1.385,-1.3872,-1.4221,-1.4883,-1.548,-1.6044,-1.6603,0.0,0.0,-1.8259,-1.8808,-1.9274,-1.9605,-1.9802,-2.0009,-2.0151,-2.0151,-2.0151,-2.0151,-2.0151,-2.0151,-2.0151,-2.0151,-2.003,-1.9657,-1.964,-1.9599,-1.9215,-1.9269,-1.9329,-1.9388,-1.9295,-1.919,-1.925,-1.925,-1.938,-1.9782,-1.9853,-1.9994,-2.037,0.0,0.0,-2.0382,-2.0252,-2.0358,-2.0754,-2.1145,-2.1713,-2.2405,-2.2916,-2.3358,-2.3622,-2.4099,-2.4478,-2.4677,-2.4778,-2.4835,-2.4821,-2.373,-2.3311,0.0,0.0,0.0,0.0,0.0,0.0,0.0,0.0,0.0,0.0,0.0,0.0,0.0,0.0,0.0,-1.1495,-1.1961,-1.2438,-1.2647,-1.2572,-1.255,-1.2639,-1.2781,-1.2937,-1.3215,-1.3222,-1.339,-1.3784,-1.3585,-1.3561,-1.363,-1.3445,-1.323,-1.3014,-1.3014,-1.3014,-1.3014,-1.3014,-1.3135,-1.3446,0.0,0.0,-1.3918,-1.3844,-1.4019,-1.447,-1.4537,-1.4942,-1.5451,-1.5396,-1.521,-1.4923,-1.4433,-1.475,-1.5513,-1.5904,-1.6462,-1.7166,-1.7784,-1.8317,-1.8865,-1.9198,-1.9539,-1.9802,-2.014,-2.027,0.0,-2.054,-2.0604,-2.0604,-2.0604,-2.0604,-2.0604,-2.0604,-2.0604,-2.0582,-2.0482,-2.0135,-1.9935,-2.0091,-2.0141,-2.0262,-2.0493,-1.981,-1.925,-1.9346,-1.9465,-1.9851,-2.0556,-2.0794,-2.1152,-2.1776,-2.1628,-2.1504,-2.1566,-2.1701,-2.1762,-2.1873,-2.2645,-2.3295,-2.3728,-2.4094,-2.4376,-2.456,-2.4667,-2.4778,-2.4892,-2.4948,-2.4948,-2.4948,-2.4705,-2.4652,0.0,0.0,0.0,0.0,0.0,0.0,0.0,0.0,0.0,0.0,0.0,-1.084,0.0,0.0,-1.2343,-1.2468,-1.3021,-1.353,-1.3666,-1.3876,-1.3846,-1.3477,-1.3522,-1.3729,-1.4117,-1.414,-1.4274,-1.4644,-1.4574,-1.4442,-1.4338,-1.4281,-1.4149,-1.4022,-1.4022,-1.4104,-1.4276,-1.4276,-1.4351,-1.4584,-1.4584,-1.4667,-1.4832,-1.4684,-1.4839,-1.5219,-1.5219,-1.552,-1.5964,-1.5937,-1.5906,-1.588,-1.5696,-1.5736,-1.5867,-1.6403,-1.7149,-1.8033,-1.8645,-1.9483,-2.0228,-2.0511,-2.0793,-2.1062,-2.1275,-2.1275,-2.1341,-2.1408,-2.1475,-2.1475,-2.1475,-2.1475,-2.1475,-2.1475,-2.1475,-2.1475,-2.1475,-2.1261,-2.1201,-2.1472,-2.1613,-2.1806,-2.2115,-2.1649,-2.1072,-2.0615,-2.0668,-2.0883,-2.1497,-2.1655,-2.1946,-2.2457,-2.2297,-2.2235,-2.242,-2.2678,-2.2848,-2.2957,-2.3662,-2.4189,-2.4447,-2.4677,-2.4835,-2.4892,-2.4892,-2.4948,-2.5005,-2.5005,-2.5005,-2.5005,-2.5005,-2.5005,0.0,0.0,0.0,0.0,0.0,0.0,0.0,0.0,-1.02,-1.0635,-1.1194,-1.1737,-1.2131,-1.2787,-1.3411,-1.3478,-1.4126,-1.4637,-1.4637,-1.489,-1.4893,-1.4252,-1.422,-1.4471,-1.4982,-1.5007,-1.5103,-1.5375,-1.5383,-1.5265,-1.4977,-1.4912,-1.4828,-1.4803,-1.4811,-1.4949,-1.5227,-1.5227,-1.5258,-1.5319,-1.5319,-1.5358,-1.5498,-1.5427,-1.5654,-1.6036,-1.6113,-1.6305,-1.6538,-1.6614,-1.6733,-1.6834,-1.6968,-1.6672,-1.6368,-1.7067,-1.7906,-1.8831,-1.9583,-2.0519,-2.142,-2.1651,-2.194,-2.2217,-2.2217,-2.2285,-2.2285,-2.2354,-2.2354,-2.2423,-2.2423,-2.2423,-2.2423,-2.2423,-2.2423,-2.2423,-2.2423,-2.248,-2.2605,-2.2809,-2.2956,-2.3226,-2.3549,-2.3494,-2.3155,-2.2185,-2.1973,-2.204,-2.2342,-2.2382,-2.2494,-2.2969,-2.2787,-2.2726,-2.303,-2.333,-2.3616,-2.3897,-2.4292,-2.458,-2.4778,-2.4948,-2.5005,-2.5005,-2.5005,-2.5005,-2.5005,-2.5005,-2.5005,-2.5005,-2.5005,-2.5005,-0.9798,-0.9804,-0.974,-0.9548,-0.9548,-0.9548,0.0,0.0,-1.108,-1.1386,-1.2219,-1.2989,-1.3404,-1.3898,-1.4405,-1.4738,-1.5124,-1.5367,-1.5367,-1.5534,-1.5613,-1.5376,-1.5013,-1.4966,-1.5355,-1.5426,-1.564,-1.6186,-1.613,-1.6045,-1.6145,-1.5943,-1.5739,-1.5618,-1.5541,-1.5557,-1.5597,-1.5597,-1.5755,-1.6071,-1.6071,-1.6389,-1.6855,-1.6611,-1.6782,-1.7195,-1.759,-1.7635,-1.7406,-1.7717,-1.7755,-1.7464,-1.7539,-1.7617,-1.7954,-1.854,-1.9305,-2.0083,-2.0843,-2.1446,-2.186,-2.2079,-2.2148,-2.2217,-2.2343,-2.2469,-2.2685,-2.2889,-2.3036,-2.3171,-2.3171,-2.3171,-2.3171,-2.3171,-2.3171,-2.3171,-2.3171,-2.3171,-2.3238,-2.3349,-2.3427,-2.3549,-2.3881,-2.3947,-2.3779,-2.334,-2.2924,-2.2679,-2.3062,-2.2898,-2.303,-2.345,-2.339,-2.333,-2.3509,-2.3649,-2.3872,-2.4234,-2.4408,-2.458,-2.4778,-2.4948,-2.5005,-2.5005,-2.5005,-2.5005,-2.5005,-2.5005,-2.5005,-2.5005,-2.5005,-2.5005,-0.9926,-0.9926,-0.9899,-0.9931,-0.9968,-1.0208,-1.0505,-1.1156,-1.1773,-1.2365,-1.3171,-1.3834,-1.425,-1.4819,-1.5415,0.0,-1.6279,-1.6607,-1.6679,-1.667,-1.6661,-1.65,-1.6254,-1.6044,-1.5991,-1.6061,-1.6351,-1.6964,-1.6855,-1.6793,-1.7026,-1.691,-1.6784,-1.6754,-1.6763,-1.6863,-1.7,-1.7009,-1.7083,-1.7241,-1.7241,-1.7315,-1.7456,-1.7294,-1.7465,-1.7797,-1.8112,-1.8186,-1.8206,-1.8364,-1.8433,-1.8437,-1.8652,-1.9105,-1.9497,-1.9296,-1.9862,-2.0897,-2.1618,-2.2375,-2.3071,-2.3285,-2.3427,-2.3569,-2.371,-2.3851,-2.3933,-2.4003,-2.4073,-2.4143,-2.4143,-2.4143,-2.4143,-2.4143,-2.4143,-2.4143,-2.4143,-2.4143,-2.4213,-2.4398,-2.4525,-2.4662,-2.5018,-2.5098,-2.5154,-2.5197,-2.4286,-2.364,-2.3652,-2.3642,-2.3733,-2.3878,-2.3897,-2.3956,-2.4015,-2.4105,-2.4337,-2.4593,-2.4708,-2.4821,-2.4892,-2.4948,-2.5005,-2.5005,-2.5005,-2.5168,-2.552,-2.552,-2.5697,-2.6063,-2.6063,-2.6063,-1.011,-1.0168,-1.0212,-1.029,-1.0463,-1.0834,-1.1308,-1.1888,-1.2628,-1.3315,-1.4082,-1.4763,-1.511,-1.5678,-1.6342,-1.7,-1.7251,-1.75,-1.7763,-1.7679,-1.7572,-1.747,-1.7432,-1.7285,-1.7028,-1.6959,-1.7232,-1.7975,-1.7805,-1.7742,-1.8091,-1.7908,-1.781,-1.7848,-1.7856,-1.7907,-1.8184,-1.8264,-1.8264,-1.8264,-1.8264,-1.8264,-1.8175,-1.8175,-1.8184,-1.8273,-1.8603,-1.8843,-1.894,-1.9091,-1.924,-1.939,-1.9844,-2.0391,-2.0787,-2.042,-2.0989,-2.202,-2.2889,-2.3767,-2.4517,-2.4599,-2.4699,-2.4833,-2.4765,-2.4861,-2.4861,-2.4861,-2.4921,-2.4921,-2.4921,-2.4921,-2.4921,-2.4921,-2.4921,-2.4921,-2.4921,-2.4921,-2.4992,-2.5194,-2.5394,-2.5606,-2.5955,-2.6107,-2.6302,-2.6633,-2.5829,-2.5059,-2.4646,-2.4579,-2.446,-2.4255,-2.4421,-2.4465,-2.4421,-2.458,-2.4708,-2.4835,-2.4948,-2.5005,-2.5005,-2.5005,-2.5005,-2.5005,-2.5005,-2.5303,-2.5887,-2.5887,-2.6212,-2.6823,-2.6823,-2.6823,-1.0301,-1.0503,-1.0652,-1.0533,-1.0812,-1.1348,-1.188,-1.2677,-1.3538,-1.4292,-1.5158,-1.585,-1.6193,-1.6621,-1.7107,-1.7939,-1.7865,-1.7938,-1.8555,-1.8409,-1.8212,-1.8182,-1.8529,-1.8741,0.0,-1.8046,-1.8191,-1.9315,-1.8956,-1.8948,-1.9524,-1.9195,-1.8886,-1.8638,-1.8647,-1.8647,-1.8656,-1.8886,-1.8957,-1.8957,-1.8957,-1.9054,-1.9222,-1.9222,-1.9143,-1.9002,-1.9399,-1.9566,-1.9645,-2.0029,-2.0264,-2.0342,-2.0934,-2.1308,-2.1603,-2.2553,-2.323,-2.3886,-2.4968,-2.5624,-2.596,-2.5632,-2.5542,-2.5448,-2.4954,-2.4921,-2.5123,-2.5123,-2.5182,-2.5312,-2.5312,-2.5312,-2.5312,-2.5312,-2.5312,-2.5312,-2.5312,-2.5312,-2.5312,-2.5535,-2.5758,-2.5968,-2.6358,-2.6701,-2.704,-2.7268,-2.7364,-2.7076,-2.627,-2.5677,-2.5175,-2.4616,-2.4835,-2.4948,-2.4778,-2.4892,-2.5005,-2.5005,-2.5005,-2.5005,-2.5005,-2.5005,-2.5005,-2.5005,-2.5005,-2.5303,-2.5887,-2.5887,-2.6212,-2.6823,-2.6823,-2.6823,-1.073,-1.085,-1.0956,-1.1339,-1.172,-1.2199,-1.2877,-1.3719,-1.4521,-1.5031,-1.5756,-1.6412,-1.6621,-1.7097,-1.7712,-1.8484,-1.8715,-1.8943,-1.9292,-1.9259,-1.9124,-1.8972,-1.9075,0.0,0.0,0.0,0.0,-1.9992,-1.9775,-2.0018,-2.0827,-2.0624,-2.0469,-2.0382,-2.0382,-2.0382,-2.0382,-2.0459,-2.045,-2.0459,-2.0138,-1.9991,-2.0079,-1.9923,-1.9923,-2.0001,-2.0313,-2.0469,-2.0702,-2.1011,-2.1165,-2.1395,-2.1983,-2.2371,-2.2799,-2.3854,-2.4755,-2.5482,-2.5396,-2.5721,-2.6206,-2.6269,-2.6285,-2.6249,-2.6232,-2.6246,-2.632,-2.632,-2.632,-2.6298,-2.5925,-2.5829,-2.5745,-2.5396,-2.5648,-2.6057,-2.6057,-2.6565,-2.704,-2.7232,-2.765,-2.7889,-2.7726,-2.8085,-2.8224,-2.8027,-2.7459,-2.7026,-2.6855,-2.6445,-2.6028,-2.554,-2.553,-2.5439,-2.4989,-2.4948,-2.5005,-2.5005,-2.5005,-2.5005,-2.5005,-2.5385,-2.5602,-2.5602,-2.5995,-2.6511,-2.7094,-2.7094,-2.7406,-2.799,-2.799,-2.799,-1.1008,-1.1149,-1.1464,-1.1988,-1.2522,-1.3085,-1.3852,-1.4609,-1.5338,-1.5771,-1.6403,-1.695,-1.7235,-1.7716,-1.8398,-1.9251,-1.9466,-1.9687,-2.0139,-2.0001,-1.9857,-1.9779,-1.9897,-2.0126,0.0,0.0,0.0,-2.0673,-2.0648,-2.0927,-2.169,-2.1482,-2.1405,-2.1405,-2.1405,-2.1405,-2.1405,-2.1482,-2.1558,-2.1558,-2.1242,-2.1001,-2.0924,-2.0934,-2.0934,-2.1068,-2.1385,-2.1548,-2.1776,-2.2004,-2.2231,-2.2371,-2.2968,-2.3361,-2.3711,-2.4607,-2.5608,-2.6358,-2.6141,-2.6512,-2.7032,-2.6816,-2.6697,-2.6625,-2.6392,-2.6358,-2.6358,-2.6358,-2.6358,-2.6274,-2.5985,-2.5889,-2.5876,-2.5608,-2.5944,-2.638,-2.6635,-2.7329,-2.799,-2.8456,-2.8983,-2.9346,-2.9141,-2.9443,-2.9592,-2.9252,-2.8552,-2.7846,-2.7444,-2.718,-2.683,-2.6294,-2.6226,-2.5982,-2.5371,-2.552,-2.5561,-2.5344,-2.5534,-2.5656,-2.5656,-2.6022,-2.6226,-2.6226,-2.6619,-2.7121,-2.7705,-2.7705,-2.8017,-2.8587,-2.8587,-2.8587,-1.1095,-1.1443,-1.2019,-1.2466,-1.305,-1.3775,-1.476,-1.5401,-1.5974,-1.6533,-1.7088,-1.7579,0.0,0.0,-1.9153,-2.0133,-2.0103,-2.0227,-2.0974,-2.0545,-2.0324,0.0,0.0,0.0,0.0,0.0,0.0,-2.1485,0.0,-2.1681,-2.2155,-2.1959,-2.1883,-2.1883,-2.1883,-2.1883,-2.1883,-2.2035,-2.2176,-2.2176,-2.2176,-2.209,-2.1918,-2.209,-2.2166,-2.2209,-2.2617,-2.2777,-2.2777,-2.3224,-2.3372,-2.3446,-2.4043,-2.4261,-2.4345,-2.4909,-2.5694,-2.6645,-2.7145,-2.7837,-2.8306,-2.7296,-2.6959,-2.6743,-2.5709,-2.5396,-2.5384,-2.5384,-2.5396,-2.5455,-2.5654,-2.5654,-2.5712,-2.591,-2.6119,-2.6477,-2.7188,-2.7704,-2.833,-2.9188,-2.9827,-3.0283,-3.0446,-3.0813,-3.1029,-3.0962,-3.0477,-2.9559,-2.8012,-2.7871,-2.7673,-2.6932,-2.6864,-2.6619,-2.5995,-2.6484,-2.6579,-2.5968,-2.6497,-2.6823,-2.6823,-2.685,-2.6877,-2.6877,-2.6904,-2.7189,-2.7759,-2.7759,-2.8044,-2.8587,-2.8587,-2.8587,-1.1592,-1.1898,-1.2281,-1.3093,-1.3643,-1.4338,-1.5338,-1.6123,-1.676,-1.7295,-1.7833,-1.8307,0.0,0.0,0.0,-2.0084,-2.0325,0.0,-2.0891,-2.0918,0.0,-2.1521,0.0,-2.2108,-2.2544,-2.3063,0.0,0.0,-2.255,-2.2415,-2.2745,-2.2703,-2.2703,-2.2703,-2.2703,-2.2703,-2.2703,-2.2927,-2.3001,-2.3001,-2.3001,-2.3001,-2.2916,-2.315,-2.3224,-2.3213,-2.3666,-2.3824,-2.3824,-2.4116,-2.4189,-2.4273,-2.4694,-2.4838,-2.4897,-2.5182,-2.5661,-2.6248,-2.654,-2.7215,-2.7885,-2.7609,-2.7324,-2.7087,-2.6809,-2.6797,-2.6956,-2.6956,-2.7029,-2.7089,-2.6695,-2.6856,-2.6954,-2.6553,-2.7156,-2.7821,-2.8032,-2.9236,-3.0341,-3.024,-3.0799,-3.1349,-3.1561,-3.1707,-3.1707,-3.1707,-3.1448,-3.0793,-2.9573,-2.8949,-2.8302,-2.7701,-2.7523,-2.7244,-2.6633,-2.6728,-2.6755,-2.6592,-2.6742,-2.6823,-2.6823,-2.7244,-2.7488,-2.7488,-2.7908,-2.822,-2.837,-2.837,-2.8451,-2.8587,-2.8716,-2.8716,-1.1988,-1.225,-1.2683,-1.3585,-1.4201,-1.4982,-1.5903,-1.6811,-1.7579,-1.8046,-1.8654,-1.9187,-1.9518,-1.9736,-2.0064,0.0,0.0,0.0,-2.1285,-2.1661,-2.1958,0.0,-2.2881,0.0,-2.3756,-2.4267,-2.4518,0.0,-2.3741,-2.3374,-2.3508,-2.353,-2.353,-2.353,-2.353,-2.3446,-2.3372,-2.3446,-2.3446,-2.3446,-2.3519,-2.3593,-2.3666,-2.3897,-2.4043,-2.4116,0.0,-2.4622,-2.4622,-2.4766,-2.4909,-2.4981,-2.5265,-2.5407,-2.5477,-2.5535,-2.5875,-2.6408,-2.6481,-2.6809,-2.7245,-2.7245,-2.7113,-2.6968,-2.6724,-2.6795,-2.6939,-2.7011,-2.7167,-2.7318,-2.7272,-2.7378,-2.7426,-2.732,-2.7812,-2.8492,-2.8825,-2.9957,-3.0977,-3.123,-3.1627,-3.2068,-3.2471,-3.2528,-3.2629,-3.2782,-3.2502,-3.199,-3.1254,-3.0405,-2.9587,-2.8903,-2.8721,-2.8392,-2.7469,-2.7633,-2.7673,-2.7414,-2.7584,-2.7659,-2.7659,-2.7922,-2.8085,-2.8085,-2.8424,-2.8587,-2.8587,-2.8587,-2.8587,-2.8587,-2.8716,-2.878,-1.2416,-1.2697,-1.3258,-1.3985,-1.4768,-1.5551,-1.6533,-1.756,-1.8385,-1.8865,-1.9539,-2.0053,-2.0237,-2.0442,-2.0722,-2.1221,0.0,-2.1639,-2.1987,-2.2543,-2.3007,-2.3283,-2.4237,-2.4939,-2.5136,-2.5522,-2.5734,-2.5581,-2.4957,-2.4478,-2.4334,-2.4334,-2.4334,-2.4334,-2.4334,-2.4189,-2.4032,-2.3886,-2.3813,-2.3813,-2.3959,-2.4189,-2.4334,-2.4562,-2.4706,-2.4861,-2.5052,-2.5111,-2.5111,-2.5241,-2.5453,-2.5606,-2.5676,-2.5828,-2.5968,-2.5968,-2.6263,-2.667,-2.667,-2.6742,-2.6754,-2.6756,-2.666,-2.6584,-2.6186,-2.6164,-2.6371,-2.6564,-2.6701,-2.6973,-2.7484,-2.7683,-2.7815,-2.8091,-2.8417,-2.8876,-2.9591,-3.0104,-3.0779,-3.1854,-3.2112,-3.2285,-3.2897,-3.3071,-3.3293,-3.3736,-3.335,-3.2954,-3.2851,-3.1893,-3.094,-3.0131,-2.9997,-2.9541,-2.8422,-2.8795,-2.8878,-2.8353,-2.862,-2.878,-2.878,-2.8651,-2.8587,-2.8587,-2.8587,-2.8587,-2.8587,-2.8587,-2.8587,-2.8587,-2.878,-2.8844,-1.3194,-1.3585,-1.4057,-1.4625,-1.5338,-1.6184,-1.7295,-1.8124,0.0,0.0,-2.0313,-2.0828,-2.1135,-2.1313,-2.1502,-2.1765,-2.2002,-2.2322,-2.2665,-2.3492,-2.4255,0.0,-2.5665,-2.6319,-2.6755,-2.6896,0.0,0.0,-2.662,-2.6,-2.4945,-2.4874,-2.4874,-2.4874,-2.4874,-2.4731,-2.4576,-2.4719,-2.4731,-2.4731,-2.4945,-2.5099,-2.5099,-2.517,-2.517,-2.5241,-2.5241,0.0,-2.5312,-2.5465,-2.5688,-2.5828,-2.6025,-2.6151,-2.6289,-2.6289,-2.6352,-2.6496,-2.6647,-2.6784,-2.6929,-2.693,-2.6685,-2.6483,-2.6726,-2.6985,-2.7188,-2.7443,-2.7643,-2.7829,-2.8222,-2.8546,-2.8894,-2.9058,-2.931,-2.9588,-2.9749,-3.004,-3.061,-3.143,-3.1623,-3.1666,-3.1768,-3.2246,-3.284,-3.3477,-3.333,-3.3312,-3.3762,-3.2482,-3.1138,-3.0327,-3.0127,-2.9707,-2.9002,-2.9044,-2.9058,-2.8947,-2.8853,-2.878,-2.878,-2.8651,-2.8587,-2.8587,-2.8587,-2.8587,-2.8587,-2.8587,-2.8587,-2.8587,-2.8908,-2.9035,-1.3875,-1.4137,-1.4489,-1.5062,-1.5833,-1.6733,-1.7696,0.0,0.0,-2.0484,-2.1146,-2.1663,-2.1939,-2.2175,0.0,-2.2592,-2.2847,-2.31,-2.3352,-2.4359,-2.52,-2.5521,-2.6518,-2.7288,0.0,-2.7497,-2.7497,-2.7497,-2.7377,-2.6905,-2.6057,-2.6057,-2.6057,-2.6057,-2.5918,-2.5836,-2.5755,-2.5627,-2.5557,-2.5557,-2.5721,-2.5734,-2.5804,-2.5861,-2.5861,-2.5861,-2.5861,-2.5861,-2.5861,-2.6094,-2.6302,-2.6508,-2.6756,-2.696,-2.7175,-2.7229,-2.7229,-2.7229,-2.731,-2.7443,-2.7549,-2.7634,-2.7462,-2.7162,-2.7377,-2.7577,-2.7908,-2.8222,-2.8698,-2.9138,-2.9605,-3.0113,-3.0474,-3.0277,-3.0125,-3.0068,-3.019,-3.0326,-3.0594,-3.0959,-3.1032,-3.1134,-3.1467,-3.1787,-3.2222,-3.2875,-3.2912,-3.2883,-3.3105,-3.2354,-3.1659,-3.1231,-3.1073,-3.0693,-2.9687,-2.9526,-2.9449,-2.9449,-2.9212,-2.9099,-2.9099,-2.8844,-2.8716,-2.8716,-2.8651,-2.8587,-2.8587,-2.8587,-2.8587,-2.8587,-2.8908,-2.9099,-1.4601,-1.4776,-1.507,-1.5638,-1.6394,-1.7285,-1.8172,-1.9299,0.0,-2.1123,-2.1851,-2.2482,-2.2738,-2.298,-2.322,0.0,-2.3623,-2.3813,-2.3917,-2.5127,-2.5949,0.0,-2.7154,0.0,-2.7987,-2.7987,0.0,-2.7987,-2.7789,-2.759,-2.7175,-2.7242,-2.7242,-2.7175,-2.7027,-2.6879,-2.6879,-2.6539,-2.6402,-2.6402,-2.6414,-2.6496,-2.6496,-2.6552,-2.6552,-2.6552,-2.6552,-2.6552,0.0,-2.6837,-2.704,-2.7229,-2.755,-2.7829,-2.8039,-2.817,-2.8235,-2.8235,-2.8235,-2.8235,-2.8287,-2.8481,-2.8287,-2.7973,-2.8039,-2.8381,-2.8814,-2.9123,-2.9822,-3.049,-3.097,-3.1482,-3.176,-3.1323,-3.0801,-3.0387,-3.0568,-3.0568,-3.0568,-3.0568,-3.0568,-3.0727,-3.1235,-3.1322,-3.154,-3.2208,-3.2309,-3.2289,-3.2306,-3.2256,-3.2198,-3.1911,-3.1847,-3.1325,-3.0211,-2.9974,-2.9822,-2.9808,-2.9588,-2.9415,-2.9415,-2.9099,-2.8894,-2.8894,-2.883,-2.8766,-2.8766,-2.8766,-2.8766,-2.8844,-2.9085,-2.9275,-1.5607,-1.5842,-1.6061,-1.6403,-1.7088,-1.7842,-1.8798,0.0,-2.0782,-2.1628,-2.2445,-2.3138,-2.3437,-2.378,-2.4002,-2.4002,0.0,-2.4292,-2.4394,-2.5621,-2.658,-2.6702,0.0,0.0,-2.8522,-2.8522,-2.8522,-2.8522,-2.8522,-2.8249,-2.7776,-2.7868,-2.7934,-2.7709,-2.7709,-2.7577,-2.7456,-2.739,-2.739,-2.739,-2.739,-2.739,-2.739,-2.7229,-2.7162,-2.7162,-2.7162,-2.7162,0.0,-2.751,-2.7762,-2.792,-2.8274,-2.8532,-2.8739,-2.8958,-2.9035,-2.9035,-2.9035,-2.9071,-2.917,-2.917,-2.8853,-2.8481,-2.8894,-2.9536,-3.0174,-3.0495,-3.1075,-3.1687,-3.2091,-3.2213,-3.2147,-3.1608,-3.1032,-3.0568,-3.0568,-3.0568,-3.0568,-3.0568,-3.0568,-3.0597,-3.064,-3.0655,-3.0872,-3.1511,-3.1613,-3.183,-3.2376,-3.2449,-3.2217,-3.1608,-3.1252,-3.0791,-3.0183,-3.0111,-2.9974,-2.9808,-2.9651,-2.9602,-2.9602,-2.9387,-2.9247,-2.9247,-2.9247,-2.9247,-2.9247,-2.9247,-2.9324,-2.9477,-2.9637,-2.9747,-1.5943,-1.6156,-1.6542,-1.6959,-1.7696,-1.8633,-1.9628,0.0,-2.1616,-2.2445,-2.3125,-2.3662,-2.4073,-2.4363,-2.4536,0.0,0.0,0.0,-2.4878,-2.5724,-2.6521,-2.7023,-2.7742,0.0,0.0,0.0,-2.878,-2.8908,-2.8908,-2.8844,-2.8573,-2.8457,-2.8327,-2.8249,-2.8249,-2.8249,-2.8197,-2.8039,-2.8039,-2.8197,-2.8039,-2.8039,-2.8197,-2.8052,-2.8105,-2.8143,-2.8143,-2.8222,0.0,-2.861,-2.8725,-2.8839,-2.917,-2.931,-2.9435,-2.9665,-2.9679,-2.9679,-2.9679,-2.9727,-2.9775,-2.9775,-2.9699,-2.9631,-3.0038,-3.0461,-3.0935,-3.1511,-3.2133,-3.2672,-3.2963,-3.3014,-3.2956,-3.2745,-3.2208,-3.1627,-3.1235,-3.1134,-3.1032,-3.064,-3.0568,-3.0568,-3.0568,-3.0568,-3.0655,-3.0916,-3.0945,-3.1047,-3.1308,-3.1351,-3.1311,-3.111,-3.1232,-3.1079,-3.0459,-3.0401,-3.0401,-3.0266,-3.0205,-3.0205,-3.0205,-3.0007,-2.987,-2.987,-2.9808,-2.9808,-2.9808,-2.9808,-2.9822,-2.9884,-3.0068,-3.0129,-1.642,-1.6689,-1.7067,-1.7745,-1.8566,-1.9486,0.0,0.0,-2.2433,-2.3173,-2.3649,-2.4131,-2.4523,-2.4765,-2.4948,0.0,0.0,-2.5188,-2.53,-2.6015,-2.672,-2.7248,0.0,-2.8491,0.0,-2.9022,-2.9022,-2.9226,-2.9226,-2.9289,-2.9275,-2.9085,-2.883,-2.8651,-2.8716,-2.8716,-2.8651,-2.8573,-2.8638,-2.8716,-2.8638,-2.8638,-2.8716,-2.8766,-2.8881,-2.8917,-2.9044,-2.9198,0.0,-2.9449,-2.9512,-2.956,-2.9822,-2.9931,-2.9993,-3.0158,-3.0233,-3.0233,-3.0233,-3.0233,-3.0233,-3.0233,-3.0341,-3.047,-3.1131,-3.1389,-3.1645,-3.2421,-3.3122,-3.3599,-3.3746,-3.3601,-3.347,-3.347,-3.2832,-3.2092,-3.1613,-3.1366,-3.1105,-3.0655,-3.0568,-3.0568,-3.0568,-3.0568,-3.0628,-3.0642,-3.0642,-3.0702,-3.0762,-3.0762,-3.0821,-3.094,-3.1216,-3.1243,-3.0805,-3.0747,-3.0807,-3.0747,-3.0807,-3.0866,-3.0866,-3.0777,-3.0718,-3.0718,-3.0584,-3.0584,-3.0584,-3.0584,-3.0584,-3.0644,-3.0718,-3.0777,-1.7293,-1.753,-1.778,-1.8731,-1.9617,-2.0515,0.0,0.0,-2.3207,-2.3682,-2.4163,-2.458,-2.4778,-2.5005,-2.5174,-2.5174,0.0,0.0,-2.5494,-2.6618,-2.744,0.0,0.0,-2.9247,-2.9099,-2.9198,-2.9387,-2.9602,-2.9602,0.0,-2.9808,-2.9808,-2.9512,-2.8844,-2.8972,-2.8972,-2.878,-2.8972,-2.9099,-2.9099,-2.9099,-2.9099,-2.9099,-2.9261,-2.931,-2.931,-2.9623,-2.9808,0.0,-3.0036,-3.0111,-3.0111,-3.0266,-3.0312,-3.0312,-3.0507,-3.0568,-3.0568,-3.0568,-3.0568,-3.0568,-3.0568,-3.0568,-3.0814,-3.2121,-3.2513,-3.2643,-3.3282,-3.392,-3.4399,-3.4399,-3.3935,-3.347,-3.347,-3.2469,-3.1526,-3.1526,-3.1032,-3.0582,-3.0568,-3.0568,-3.0568,-3.0568,-3.0568,-3.0642,-3.0762,-3.0821,-3.0895,-3.1087,-3.1087,-3.1132,-3.1292,-3.1292,-3.1249,-3.1087,-3.1234,-3.1219,-3.1029,-3.1306,-3.148,-3.148,-3.1637,-3.1694,-3.1694,-3.1679,-3.1679,-3.1679,-3.1679,-3.1751,-3.1879,-3.1879,-3.1879,-1.7236,-1.7947,-1.8765,-1.9391,-2.0574,-2.1729,-2.247,0.0,-2.3884,-2.4221,-2.4523,-2.4765,-2.5005,-2.5244,-2.5425,-2.5508,-2.5688,0.0,0.0,0.0,0.0,-2.7866,-2.9086,-2.9837,0.0,0.0,-3.0115,-3.0433,-3.0418,-3.0539,-3.0748,-3.0658,-3.0297,-2.9512,-2.9574,-2.9512,-2.9352,-2.9512,-2.9574,-2.9574,-2.9699,-2.9775,-2.9803,-2.9884,-3.0068,0.0,-3.0312,-3.0387,0.0,-3.0462,-3.0462,-3.0462,-3.0507,-3.0507,-3.0507,-3.0568,-3.0568,-3.0568,-3.0568,-3.0568,-3.0568,-3.0568,-3.0568,-3.0727,-3.1584,-3.215,-3.2745,-3.3819,-3.4254,-3.4414,-3.4414,-3.4269,-3.4124,-3.4124,-3.347,-3.273,-3.2295,-3.1685,-3.109,-3.0655,-3.0702,-3.0762,-3.0762,-3.0821,-3.1014,-3.1117,-3.1176,-3.1234,-3.1336,-3.1452,-3.1582,-3.1754,-3.1853,-3.1796,-3.1509,-3.1697,-3.1811,-3.1853,-3.2007,-3.212,-3.212,-3.216,-3.216,-3.216,-3.216,-3.216,-3.216,-3.216,-3.2216,-3.2216,-3.2216,-3.2216,0.0,-1.8537,-1.9441,-2.0266,-2.1416,0.0,0.0,0.0,0.0,-2.4637,-2.4821,-2.5005,-2.5244,-2.5536,-2.5743,-2.5879,-2.6042,-2.615,0.0,0.0,0.0,-2.9045,0.0,0.0,0.0,-3.0553,-3.0792,-3.1131,-3.119,-3.1306,-3.158,-3.148,-3.1248,-3.0703,-3.0404,-3.0176,-3.0068,-3.019,-3.0237,-3.0237,-3.0358,-3.0372,-3.0387,-3.0493,-3.0613,-3.0747,-3.0807,0.0,0.0,-3.0821,-3.0762,-3.0762,-3.0762,-3.0762,-3.0762,-3.0762,-3.0762,-3.0762,-3.0762,-3.0762,-3.0762,-3.0762,-3.0922,-3.1125,-3.1395,-3.215,-3.3093,-3.4124,-3.4414,-3.4414,-3.4414,-3.4414,-3.4414,-3.4414,-3.3746,-3.3006,-3.2649,-3.1864,-3.1168,-3.0849,-3.0881,-3.0999,-3.0999,-3.1176,-3.1351,-3.1524,-3.1625,-3.1682,-3.1823,-3.1894,-3.2007,-3.2191,-3.2287,-3.2342,-3.2247,-3.2247,-3.2247,-3.2342,-3.2578,-3.2687,-3.2687,-3.2687,-3.2726,-3.2726,-3.2726,-3.2726,-3.2726,-3.2726,-3.2726,-3.2726,-3.2726,-3.2726,0.0,-1.9333,-1.9909,-2.1391,-2.2304,-2.3109,0.0,0.0,0.0,0.0,0.0,-2.523,-2.5494,-2.5853,-2.615,-2.6297,-2.6457,-2.651,0.0,-2.7799,0.0,0.0,-3.0747,0.0,-3.1029,-3.1278,-3.1452,-3.1724,-3.1879,-3.2048,-3.2247,-3.2247,-3.2247,-3.2247,-3.1552,-3.1073,-3.0896,-3.1029,-3.1087,-3.1073,-3.0955,-3.0896,-3.0896,-3.1014,-3.1087,0.0,-3.1278,0.0,0.0,-3.119,-3.1146,-3.1132,-3.1132,-3.1132,-3.1132,-3.1132,-3.1132,-3.1132,-3.1132,-3.1132,-3.1132,-3.1132,-3.1411,-3.1728,-3.1573,-3.244,-3.3601,-3.4182,-3.4385,-3.4414,-3.4414,-3.4414,-3.4414,-3.4414,-3.347,-3.2634,-3.2689,-3.1757,-3.0939,-3.1087,-3.1234,-3.1336,-3.1336,-3.1567,-3.1796,-3.1981,-3.215,-3.2302,-3.2398,-3.2453,-3.2508,-3.2602,-3.2641,-3.278,-3.3096,-3.285,-3.2656,-3.2656,-3.2958,-3.3096,-3.3096,-3.3256,-3.3309,-3.3309,-3.3309,-3.3309,-3.3309,-3.3309,-3.3309,-3.3309,-3.3309,-3.3309,-2.0053,0.0,-2.133,-2.1929,-2.3085,-2.4178,0.0,0.0,0.0,0.0,0.0,0.0,0.0,0.0,-2.6297,-2.6457,-2.6698,-2.6832,-2.6712,0.0,0.0,-3.1287,-3.1452,-3.1509,-3.1754,-3.191,-3.212,-3.2382,-3.2437,-3.2563,-3.2866,-3.2773,-3.2773,-3.2881,-3.2609,-3.2191,-3.1652,-3.1838,-3.1838,-3.1709,-3.1823,-3.1781,-3.1652,-3.1838,-3.191,-3.191,0.0,0.0,-3.1811,-3.164,-3.1509,-3.1379,-3.1379,-3.1379,-3.1379,-3.1379,-3.1379,-3.1379,-3.1379,-3.1379,-3.1394,-3.1292,-3.1338,-3.1486,-3.1762,-3.263,-3.3499,-3.3645,-3.4037,-3.4414,-3.4414,-3.4414,-3.4414,-3.4563,-3.4003,-3.3337,-3.3155,-3.2478,-3.1886,-3.1614,-3.1697,-3.1868,-3.1966,-3.2135,-3.2287,-3.2437,-3.2492,-3.2563,-3.2773,-3.2881,-3.292,-3.2973,-3.3081,-3.3187,-3.3256,-3.3081,-3.3027,-3.3134,-3.3187,-3.3256,-3.3256,-3.3309,-3.3309,-3.3309,-3.3309,-3.3309,-3.3309,-3.3309,-3.3309,-3.3309,-3.3309,-3.3309,-2.0623,-2.1225,-2.1914,-2.2457,-2.3457,-2.4428,0.0,0.0,0.0,0.0,0.0,0.0,0.0,0.0,0.0,0.0,-2.6974,0.0,0.0,0.0,-3.0028,-3.1743,-3.1951,-3.2064,0.0,0.0,-3.2594,-3.278,-3.2904,-3.3011,-3.3203,-3.3096,-3.3096,-3.3203,-3.3096,-3.2866,-3.2358,-3.2484,-3.2484,-3.2358,-3.2398,-3.2327,-3.2201,-3.2327,-3.2398,-3.2398,0.0,0.0,-3.2231,-3.2064,-3.2007,-3.1879,-3.1879,-3.1879,-3.1879,-3.1879,-3.1879,-3.1879,-3.1879,-3.1879,-3.1879,-3.1739,-3.1682,-3.1642,-3.1826,-3.2404,-3.3088,-3.3206,-3.3527,-3.3798,-3.4156,-3.4244,-3.4317,-3.4824,-3.4514,-3.4051,-3.4008,-3.3592,-3.3049,-3.2631,-3.2665,-3.2686,-3.2459,-3.2578,-3.2742,-3.2796,-3.2888,-3.2958,-3.3043,-3.315,-3.3203,-3.3203,-3.3256,-3.3309,-3.3309,-3.3256,-3.3203,-3.3309,-3.3309,-3.3309,-3.3309,-3.3309,-3.3309,-3.3309,-3.3309,-3.3309,-3.3309,-3.3309,-3.3309,-3.3309,-3.3309,-3.3309,-2.0983,-2.1526,-2.2268,-2.2869,-2.3622,-2.4381,0.0,0.0,0.0,0.0,0.0,0.0,0.0,-2.6568,0.0,0.0,0.0,0.0,-2.9507,-2.9909,-3.0585,-3.2109,-3.2413,0.0,-3.2656,-3.2866,-3.3005,-3.3096,-3.3256,-3.3309,-3.3309,-3.3309,-3.3309,-3.3309,-3.3309,-3.3203,-3.2951,-3.2951,-3.2951,-3.2951,-3.2796,-3.2711,-3.2711,-3.2711,-3.2711,-3.2711,0.0,0.0,-3.2656,-3.2563,-3.2508,-3.2453,-3.2453,-3.2453,-3.2453,-3.2453,-3.2453,-3.2453,-3.2453,-3.2453,-3.2453,-3.2302,-3.2191,-3.2038,-3.1838,-3.2131,-3.2526,-3.2853,-3.3028,-3.3277,-3.3991,-3.4154,-3.4317,-3.518,-3.504,-3.4844,-3.5064,-3.4774,-3.4309,-3.3712,-3.3671,-3.355,-3.2835,-3.2958,-3.315,-3.315,-3.3203,-3.3309,-3.3309,-3.3309,-3.3309,-3.3309,-3.3309,-3.3309,-3.3309,-3.3309,-3.3309,-3.3309,-3.3309,-3.3309,-3.3309,-3.3309,-3.3309,-3.3309,-3.3309,-3.3309,-3.3309,-3.3309,-3.3309,-3.3309,-3.3309,-3.3309,-2.118,-2.2086,-2.3014,-2.3162,-2.4001,-2.4896,-2.4991,0.0,0.0,0.0,0.0,0.0,0.0,-2.65,-2.6832,0.0,0.0,-2.8704,0.0,0.0,-3.1536,-3.268,0.0,-3.2989,-3.3043,-3.3134,-3.3256,-3.3256,-3.3309,-3.3309,-3.3309,-3.3309,-3.3309,-3.3309,-3.3309,-3.3309,-3.3256,-3.3256,-3.3256,-3.3256,-3.3187,-3.3187,-3.3187,-3.3187,-3.3187,-3.3187,0.0,-3.3134,-3.3043,-3.2989,-3.2935,-3.2843,-3.2843,-3.2843,-3.2843,-3.2843,-3.2843,-3.2843,-3.2843,-3.2843,-3.2773,-3.2617,-3.2547,-3.2492,-3.2342,-3.2364,-3.2415,-3.2451,-3.3001,-3.3727,-3.4559,-3.474,-3.4969,-3.5854,-3.6009,-3.5905,-3.5644,-3.5564,-3.5158,-3.417,-3.403,-3.3881,-3.3297,-3.3256,-3.3256,-3.3256,-3.3309,-3.3309,-3.3309,-3.3309,-3.3309,-3.3309,-3.3309,-3.3309,-3.3309,-3.3309,-3.3309,-3.3309,-3.3309,-3.3309,-3.3309,-3.3309,-3.3309,-3.3309,-3.3309,-3.3309,-3.3309,-3.3309,-3.3309,-3.3309,-3.3309,-3.3309,-2.1718,-2.2498,-2.327,-2.3581,-2.4367,-2.5005,-2.5005,0.0,0.0,0.0,0.0,0.0,0.0,0.0,-2.6989,-2.7284,0.0,-2.9137,-3.0289,-3.1124,-3.198,0.0,0.0,-3.3203,-3.3203,-3.324,-3.3309,-3.3309,-3.3309,-3.3309,-3.3309,-3.3309,-3.3309,-3.3309,-3.3309,-3.3309,-3.3309,-3.3309,-3.3309,-3.3309,-3.3309,-3.3309,-3.3309,-3.3309,-3.3309,-3.3309,0.0,-3.3256,-3.3203,-3.3203,-3.315,-3.3112,-3.3112,-3.3112,-3.3112,-3.3112,-3.3112,-3.3112,-3.3112,-3.3112,-3.3096,-3.3011,-3.2958,-3.285,-3.2812,-3.2757,-3.2703,-3.2757,-3.2844,-3.313,-3.3918,-3.4361,-3.4865,-3.5753,-3.6261,-3.6585,-3.6562,-3.662,-3.6272,-3.5061,-3.4778,-3.4502,-3.3588,-3.3398,-3.345,-3.3503,-3.3503,-3.3503,-3.3503,-3.3503,-3.3503,-3.3503,-3.3503,-3.3503,-3.3503,-3.3503,-3.345,-3.3309,-3.3309,-3.3309,-3.3309,-3.3309,-3.3309,-3.3309,-3.3309,-3.3309,-3.3309,-3.3309,-3.3309,-3.3309,-3.3309,-3.3309,-2.2169,-2.2861,-2.35,-2.4001,0.0,-2.5005,-2.5061,0.0,0.0,0.0,0.0,0.0,0.0,-2.6803,0.0,-2.774,-2.8657,-2.9628,-3.0576,-3.1592,-3.2431,-3.3087,-3.3256,-3.3309,-3.3309,-3.3309,-3.3309,-3.3309,-3.3309,-3.3309,-3.3309,-3.3309,-3.3309,-3.3309,-3.3309,-3.3309,-3.3309,-3.3309,-3.3309,-3.3309,-3.3309,-3.3309,-3.3309,-3.3309,-3.3309,-3.3309,-3.3309,-3.3309,-3.3309,-3.3309,-3.3309,-3.3309,-3.3309,-3.3309,-3.3309,-3.3309,-3.3309,-3.3309,-3.3309,-3.3309,-3.3309,-3.3309,-3.3256,-3.315,-3.315,-3.3058,-3.3005,-3.3096,-3.2866,-3.2772,-3.3454,-3.4012,-3.4616,-3.5618,-3.636,-3.6917,-3.7222,-3.7279,-3.6864,-3.5688,-3.5308,-3.4856,-3.3725,-3.3555,-3.3607,-3.3694,-3.3694,-3.3694,-3.3694,-3.3694,-3.3694,-3.3694,-3.3694,-3.3694,-3.3694,-3.3694,-3.3607,-3.3398,-3.3346,-3.3309,-3.3309,-3.3309,-3.3309,-3.3309,-3.3309,-3.3309,-3.3309,-3.3309,-3.3309,-3.3309,-3.3309,-3.3309,-2.2291,-2.316,-2.4069,-2.4109,0.0,0.0,-2.5174,-2.5453,0.0,0.0,0.0,0.0,0.0,-2.6907,-2.7372,-2.7925,-2.9307,-3.0474,-3.0927,0.0,-3.3245,-3.3293,-3.3309,-3.3309,-3.3309,-3.3309,-3.3309,-3.3309,-3.3309,-3.3309,-3.3309,-3.3309,-3.3309,-3.3309,-3.3309,-3.3309,-3.3309,-3.3309,-3.3309,-3.3309,-3.3309,-3.3309,-3.3309,-3.3309,-3.3309,-3.3309,-3.3309,-3.3309,-3.3309,-3.3309,-3.3309,-3.3309,-3.3309,-3.3309,-3.3309,-3.3309,-3.3309,-3.3309,-3.3309,-3.3309,-3.3309,-3.3309,-3.3309,-3.3309,-3.3309,-3.3309,-3.3256,-3.3309,-3.324,-3.3398,-3.406,-3.4265,-3.466,-3.6032,-3.6411,-3.6616,-3.7338,-3.6959,-3.6279,-3.5689,-3.5022,-3.4377,-3.3786,-3.371,-3.371,-3.3694,-3.3694,-3.3694,-3.3694,-3.3694,-3.3694,-3.3694,-3.3694,-3.3694,-3.3694,-3.3694,-3.3694,-3.3642,-3.345,-3.3309,-3.3309,-3.3309,-3.3309,-3.3309,-3.3309,-3.3309,-3.3309,-3.3309,-3.3309,-3.3309,-3.3309,-3.3309,-2.3228,-2.377,-2.4204,-2.4584,0.0,0.0,0.0,0.0,0.0,0.0,0.0,0.0,0.0,0.0,-2.781,-2.8636,-2.9867,-3.1033,-3.1691,-3.2692,-3.3309,-3.3309,-3.3309,-3.3309,-3.3309,-3.3309,-3.3309,-3.3309,-3.3309,-3.3309,-3.3309,-3.3309,-3.3309,-3.3309,-3.3309,-3.3309,-3.3309,-3.3309,-3.3309,-3.3309,-3.3398,-3.3398,-3.345,-3.3607,-3.3658,-3.3555,-3.3658,-3.3607,-3.3398,-3.3398,-3.3398,-3.345,-3.3607,-3.3607,-3.3555,-3.3658,-3.3555,-3.3398,-3.3398,-3.3361,-3.3309,-3.3309,-3.3309,-3.3309,-3.3309,-3.3309,-3.3309,-3.3309,-3.3309,-3.3356,-3.3609,-3.3988,-3.4431,-3.4968,-3.5442,-3.5853,-3.6121,-3.602,-3.5681,-3.5022,-3.4781,-3.4473,-3.3925,-3.3899,-3.4,-3.405,-3.4151,-3.4201,-3.4201,-3.4201,-3.4201,-3.4201,-3.4101,-3.4101,-3.4201,-3.405,-3.4,-3.405,-3.3642,-3.3398,-3.3398,-3.3346,-3.3309,-3.3309,-3.3309,-3.3309,-3.3309,-3.3309,-3.3309,-3.3309,-3.3309,-3.3309,-2.3892,-2.4259,-2.4558,0.0,0.0,0.0,0.0,0.0,0.0,0.0,0.0,0.0,0.0,0.0,0.0,0.0,-3.0324,-3.1444,-3.2136,-3.2814,-3.3256,-3.3309,-3.3309,-3.3309,-3.3309,-3.3309,-3.3309,-3.3309,-3.3309,-3.3309,-3.3309,-3.3309,-3.3309,-3.3309,-3.3309,-3.3309,-3.3309,-3.3309,-3.3309,-3.3309,-3.3503,-3.3555,-3.3555,-3.3848,-3.3949,-3.3899,-3.4,-3.3899,-3.3761,-3.371,-3.3694,-3.3745,-3.3949,-3.4,-3.3949,-3.4,-3.3899,-3.3761,-3.3694,-3.3607,-3.3503,-3.3503,-3.345,-3.3346,-3.3346,-3.3346,-3.3309,-3.3309,-3.3309,-3.3309,-3.3309,-3.364,-3.4036,-3.4241,-3.4683,-3.511,-3.5331,-3.5316,-3.5125,-3.4632,-3.4505,-3.4426,-3.4081,-3.4151,-3.4332,-3.4659,-3.4791,-3.4923,-3.5152,-3.5185,-3.5103,-3.4874,-3.4546,-3.4399,-3.4546,-3.4448,-3.4399,-3.4546,-3.4184,-3.3882,-3.3694,-3.3607,-3.3555,-3.3555,-3.3555,-3.3555,-3.3555,-3.3555,-3.3555,-3.3555,-3.3503,-3.363,-2.4123,-2.4668,-2.5174,0.0,0.0,0.0,0.0,0.0,0.0,0.0,0.0,-2.6578,-2.6951,0.0,0.0,-2.9144,-3.0535,-3.1678,-3.1961,-3.2641,-3.315,-3.3293,-3.3309,-3.3309,-3.3309,-3.3309,-3.3309,-3.3309,-3.3309,-3.3309,-3.3309,-3.3309,-3.3309,-3.3309,-3.3309,-3.3309,-3.3309,-3.3309,-3.3309,-3.3309,-3.3555,-3.3694,-3.3694,-3.4,-3.4201,-3.43,-3.43,-3.43,-3.43,-3.4151,-3.4201,-3.43,-3.43,-3.4399,-3.4497,-3.4349,-3.43,-3.43,-3.4151,-3.4,-3.3899,-3.3899,-3.3694,-3.3503,-3.3503,-3.3398,-3.3309,-3.3309,-3.3309,-3.3309,-3.3309,-3.3309,-3.3467,-3.4115,-3.4273,-3.4478,-3.5205,-3.492,-3.4536,-3.4697,-3.4381,-3.4151,-3.4316,-3.4415,-3.4759,-3.5496,-3.5594,-3.5873,-3.6593,-3.6675,-3.6397,-3.566,-3.4939,-3.4546,-3.4707,-3.4851,-3.4947,-3.5088,-3.5055,-3.4754,-3.4134,-3.4101,-3.4101,-3.4101,-3.4101,-3.4101,-3.4101,-3.4101,-3.4101,-3.4101,-3.3949,-3.4301,-2.4791,-2.512,0.0,-2.5425,0.0,0.0,0.0,0.0,0.0,0.0,0.0,-2.6654,-2.7252,0.0,0.0,-3.0236,-3.1189,-3.1992,-3.2667,-3.3061,-3.3256,-3.3309,-3.3309,-3.3309,-3.3309,-3.3309,-3.3309,-3.3309,-3.3309,-3.3309,-3.3309,-3.3309,-3.3309,-3.3309,-3.3309,-3.3309,-3.3309,-3.3309,-3.3309,-3.3309,-3.3555,-3.3797,-3.4,-3.4448,-3.4756,-3.4851,-3.4947,-3.4883,-3.4642,-3.4578,-3.4578,-3.4706,-3.493,-3.4977,-3.4991,-3.4977,-3.4866,-3.4658,-3.4529,-3.4448,-3.43,-3.4201,-3.405,-3.3899,-3.3694,-3.3555,-3.3398,-3.3361,-3.3309,-3.3309,-3.3309,-3.3309,-3.3356,-3.3546,-3.3593,-3.371,-3.3985,-3.4017,-3.3962,-3.4118,-3.4196,-3.4413,-3.4984,-3.5267,-3.5663,-3.6403,-3.6569,-3.6753,-3.6967,-3.6605,-3.6241,-3.6025,-3.5346,-3.4994,-3.5195,-3.5241,-3.5333,-3.556,-3.5616,-3.5374,-3.4738,-3.4545,-3.4448,-3.4448,-3.4382,-3.4399,-3.4399,-3.4399,-3.4399,-3.4415,-3.4855,-3.5147,-2.5259,-2.5481,0.0,-2.5647,-2.5702,-2.5757,-2.5893,0.0,0.0,0.0,0.0,-2.696,-2.7472,-2.8444,0.0,-3.0624,-3.1411,-3.2114,-3.2788,-3.3043,-3.3203,-3.3309,-3.3309,-3.3309,-3.3309,-3.3309,-3.3309,-3.3309,-3.3309,-3.3309,-3.3309,-3.3309,-3.3309,-3.3309,-3.3309,-3.3309,-3.3309,-3.3309,-3.3361,-3.3398,-3.3642,-3.4,-3.4349,-3.4787,-3.5088,-3.5321,-3.5412,-3.535,-3.5115,-3.5055,-3.5102,-3.5224,-3.5412,-3.5503,-3.5515,-3.5503,-3.535,-3.5178,-3.5102,-3.4977,-3.4818,-3.4739,-3.4546,-3.43,-3.4,-3.3745,-3.3555,-3.3398,-3.3346,-3.3309,-3.3309,-3.3309,-3.3309,-3.3309,-3.3498,-3.3741,-3.3916,-3.4021,-3.411,-3.4333,-3.4345,-3.4627,-3.5362,-3.5695,-3.6241,-3.7281,-3.7781,-3.8066,-3.8066,-3.7569,-3.7101,-3.6816,-3.6192,-3.5744,-3.5639,-3.5694,-3.5871,-3.6045,-3.6174,-3.6071,-3.5677,-3.5328,-3.5128,-3.5128,-3.5068,-3.5068,-3.5068,-3.5068,-3.5171,-3.5471,-3.5856,-3.6241,-2.555,0.0,0.0,-2.5893,-2.6002,0.0,-2.6286,-2.6167,-2.6087,-2.6196,0.0,-2.7408,-2.7784,-2.9093,-3.0199,-3.0526,-3.1403,-3.215,-3.2532,-3.2812,-3.3005,-3.3256,-3.3309,-3.3309,-3.3309,-3.3309,-3.3309,-3.3309,-3.3309,-3.3309,-3.3309,-3.3309,-3.3309,-3.3309,-3.3309,-3.3309,-3.3309,-3.3293,-3.3398,-3.3503,-3.3797,-3.4184,-3.4739,-3.4994,-3.5321,-3.5667,-3.5773,-3.5773,-3.5622,-3.5622,-3.5728,-3.5817,-3.5817,-3.5905,-3.6019,-3.5905,-3.5817,-3.5817,-3.5667,-3.5577,-3.5424,-3.5367,-3.5088,-3.4691,-3.4448,-3.405,-3.3694,-3.3555,-3.3398,-3.3309,-3.3309,-3.3309,-3.3324,-3.3372,-3.3862,-3.4358,-3.4552,-3.4707,-3.483,-3.4993,-3.4852,-3.4906,-3.5628,-3.6009,-3.6688,-3.8148,-3.9016,-3.9554,-3.9537,-3.9076,-3.8469,-3.7812,-3.7187,-3.6631,-3.607,-3.6216,-3.6402,-3.6544,-3.6643,-3.6742,-3.6742,-3.6241,-3.595,-3.595,-3.595,-3.595,-3.595,-3.6019,-3.6368,-3.6962,-3.6944,-3.757,-2.5798,-2.5893,0.0,0.0,-2.6233,-2.6286,-2.6286,-2.6657,-2.7013,-2.7013,-2.7238,-2.7792,-2.8843,-2.9551,-3.019,-3.0981,-3.1607,-3.215,-3.2532,-3.285,-3.3096,-3.3309,-3.3309,-3.3309,-3.3309,-3.3309,-3.3309,-3.3309,-3.3309,-3.3309,-3.3309,-3.3309,-3.3309,-3.3309,-3.3309,-3.3309,-3.3309,-3.3398,-3.3503,0.0,-3.405,-3.448,-3.4944,-3.5195,-3.5605,-3.6079,-3.6079,-3.6036,-3.5932,-3.5932,-3.5975,-3.6122,-3.6122,-3.6148,-3.6233,-3.6165,-3.6122,-3.6079,-3.5975,-3.5888,-3.5844,-3.5728,-3.5487,-3.5195,-3.4883,-3.4497,-3.4101,-3.3745,-3.3555,-3.345,-3.3361,-3.3309,-3.3435,-3.3957,-3.4194,-3.4397,-3.4713,-3.5198,-3.5476,-3.5178,-3.5717,-3.6301,-3.6602,-3.7317,-3.8219,-3.9222,-3.9645,-3.9833,-3.9986,-3.9001,-3.8308,-3.8265,-3.7151,-3.6431,-3.6377,-3.6502,-3.6643,-3.6748,-3.6869,-3.6948,-3.6948,-3.6568,-3.6343,-3.6343,-3.6259,-3.6199,-3.6199,-3.6836,-3.7214,-3.7403,-3.8454,-3.9016,-2.6111,0.0,0.0,-2.6379,0.0,-2.664,-2.6888,-2.7259,-2.7662,-2.8281,-2.8397,-2.8598,-2.9377,-2.9871,-3.0426,-3.0999,-3.1409,-3.1796,-3.2231,-3.2633,-3.2973,-3.3203,-3.3256,-3.3309,-3.3309,-3.3309,-3.3309,-3.3309,-3.3309,-3.3309,-3.3309,-3.3309,-3.3309,-3.3309,-3.3309,-3.3309,-3.3309,-3.345,-3.3642,-3.3899,-3.43,-3.4866,-3.5498,-3.5694,-3.5932,-3.6251,-3.6251,-3.6191,-3.6131,-3.6131,-3.6191,-3.6251,-3.6251,-3.6276,-3.6301,-3.6276,-3.6251,-3.6233,-3.6191,-3.6131,-3.6148,-3.6036,-3.5844,-3.5605,-3.5258,-3.4835,-3.4399,-3.4,-3.3761,-3.3555,-3.345,-3.3503,-3.3686,-3.4037,-3.4482,-3.5015,-3.5655,-3.6062,-3.622,-3.5833,-3.6032,-3.6419,-3.7003,-3.8271,-3.9379,-3.9935,-3.9783,-3.9645,-3.9793,-3.9007,-3.8332,-3.8033,-3.7482,-3.6984,-3.6643,-3.6748,-3.6869,-3.6908,-3.6948,-3.6987,-3.6987,-3.6829,-3.6748,-3.6748,-3.669,-3.665,-3.665,-3.7415,-3.7947,-3.8287,-3.9423,-3.9968,-2.6286,0.0,-2.634,-2.6418,-2.6679,0.0,-2.7498,-2.7842,-2.8291,-2.9349,-2.9507,-2.9478,-2.9711,-3.0219,-3.0642,-3.0762,-3.1058,-3.1452,-3.1868,-3.2287,-3.2672,-3.3043,-3.3203,-3.3256,-3.3309,-3.3309,-3.3309,-3.3309,-3.3309,-3.3309,-3.3309,-3.3309,-3.3309,-3.3309,-3.3309,-3.3293,-3.3346,-3.3503,-3.3745,-3.4151,-3.4643,-3.5287,-3.6019,-3.6165,-3.6251,-3.6301,-3.6301,-3.6301,-3.6301,-3.6301,-3.6301,-3.6301,-3.6301,-3.6301,-3.6301,-3.6301,-3.6301,-3.6301,-3.6301,-3.6301,-3.6301,-3.6251,-3.6105,-3.5975,-3.556,-3.5148,-3.4739,-3.43,-3.405,-3.3797,-3.3642,-3.3797,-3.3982,-3.4145,-3.4819,-3.5657,-3.6653,-3.6966,-3.6948,-3.6543,-3.6188,-3.6307,-3.7452,-3.8856,-3.9881,-4.0182,-3.9648,-3.923,-3.937,-3.8926,-3.8348,-3.7766,-3.7777,-3.7545,-3.6881,-3.6948,-3.6987,-3.6987,-3.6987,-3.6987,-3.6987,-3.6987,-3.704,-3.718,-3.704,-3.704,-3.718,-3.7935,-3.8666,-3.9371,-4.0115,-4.0652,0.0,0.0,-2.6272,0.0,-2.6794,-2.7224,0.0,0.0,-2.9232,0.0,-2.9507,-2.974,-3.035,-3.051,-3.0642,-3.0762,-3.1058,-3.1394,-3.1682,-3.212,-3.2578,-3.2897,-3.3058,-3.315,-3.3309,-3.3309,-3.3309,-3.3309,-3.3309,-3.3309,-3.3309,-3.3309,-3.3309,-3.3309,-3.3309,-3.3361,-3.345,-3.3694,-3.405,-3.4448,-3.5258,-3.5861,-3.6182,-3.6233,-3.6301,-3.6301,-3.6301,-3.6301,-3.6301,-3.6301,-3.6301,-3.6301,-3.6301,-3.6301,-3.6301,-3.6301,-3.6301,-3.6301,-3.6301,-3.6301,-3.6301,-3.6301,-3.6251,-3.6122,-3.5817,-3.5532,-3.5195,-3.4739,-3.4497,-3.4349,-3.425,-3.4201,-3.4397,-3.5134,-3.5377,-3.5684,-3.6397,-3.7101,-3.7437,-3.6927,-3.6719,-3.7097,-3.8724,-3.8841,-3.8958,-3.9692,-3.9215,-3.8849,-3.8955,-3.8442,-3.8063,-3.8047,-3.7492,-3.7093,-3.6987,-3.6987,-3.6987,-3.6987,-3.6987,-3.6987,-3.6987,-3.6987,-3.7286,-3.7935,-3.7321,-3.7303,-3.7953,-3.876,-3.955,-4.034,-4.0963,-4.1276,-2.6418,-2.6583,-2.68,0.0,-2.7158,-2.7712,-2.8139,0.0,-2.9491,-2.9822,-3.0028,-3.0248,-3.0524,-3.0568,-3.0642,-3.0702,-3.0881,-3.1117,-3.1263,-3.1724,-3.2135,-3.2484,-3.2773,-3.3058,-3.315,-3.3256,-3.3309,-3.3309,-3.3309,-3.3309,-3.3309,-3.3309,-3.3309,-3.3309,-3.3309,-3.3346,-3.3503,-3.3745,-3.4284,-3.5008,-3.5605,-3.6019,-3.6276,-3.6301,-3.6301,-3.6301,-3.6301,-3.6301,-3.6301,-3.6301,-3.6301,-3.6301,-3.6301,-3.6301,-3.6301,-3.6301,-3.6301,-3.6301,-3.6301,-3.6301,-3.6301,-3.6301,-3.6259,-3.6233,-3.6079,-3.58,-3.5424,-3.5102,-3.4883,-3.4691,-3.461,-3.4723,-3.4965,-3.5343,-3.5821,-3.6252,-3.6554,-3.6969,-3.7232,-3.6917,-3.6941,-3.7336,-3.8184,-3.8553,-3.8859,-3.9294,-3.8747,-3.8345,-3.8454,-3.7848,-3.7456,-3.7479,-3.718,-3.6987,-3.6987,-3.6987,-3.6987,-3.6987,-3.6987,-3.6987,-3.6987,-3.7391,-3.7777,-3.8093,-3.7777,-3.8006,-3.8778,-3.9585,-4.0147,-4.0498,-4.1209,-4.1471,0.0,0.0,-2.7074,-2.7131,-2.7567,-2.8144,0.0,0.0,-2.9705,0.0,-3.0462,-3.0568,-3.0568,-3.0568,-3.0568,-3.0568,-3.0702,-3.0821,-3.0925,-3.1321,-3.1781,-3.2079,-3.2539,-3.2881,-3.3096,-3.3203,-3.3309,-3.3309,-3.3309,-3.3309,-3.3309,-3.3309,-3.3309,-3.3309,-3.3309,-3.3398,-3.3555,-3.3949,-3.4578,-3.547,-3.5844,-3.6105,-3.6301,-3.6301,-3.6301,-3.6301,-3.6301,-3.6301,-3.6301,-3.6301,-3.6301,-3.6301,-3.6301,-3.6301,-3.6301,-3.6301,-3.6301,-3.6301,-3.6301,-3.6301,-3.6301,-3.6343,-3.6343,-3.636,-3.6293,-3.6079,-3.5783,-3.5498,-3.5333,-3.5165,-3.5131,-3.5258,-3.5458,-3.5577,-3.6118,-3.6622,-3.6717,-3.6877,-3.69,-3.6707,-3.684,-3.7172,-3.7577,-3.8051,-3.8467,-3.8786,-3.8233,-3.7784,-3.783,-3.7338,-3.6987,-3.6987,-3.6987,-3.6987,-3.6987,-3.6987,-3.6987,-3.6987,-3.6987,-3.7058,-3.7251,-3.7812,-3.8304,-3.8708,-3.8708,-3.9006,-3.9621,-4.02,-4.0586,-4.0779,-4.1341,-4.156,0.0,-2.7017,0.0,-2.7332,-2.7917,0.0,0.0,0.0,0.0,-3.0111,-3.0341,-3.0568,-3.0568,-3.0568,-3.0568,-3.0568,-3.0702,-3.0821,-3.0821,-3.1204,-3.161,-3.1981,-3.2342,-3.2726,-3.3043,-3.3203,-3.3309,-3.3309,-3.3309,-3.3309,-3.3309,-3.3309,-3.3309,-3.3309,-3.3309,-3.345,-3.371,-3.4448,-3.5118,-3.5577,-3.5888,-3.6105,-3.6301,-3.6301,-3.6301,-3.6301,-3.6301,-3.6301,-3.6301,-3.6301,-3.6301,-3.6301,-3.6301,-3.6301,-3.6301,-3.6301,-3.6301,-3.6301,-3.6301,-3.6301,-3.6301,-3.6444,-3.6502,-3.6502,-3.6502,-3.6461,-3.6402,-3.6114,-3.6002,-3.5932,-3.5932,-3.5861,-3.5817,-3.6096,-3.62,-3.6336,-3.6797,-3.6893,-3.6752,-3.6328,-3.6302,-3.6679,-3.76,-3.7306,-3.7178,-3.8018,-3.7532,-3.704,-3.704,-3.7005,-3.6987,-3.6987,-3.6987,-3.6987,-3.6987,-3.6987,-3.6987,-3.6987,-3.6987,-3.7303,-3.8023,-3.8093,-3.8813,-4.0323,-4.0401,-4.0375,-4.0411,-4.0463,-4.0849,-4.1552,-4.1587,-4.1604,0.0,0.0,0.0,-2.8236,-2.8694,-2.9204,-2.9204,-2.9633,-3.0111,-3.0219,-3.0462,-3.0568,-3.0568,-3.0568,-3.0568,-3.0568,-3.0642,-3.0702,-3.0702,-3.0866,-3.1161,-3.1524,-3.1966,-3.2358,-3.2726,-3.3027,-3.3203,-3.3309,-3.3309,-3.3309,-3.3309,-3.3309,-3.3309,-3.3309,-3.3309,-3.3503,-3.3949,-3.4497,-3.5071,-3.5622,-3.5888,-3.6105,-3.6301,-3.6301,-3.6301,-3.6301,-3.6301,-3.6301,-3.6301,-3.6301,-3.6301,-3.6301,-3.6301,-3.6301,-3.6301,-3.6402,-3.6444,-3.6444,-3.6544,-3.6544,-3.6544,-3.6602,-3.6643,-3.6643,-3.6643,-3.6561,-3.6502,-3.6385,-3.6259,-3.6216,-3.6276,-3.6293,-3.6293,-3.6478,-3.652,-3.6565,-3.674,-3.6689,-3.6646,-3.6596,-3.6609,-3.6777,-3.7218,-3.7084,-3.7036,-3.7338,-3.7163,-3.6987,-3.6987,-3.6987,-3.6987,-3.6987,-3.6987,-3.6987,-3.6987,-3.6987,-3.6987,-3.6987,-3.7426,-3.783,-3.8093,-3.9076,-3.9901,-4.0506,-4.0955,-4.12,-4.12,-4.12,-4.1341,-4.1604,-4.1604,-4.1604,-2.8641,0.0,0.0,0.0,0.0,-2.9651,-2.9651,0.0,-3.0219,-3.0266,-3.0447,-3.0568,-3.0568,-3.0568,-3.0568,-3.0568,-3.0568,-3.0568,-3.0568,-3.0702,-3.0881,-3.1161,-3.1625,-3.2023,-3.2437,-3.2812,-3.3112,-3.3203,-3.3256,0.0,-3.3309,-3.3309,-3.3309,-3.3309,-3.3346,-3.3607,-3.4101,-3.4497,-3.5024,-3.5622,-3.5888,-3.6105,-3.6301,-3.6301,-3.6301,-3.6301,-3.6301,-3.6301,-3.6301,-3.6301,-3.6301,-3.6301,-3.636,-3.636,-3.6385,-3.6502,-3.6561,-3.6602,-3.6661,-3.6702,-3.6702,-3.6725,-3.6725,-3.6725,-3.6806,-3.6748,-3.6667,-3.6667,-3.6568,-3.6485,-3.6568,-3.6585,-3.6626,-3.6725,-3.6766,-3.6806,-3.6806,-3.6684,-3.6602,-3.6748,-3.6748,-3.6788,-3.6908,-3.693,-3.6948,-3.697,-3.6987,-3.6987,-3.6987,-3.6987,-3.6987,-3.6987,-3.6987,-3.7075,-3.7338,-3.7356,-3.7479,-3.7742,-3.8234,-3.862,-3.8883,-3.9919,-4.0604,-4.0849,-4.1341,-4.1604,-4.1604,-4.1604,-4.1604,-4.1604,-4.1604,-4.1604,0.0,0.0,0.0,0.0,0.0,0.0,-2.9808,0.0,-3.0312,-3.0312,-3.0447,-3.0568,-3.0568,-3.0568,-3.0568,-3.0568,-3.0568,-3.0568,-3.0568,-3.0702,-3.0807,-3.097,-3.1379,-3.1796,-3.2135,-3.2609,-3.2951,-3.3112,-3.3203,-3.3309,-3.3309,-3.3309,-3.3309,-3.3309,-3.345,-3.3694,-3.4101,-3.4497,-3.5024,-3.5622,-3.5888,-3.6105,-3.6301,-3.6301,-3.6301,-3.6301,-3.6301,-3.6301,-3.6301,-3.6301,-3.6301,-3.6301,-3.6444,-3.6502,-3.6502,-3.6643,-3.6702,-3.6702,-3.6702,-3.6702,-3.6742,-3.6788,-3.6829,-3.6829,-3.6948,-3.6987,-3.6987,-3.6987,-3.6908,-3.6829,-3.6829,-3.6829,-3.6829,-3.6829,-3.6908,-3.6987,-3.6987,-3.6846,-3.6702,-3.6702,-3.6702,-3.6725,-3.6788,-3.6829,-3.6869,-3.6987,-3.6987,-3.6987,-3.6987,-3.6987,-3.7027,-3.7023,-3.7023,-3.7321,-3.8076,-3.8146,-3.848,-3.9269,-3.934,-3.9691,-4.0446,-4.0498,-4.0849,-4.1587,-4.1604,-4.1604,-4.1604,-4.1604,-4.1604,-4.1604,-4.1604,-4.1604,-3.0265,0.0,0.0,0.0,0.0,0.0,0.0,0.0,0.0,-3.0507,-3.0568,-3.0568,-3.0568,-3.0568,-3.0568,-3.0568,-3.0568,-3.0568,-3.0568,-3.0642,-3.0702,-3.0821,-3.1161,-3.1567,-3.1981,-3.2413,-3.2796,0.0,-3.3203,-3.3309,-3.3309,-3.3309,-3.3309,-3.3309,-3.345,-3.3694,-3.4101,-3.4497,-3.5024,-3.5622,-3.5888,-3.6105,-3.6301,-3.6301,-3.6301,-3.6301,-3.6301,-3.6301,-3.6301,-3.6301,-3.6301,-3.6301,-3.6444,-3.6502,-3.6544,-3.6708,-3.6788,-3.6788,-3.6869,-3.6908,-3.6908,-3.6948,-3.693,-3.6948,-3.6987,-3.6987,-3.6987,-3.6987,-3.697,-3.693,-3.693,-3.693,-3.693,-3.693,-3.697,-3.6987,-3.6987,-3.6948,-3.6908,-3.6908,-3.6908,-3.6908,-3.6948,-3.693,-3.6948,-3.697,-3.6987,-3.6987,-3.6987,-3.6987,-3.718,-3.7742,-3.7795,-3.8111,-3.8918,-3.8971,-3.9076,-3.9305,-3.9849,-4.0253,-4.0463,-4.1007,-4.1394,-4.1604,-4.1604,-4.1604,-4.1604,-4.1604,-4.1604,-4.1604,-4.1604,-4.1604,0.0,0.0,0.0,0.0,0.0,0.0,-3.0642,-3.0642,-3.0642,0.0,-3.0702,-3.0702,-3.0702,-3.0702,-3.0702,-3.0702,-3.0702,-3.0642,-3.0628,-3.0568,-3.0642,-3.0702,-3.0999,-3.1351,-3.1739,-3.2231,-3.2687,-3.3005,-3.3203,-3.3309,-3.3309,-3.3309,-3.3309,-3.3309,-3.345,-3.3694,-3.4201,-3.4529,-3.5055,-3.5684,-3.5949,-3.6148,-3.6301,-3.6301,-3.6301,-3.6301,-3.6301,-3.6301,-3.6301,-3.6301,-3.6343,-3.6402,-3.6544,-3.6585,-3.6667,-3.6829,-3.6891,-3.6891,-3.697,-3.6987,-3.6987,-3.6987,-3.6987,-3.6987,-3.6987,-3.6987,-3.6987,-3.6987,-3.6987,-3.6987,-3.6987,-3.6987,-3.6987,-3.6987,-3.6987,-3.6987,-3.6987,-3.6987,-3.6987,-3.6987,-3.6987,-3.6987,-3.6987,-3.6987,-3.6987,-3.6987,-3.6987,-3.7093,-3.7409,-3.7444,-3.7742,-3.8532,-3.8602,-3.8936,-3.9726,-3.9796,-3.9937,-4.0253,-4.0691,-4.0955,-4.0955,-4.1376,-4.1604,-4.1604,-4.1604,-4.1604,-4.1604,-4.1604,-4.1604,-4.1604,-4.1604,-4.1604,0.0,0.0,0.0,0.0,0.0,0.0,-3.1132,-3.1132,-3.1073,-3.0881,-3.0881,-3.0881,-3.0881,-3.0881,-3.0881,-3.0881,-3.0881,-3.0821,-3.0628,-3.0568,-3.0568,-3.0568,-3.0895,-3.119,-3.148,-3.2048,-3.2523,-3.2843,-3.315,-3.3309,-3.3309,-3.3309,-3.3309,-3.3309,-3.345,-3.3797,-3.43,-3.4658,-3.5178,-3.5817,-3.6079,-3.6251,-3.6301,-3.6301,-3.6301,-3.6301,-3.6301,-3.6301,-3.6301,-3.6301,-3.6402,-3.6502,-3.6643,-3.6725,-3.6829,-3.6948,-3.6987,-3.6987,-3.6987,-3.6987,-3.6987,-3.6987,-3.6987,-3.6987,-3.6987,-3.6987,-3.6987,-3.6987,-3.6987,-3.6987,-3.6987,-3.6987,-3.6987,-3.6987,-3.6987,-3.6987,-3.6987,-3.6987,-3.6987,-3.6987,-3.6987,-3.6987,-3.6987,-3.6987,-3.6987,-3.6987,-3.7058,-3.7356,-3.8023,-3.8181,-3.855,-3.9357,-3.9445,-3.9761,-4.0533,-4.0604,-4.0884,-4.1569,-4.1604,-4.1604,-4.1604,-4.1604,-4.1604,-4.1604,-4.1604,-4.1604,-4.1604,-4.1604,-4.1604,-4.1604,-4.1604,-4.1604,0.0,0.0,0.0,0.0,0.0,0.0,-3.1437,-3.1437,-3.1379,0.0,-3.1234,-3.1234,-3.1234,-3.1234,-3.1234,-3.1234,-3.1234,-3.1043,-3.0642,-3.0568,-3.0568,-3.0568,-3.0895,-3.119,-3.148,-3.2048,-3.2523,-3.2843,-3.315,-3.3309,-3.3309,-3.3309,-3.3361,-3.345,-3.371,-3.405,-3.4448,-3.493,-3.5412,-3.5817,-3.6079,-3.6251,-3.6301,-3.6301,-3.6301,-3.6301,-3.6301,-3.6301,-3.6301,-3.6301,-3.6402,-3.6502,-3.6643,-3.6725,-3.6829,-3.6948,-3.6987,-3.6987,-3.6987,-3.6987,-3.6987,-3.6987,-3.6987,-3.6987,-3.6987,-3.6987,-3.6987,-3.6987,-3.6987,-3.6987,-3.6987,-3.6987,-3.6987,-3.6987,-3.6987,-3.6987,-3.6987,-3.6987,-3.6987,-3.6987,-3.6987,-3.6987,-3.6987,-3.6987,-3.6987,-3.6987,-3.7496,-3.7935,-3.8093,-3.8673,-3.9375,-4.0165,-4.0253,-4.0551,-4.1323,-4.1394,-4.1446,-4.1604,-4.1604,-4.1604,-4.1604,-4.1604,-4.1604,-4.1604,-4.1604,-4.1604,-4.1604,-4.1604,-4.1604,-4.1604,-4.1604,-4.1604,0.0,0.0,0.0,-3.2064,0.0,0.0,0.0,-3.1936,-3.1894,-3.1697,-3.1682,-3.1739,-3.164,-3.1682,-3.1739,-3.164,-3.164,-3.1509,-3.1087,-3.0925,-3.0821,-3.0821,-3.1058,-3.1292,-3.1552,-3.212,-3.2578,-3.3043,-3.3203,-3.3309,-3.3309,-3.3309,-3.3346,-3.3503,-3.3848,-3.4184,-3.4658,-3.5165,-3.5639,-3.5993,-3.6165,-3.6318,-3.6402,-3.6402,-3.6444,-3.6502,-3.6502,-3.6502,-3.6502,-3.6502,-3.6585,-3.6667,-3.6684,-3.6766,-3.6908,-3.6987,-3.6987,-3.6987,-3.6987,-3.6987,-3.6987,-3.6987,-3.6987,-3.6987,-3.6987,-3.6987,-3.6987,-3.6987,-3.6987,-3.6987,-3.6987,-3.6987,-3.6987,-3.6987,-3.6987,-3.6987,-3.6987,-3.6987,-3.6987,-3.6987,-3.7286,-3.7426,-3.704,-3.7303,-3.7549,-3.7549,-3.8199,-3.8848,-3.9252,-3.9638,-4.0182,-4.0955,-4.1042,-4.12,-4.1569,-4.1604,-4.1604,-4.1604,-4.1604,-4.1604,-4.1604,-4.1604,-4.1604,-4.1604,-4.1604,-4.1648,-4.1692,-4.1692,-4.1692,-4.1692,-4.1692,-4.1736,0.0,0.0,0.0,0.0,0.0,-3.2523,0.0,0.0,0.0,0.0,0.0,0.0,0.0,0.0,0.0,0.0,0.0,0.0,0.0,-3.1509,0.0,-3.119,-3.1292,-3.1509,-3.1796,-3.2231,-3.2742,-3.324,-3.3309,-3.3293,-3.3346,-3.3346,-3.345,-3.3658,-3.4,-3.4415,-3.4927,-3.5379,-3.5817,-3.6225,-3.6276,-3.6343,-3.6502,-3.6502,-3.6544,-3.6702,-3.6702,-3.6702,-3.6702,-3.6702,-3.6725,-3.6788,-3.6725,-3.6829,-3.6987,-3.6987,-3.6987,-3.6987,-3.6987,-3.6987,-3.6987,-3.6987,-3.6987,-3.6987,-3.6987,-3.6987,-3.6987,-3.6987,-3.6987,-3.6987,-3.6987,-3.6987,-3.6987,-3.6987,-3.6987,-3.6987,-3.6987,-3.6987,-3.6987,-3.6987,-3.7584,-3.7918,-3.7303,-3.783,-3.8339,-3.8339,-3.9024,-3.9761,-4.0411,-4.0604,-4.0937,-4.1552,-4.1604,-4.1604,-4.1604,-4.1604,-4.1604,-4.1604,-4.1604,-4.1604,-4.1604,-4.1604,-4.1648,-4.1666,-4.1666,-4.1736,-4.1866,-4.1866,-4.1866,-4.1866,-4.1866,-4.1995,0.0,0.0,0.0,0.0,-3.2935,0.0,0.0,0.0,-3.2773,-3.2547,0.0,0.0,0.0,0.0,0.0,0.0,0.0,0.0,-3.2327,-3.2287,-3.2064,-3.1495,-3.1552,-3.1796,-3.2135,-3.2703,-3.3096,-3.3309,-3.3309,-3.3346,-3.345,-3.3503,-3.3694,-3.4201,-3.4349,-3.4723,-3.5333,-3.5622,-3.5905,-3.6225,-3.6276,-3.6343,-3.6502,-3.6502,-3.6544,-3.6702,-3.6702,-3.6702,-3.6702,-3.6702,-3.6725,-3.6788,-3.6788,-3.6869,-3.6987,-3.6987,-3.6987,-3.6987,-3.6987,-3.6987,-3.6987,-3.6987,-3.6987,-3.6987,-3.6987,-3.6987,-3.6987,-3.6987,-3.6987,-3.6987,-3.6987,-3.6987,-3.6987,-3.6987,-3.6987,-3.6987,-3.6987,-3.6987,-3.6987,-3.6987,-3.7584,-3.8076,-3.7988,-3.8655,-3.9164,-3.9164,-3.9849,-4.0375,-4.0463,-4.106,-4.1516,-4.1604,-4.1604,-4.1604,-4.1604,-4.1604,-4.1604,-4.1604,-4.1604,-4.1604,-4.1604,-4.1692,-4.1841,-4.1945,-4.1945,-4.197,-4.2061,-4.2205,-4.2205,-4.2061,-4.2205,-4.231,0.0,0.0,0.0,0.0,0.0,0.0,-3.3005,0.0,-3.2897,0.0,0.0,0.0,0.0,0.0,0.0,0.0,-3.2904,0.0,0.0,0.0,-3.2523,0.0,0.0,0.0,-3.2554,-3.2881,-3.315,-3.3309,-3.3346,-3.345,-3.3607,-3.3745,-3.4,-3.4399,-3.4723,-3.5102,-3.5515,-3.5861,-3.6122,-3.6276,-3.636,-3.6502,-3.6602,-3.6667,-3.6748,-3.6869,-3.6869,-3.6869,-3.6869,-3.6869,-3.6908,-3.6908,-3.6908,-3.6948,-3.6987,-3.6987,-3.6987,-3.6987,-3.6987,-3.6987,-3.6987,-3.6987,-3.6987,-3.6987,-3.6987,-3.6987,-3.6987,-3.6987,-3.6987,-3.6987,-3.6987,-3.6987,-3.6987,-3.6987,-3.6987,-3.6987,-3.6987,-3.6987,-3.715,-3.7668,-3.839,-3.9077,-3.96,-3.9869,-4.0056,-4.0056,-4.0835,-4.1414,-4.1414,-4.1782,-4.1995,-4.1892,-4.1892,-4.1866,-4.1858,-4.1841,-4.1841,-4.1841,-4.1841,-4.1841,-4.1841,-4.1902,-4.197,-4.2055,-4.2055,-4.2163,-4.2391,-4.2494,-4.2613,-4.2747,-4.267,-4.2729,-3.3694,0.0,0.0,0.0,0.0,0.0,0.0,0.0,0.0,0.0,0.0,0.0,0.0,0.0,0.0,0.0,0.0,-3.315,0.0,-3.3112,0.0,0.0,0.0,0.0,0.0,-3.3203,-3.3346,-3.3398,-3.3555,-3.3694,-3.3848,-3.4101,-3.4399,-3.4739,-3.5085,-3.547,-3.5756,-3.6036,-3.6251,-3.6301,-3.6444,-3.6544,-3.6702,-3.6748,-3.6851,-3.6987,-3.6987,-3.6987,-3.6987,-3.6987,-3.7009,-3.7009,-3.7009,-3.7048,-3.7066,-3.7027,-3.6987,-3.6987,-3.6987,-3.6987,-3.6987,-3.6987,-3.6987,-3.6987,-3.6987,-3.6987,-3.6987,-3.6987,-3.6987,-3.6987,-3.6987,-3.6987,-3.6987,-3.6987,-3.6987,-3.6987,-3.6987,-3.7009,-3.7277,-3.817,-3.9005,-3.9881,-4.0783,-4.0961,-4.1018,-4.106,-4.1689,-4.2187,-4.2228,-4.2328,-4.2351,-4.2228,-4.2228,-4.2205,-4.2139,-4.2139,-4.2157,-4.2157,-4.2139,-4.2139,-4.2181,-4.2181,-4.2222,-4.231,-4.2292,-4.2472,-4.2747,-4.2826,-4.3014,-4.3304,-4.3142,-4.3142,0.0,0.0,0.0,-3.3694,0.0,0.0,0.0,0.0,-3.2897,0.0,0.0,0.0,0.0,0.0,0.0,0.0,0.0,0.0,0.0,0.0,0.0,0.0,0.0,0.0,0.0,-3.3694,-3.3797,-3.371,-3.3797,-3.4,-3.425,-3.4546,-3.4883,-3.5379,-3.5515,-3.5756,-3.6182,-3.6165,-3.6251,-3.6301,-3.6444,-3.6544,-3.6702,-3.6748,-3.6851,-3.6987,-3.6987,-3.6987,-3.6987,-3.6987,-3.7048,-3.7108,-3.7108,-3.7164,-3.7259,-3.7066,-3.6987,-3.6987,-3.6987,-3.6987,-3.6987,-3.6987,-3.6987,-3.6987,-3.6987,-3.6987,-3.6987,-3.6987,-3.6987,-3.6987,-3.6987,-3.6987,-3.6987,-3.6987,-3.6987,-3.6987,-3.6987,-3.7048,-3.7376,-3.8323,-3.9181,-4.0121,-4.1103,-4.1693,-4.211,-4.221,-4.2315,-4.2454,-4.257,-4.2609,-4.2609,-4.2552,-4.257,-4.2512,-4.2396,-4.2512,-4.257,-4.257,-4.2454,-4.2458,-4.2673,-4.2631,-4.267,-4.2882,-4.2882,-4.2975,-4.316,-4.325,-4.3373,-4.3597,-4.3513,-4.3513,0.0,0.0,-3.425,-3.4,0.0,0.0,0.0,0.0,0.0,0.0,0.0,0.0,0.0,0.0,0.0,0.0,0.0,0.0,0.0,0.0,0.0,0.0,0.0,0.0,0.0,0.0,-3.4101,-3.3949,-3.4151,-3.4399,-3.4691,-3.4961,-3.5333,-3.5667,-3.5905,-3.6079,-3.6225,-3.6233,-3.6276,-3.6301,-3.6544,-3.6661,-3.6702,-3.6869,-3.6948,-3.6987,-3.6987,-3.6987,-3.6987,-3.6987,-3.7048,-3.7108,-3.7203,-3.7279,-3.7354,-3.7147,-3.7069,-3.7069,-3.7009,-3.7048,-3.7069,-3.7069,-3.7126,-3.7182,-3.7182,-3.7126,-3.7069,-3.7069,-3.7048,-3.6987,-3.6987,-3.6987,-3.7009,-3.7048,-3.7069,-3.7108,-3.7241,-3.7261,-3.7765,-3.9312,-3.9871,-4.0576,-4.2136,-4.2625,-4.2806,-4.2691,-4.2806,-4.2957,-4.305,-4.3142,-4.316,-4.305,-4.305,-4.2976,-4.2826,-4.2844,-4.2882,-4.2975,-4.2882,-4.2826,-4.2902,-4.2844,-4.29,-4.3087,-4.3087,-4.3232,-4.3461,-4.36,-4.3701,-4.3781,-4.3814,-4.3814,-3.5178,-3.4991,0.0,-3.448,-3.4134,0.0,-3.3555,0.0,-3.3096,0.0,0.0,0.0,0.0,0.0,0.0,0.0,0.0,0.0,0.0,-3.4431,0.0,0.0,0.0,0.0,0.0,-3.4643,-3.4594,-3.4399,-3.4643,-3.4883,0.0,-3.5424,-3.5694,-3.5949,-3.6122,-3.6251,-3.6251,-3.6259,-3.6343,-3.6343,-3.6602,-3.6684,-3.6725,-3.6908,-3.6987,-3.6987,-3.6987,-3.6987,-3.7009,-3.7009,-3.7108,-3.7223,-3.7392,-3.7503,-3.7595,-3.7374,-3.7261,-3.7185,-3.7126,-3.7164,-3.7223,-3.7261,-3.7354,-3.7429,-3.7429,-3.7374,-3.7299,-3.7299,-3.7241,-3.7203,-3.7203,-3.7203,-3.7203,-3.7279,-3.7299,-3.7337,-3.7485,-3.7559,-3.8169,-4.0023,-4.0402,-4.1017,-4.2886,-4.3286,-4.3304,-4.316,-4.325,-4.3375,-4.3479,-4.3566,-4.3566,-4.3479,-4.3479,-4.3444,-4.3304,-4.325,-4.3286,-4.3393,-4.3286,-4.3232,-4.3286,-4.3214,-4.3214,-4.3393,-4.3393,-4.3513,-4.3716,-4.38,-4.3883,-4.3929,-4.3974,-4.3974]}]]